MPMG - Transparência

Contra-cheque - Remuneração de todos os servidores ativos - Pré Resolução CNMP 200/2019

Período: 2012 - Agosto

Ordem Matrícula Nome Cargo Efetivo Situação Unidade Administrativa Rendimentos Descontos Rendimento Líquido Total Indenizações Outras Remunerações Retroativas/Temporárias Data de Referência
Remuneração Básica Remuneração Eventual ou Temporária Total de Rendimentos Brutos Obrigatórios/Legais Total de Descontos
Remuneração do Cargo Efetivo Outras Verbas Remuneratórias Função de Confiança ou Cargo em Comissão Gratificação Natalina Férias Abono de Permanência Contribuição Previdenciária Imposto de Renda Retenção por Teto Constitucional
1 498900 ABDON MARCIO BARBOSA DA SILVA OFICIAL DO MP ATIVO ABRE CAMPO - COMARCA; ABRE CAMPO-PJ-02PJ 2.554,55 0,00 0,00 0,00 0,00 0,00 2.554,55 281,00 47,74 0,00 328,74 2.225,81 565,00 0,00 31/08/2012
2 177800 ADALBERTO MENEZES FARIA SAMORA OFICIAL DO MP ATIVO BELO HORIZONTE - COMARCA; DIRET DE PLANOS PROJETOS E PROGRAMAS INST 7.356,10 1.471,22 0,00 0,00 0,00 0,00 8.827,32 971,01 1.313,45 0,00 2.284,46 6.542,86 800,00 0,00 31/08/2012
3 306400 ADALBERTO MOREIRA GONCALVES ANALISTA DO MP ATIVO CONTAGEM - COMARCA; CONTAGEM-PJ-01PJ 7.595,56 759,56 0,00 0,00 0,00 0,00 8.355,12 919,06 1.288,39 0,00 2.207,45 6.147,67 330,00 0,00 31/08/2012
4 179300 ADENISE AUXILIADORA SOUZA SAD OFICIAL DO MP ATIVO BARBACENA - COMARCA; EXTINTA-BARBACENA - 06ª PJ EXECUÇÃO PENAL 7.124,13 1.424,83 0,00 0,00 0,00 0,00 8.548,96 1.427,70 2.329,58 0,00 3.757,28 4.791,68 3.545,68 4.724,86 31/08/2012
5 77700 ADIL EXPEDITO DE OLIVEIRA JUNIOR ASSESSOR ATIVO BELO HORIZONTE - COMARCA; CAO-CRIANCAS E ADOLESCENTES-SECRETARIA 0,00 4.986,89 7.124,13 0,00 0,00 0,00 12.111,02 1.332,21 2.117,13 0,00 3.449,34 8.661,68 330,00 0,00 31/08/2012
6 272200 ADILSON BATISTA ORNELAS OFICIAL DO MP ATIVO LAVRAS - COMARCA; LAVRAS-PJ-02PJ 3.519,31 351,93 0,00 0,00 0,00 0,00 3.871,24 472,69 168,13 0,00 640,82 3.230,42 330,00 425,92 31/08/2012
7 380100 ADILSON GONCALVES DE MELO JUNIOR ANALISTA DO MP ATIVO ARAXÁ - COMARCA; ARAXA-PJ-05PJ 5.085,23 305,11 0,00 0,00 0,00 0,00 5.390,34 592,94 472,25 0,00 1.065,19 4.325,15 800,00 0,00 31/08/2012
8 148800 ADILSON JANUARIO OFICIAL DO MP ATIVO BELO HORIZONTE - COMARCA; ASSESS JUR DO CONS SUPERIOR DO MINISTERIO PUB 8.098,20 4.049,10 0,00 0,00 0,00 0,00 12.147,30 1.794,33 3.100,09 0,00 4.894,42 7.252,88 330,00 4.164,80 31/08/2012
9 322600 ADMILSON SILVEIRA OFICIAL DO MP ATIVO BOCAIÚVA - COMARCA; BOCAIUVA-PJ-01PJ 3.811,39 381,14 0,00 0,00 0,00 0,00 4.192,53 461,18 287,40 0,00 748,58 3.443,95 606,48 0,00 31/08/2012
10 333700 ADRIANA ABRITTA TEIXEIRA OFICIAL DO MP ATIVO BELO HORIZONTE - COMARCA; DIRET DE PESSOAL DO MINISTERIO PUBLICO - DPMP 4.619,20 461,92 0,00 0,00 0,00 0,00 5.081,12 558,92 396,57 0,00 955,49 4.125,63 330,00 0,00 31/08/2012
11 468500 ADRIANA APARECIDA FIRMINO ANALISTA DO MP ATIVO CARATINGA - COMARCA; CARATINGA-PJ-04PJ 4.473,58 0,00 0,00 0,00 0,00 0,00 4.473,58 492,09 269,63 0,00 761,72 3.711,86 565,00 0,00 31/08/2012
12 326100 ADRIANA AUGUSTA AMARAL BELO OFICIAL DO MP ATIVO BARBACENA - COMARCA; BARBACENA-PJ-08PJ 4.619,20 461,92 0,00 0,00 0,00 0,00 5.081,12 558,92 396,57 0,00 955,49 4.125,63 800,00 0,00 31/08/2012
13 254800 ADRIANA DAS GRACAS FERNANDES ANALISTA DO MP ATIVO UBERABA - COMARCA; UBERABA-PJ-07PJ 8.361,90 4.180,95 0,00 0,00 0,00 0,00 12.542,85 1.379,71 2.313,33 0,00 3.693,04 8.849,81 330,00 0,00 31/08/2012
14 246900 ADRIANA DE ALMEIDA ANTONINI ASSESSOR ATIVO BELO HORIZONTE - COMARCA; EXTINTA - SECRETARIA ADMINISTRATIVA 0,00 421,56 2.107,81 0,00 0,00 0,00 2.529,37 314,53 43,33 0,00 357,86 2.171,51 330,00 0,00 31/08/2012
15 217400 ADRIANA DE CARVALHO CATAO BRAGA ASSESSOR ATIVO BELO HORIZONTE - COMARCA; EXTINTA - DIRETORIA DE CONTRATOS E CONVÊNIOS 0,00 1.119,64 5.598,22 0,00 2.239,29 0,00 8.957,15 430,78 1.588,22 0,00 2.019,00 6.938,15 330,00 0,00 31/08/2012
16 434600 ADRIANA FERREIRA DA SILVA ANALISTA DO MP ATIVO BELO HORIZONTE - COMARCA; BH-19PJ SAUDE 5.085,23 305,11 0,00 0,00 0,00 0,00 5.390,34 625,97 636,27 0,00 1.262,24 4.128,10 330,00 300,34 31/08/2012
17 499800 ADRIANA FERREIRA TIAGO OFICIAL DO MP ATIVO SALINAS - COMARCA; SALINAS-PJ-02PJ 2.554,55 0,00 0,00 0,00 0,00 0,00 2.554,55 281,00 47,74 0,00 328,74 2.225,81 330,00 0,00 31/08/2012
18 471500 ADRIANA HORTA DE CARVALHO RODRIGUES DE SOUSA ANALISTA DO MP ATIVO NOVA LIMA - COMARCA; NOVA LIMA-PJ-03PJ 4.924,85 0,00 0,00 0,00 0,00 0,00 4.924,85 541,73 403,57 0,00 945,30 3.979,55 565,00 0,00 31/08/2012
19 86400 ADRIANA MOREIRA CALDEIRA BRANT OFICIAL DO MP ATIVO BELO HORIZONTE - COMARCA; EXTINTA-TUTELA DAS FUNDACOES-21 PJ- GABINETE 7.124,13 2.849,65 0,00 0,00 0,00 0,00 9.973,78 1.097,12 1.639,30 0,00 2.736,42 7.237,36 330,00 0,00 31/08/2012
20 480700 ADRIANA MOREIRA DE AVELLAR CEZILIO OFICIAL DO MP ATIVO BELO HORIZONTE - COMARCA; EXTINTA - DIVISAO DE MATERIAL DE CONSUMO 2.637,71 0,00 0,00 0,00 0,00 0,00 2.637,71 290,15 28,60 0,00 318,75 2.318,96 1.035,00 0,00 31/08/2012
21 326000 ADRIANA PEREIRA CARNEIRO RESENDE OFICIAL DO MP ATIVO TIMÓTEO - COMARCA; TIMOTEO-PJ-01PJ 4.195,87 419,59 0,00 0,00 0,00 0,00 4.615,46 507,70 298,04 0,00 805,74 3.809,72 330,00 0,00 31/08/2012
22 502200 ADRIANA PETRUCCI DAVINA OFICIAL DO MP ATIVO UBERABA - COMARCA; UBERABA-PJ-14PJ 2.812,27 0,00 0,00 0,00 0,00 0,00 2.812,27 309,35 68,64 0,00 377,99 2.434,28 330,00 0,00 31/08/2012
23 201900 ADRIANA REIS PIMENTA OFICIAL DO MP ATIVO TEÓFILO OTONI - COMARCA; TEOFILO OTONI-PJ-03PJ 7.124,13 1.424,83 0,00 0,00 0,00 0,00 8.548,96 1.634,25 2.879,68 0,00 4.513,93 4.035,03 330,00 6.307,88 31/08/2012
24 278700 ADRIANA RODRIGUES PINTO COELHO AMARAL ANALISTA DO MP ATIVO BELO HORIZONTE - COMARCA; EXTINTA-MEIO AMB PATRIM HIST CULTURAL-15PJGAB 7.595,56 759,56 0,00 0,00 2.785,04 0,00 11.140,16 919,06 1.963,76 0,00 2.882,82 8.257,34 330,00 0,00 31/08/2012
25 468000 ADRIANA SANTOS DE SANTANA MOREIRA ANALISTA DO MP ATIVO ARAÇUAÍ - COMARCA; ARACUAI-PJ-01PJ 4.063,61 812,72 0,00 0,00 0,00 0,00 4.876,33 628,33 596,26 0,00 1.224,59 3.651,74 565,00 835,80 31/08/2012
26 194700 ADRIANA TSUKIDE OFICIAL DO MP ATIVO UBERABA - COMARCA; COORD REG BACIAS PARANAIBA BAIXO RIO GRANDE 7.124,13 1.424,83 0,00 0,00 0,00 0,00 8.548,96 1.392,82 2.436,75 0,00 3.829,57 4.719,39 1.358,26 4.550,05 31/08/2012
27 206400 ADRIANE MENDES DE SOUZA ANALISTA DO MP ATIVO BELO HORIZONTE - COMARCA; BH-23PJ CIVEL-FISC AC POL PUB II 9.505,17 4.752,58 0,00 0,00 0,00 0,00 14.257,75 1.568,35 2.642,55 0,00 4.210,90 10.046,85 330,00 0,00 31/08/2012
28 465500 ADRIANO CASSIANO MATOS ANALISTA DO MP ATIVO ARAXÁ - COMARCA; ARAXA-02 PJ/PROCON 4.063,61 0,00 0,00 0,00 0,00 0,00 4.063,61 447,00 261,59 0,00 708,59 3.355,02 330,00 0,00 31/08/2012
29 500500 ADRIANO DE ALMEIDA SILVA OFICIAL DO MP ATIVO UBERABA - COMARCA; UBERABA-PJ-12PJ 2.554,55 0,00 0,00 0,00 0,00 0,00 2.554,55 281,00 47,74 0,00 328,74 2.225,81 2.884,55 63,86 31/08/2012
30 187200 ADRIANO DE FREITAS MARON OFICIAL DO MP ATIVO PONTE NOVA - COMARCA; PONTE NOVA-PJ-03PJ 4.769,54 3.338,67 0,00 0,00 0,00 0,00 8.108,21 1.228,28 1.976,40 0,00 3.204,68 4.903,53 330,00 3.058,00 31/08/2012
31 477900 ADRIANO FERREIRA DE ALMEIDA OFICIAL DO MP ATIVO MONTES CLAROS - COMARCA; MONTES CLAROS-PJ-01PJ 2.637,71 0,00 0,00 0,00 0,00 0,00 2.637,71 290,15 28,60 0,00 318,75 2.318,96 330,00 0,00 31/08/2012
32 416500 ADRIANO PELUSIO MELGACO JUNIOR OFICIAL DO MP ATIVO BELO HORIZONTE - COMARCA; BH-10PJ EXECUÇÃO PENAL-SECRETARIA 3.300,91 198,05 0,00 0,00 0,00 0,00 3.498,96 384,89 135,63 0,00 520,52 2.978,44 330,00 0,00 31/08/2012
33 269101 ADRIANO PEREIRA SILVA ANALISTA DO MP ATIVO UBERABA - COMARCA; UBERABA-PJ-02PJ 4.924,85 0,00 0,00 0,00 0,00 0,00 4.924,85 541,73 448,83 0,00 990,56 3.934,29 565,00 0,00 31/08/2012
34 414200 ADRIANO RODRIGUES FERNANDES ANALISTA DO MP ATIVO CARANDAÍ - COMARCA; CARANDAI-PJ-UNPJ 4.619,20 277,15 0,00 0,00 0,00 0,00 4.896,35 538,60 317,27 0,00 855,87 4.040,48 565,00 0,00 31/08/2012
35 514300 ADRIENE DAMASCENO BRAGA ANALISTA DO MP ATIVO ALFENAS - COMARCA; ALFENAS-PJ-03PJ 4.332,50 0,00 0,00 0,00 0,00 0,00 4.332,50 476,58 315,43 0,00 792,01 3.540,49 330,00 0,00 31/08/2012
36 254600 ADRIENE DOMINGUES COSTA ANALISTA DO MP ATIVO BELO HORIZONTE - COMARCA; PROC. JUSTICA DIR. DIFUSOS E COLETIVOS-SEC 7.124,13 712,41 0,00 0,00 0,00 0,00 7.836,54 862,02 1.161,46 0,00 2.023,48 5.813,06 0,00 0,00 31/08/2012
37 252001 ADRIENE GOMES BARRETO ANALISTA DO MP ATIVO BELO HORIZONTE - COMARCA; BH-19PJ SAUDE-ASS TECNICA 6.069,59 1.820,88 0,00 0,00 0,00 0,00 7.890,47 867,95 1.174,66 0,00 2.042,61 5.847,86 330,00 0,00 31/08/2012
38 118100 AGENOR ALCIR RODRIGUES DA SILVA OFICIAL DO MP ATIVO SÃO JOÃO NEPOMUCENO - COMARCA; SAO JOAO NEPOMUCENO-PJ-01PJ 8.361,90 5.853,33 0,00 0,00 0,00 0,00 14.215,23 1.563,68 2.722,65 0,00 4.286,33 9.928,90 330,00 0,00 31/08/2012
39 302500 AGENOR JOSE DA SILVA JUNIOR ANALISTA DO MP ATIVO JUIZ DE FORA - COMARCA; JUIZ DE FORA-PJ-07PJ 7.595,56 759,56 0,00 0,00 0,00 0,00 8.355,12 919,06 1.197,88 0,00 2.116,94 6.238,18 330,00 0,00 31/08/2012
40 357500 AILSON WAGNER DE ALENCAR SILVA OFICIAL DO MP ATIVO BELO HORIZONTE - COMARCA; DIRETORIA DO COLEGIO E DA CAMARA DE PJ 4.473,58 894,72 0,00 0,00 0,00 0,00 5.368,30 752,50 827,28 0,00 1.579,78 3.788,52 800,00 1.472,64 31/08/2012
41 366400 AILTON ALEXSSANDRO ALVES OFICIAL DO MP ATIVO PARÁ DE MINAS - COMARCA; PARA DE MINAS-PJ-05PJ 3.691,17 738,23 0,00 0,00 0,00 0,00 4.429,40 487,23 334,84 0,00 822,07 3.607,33 330,00 0,00 31/08/2012
42 318900 AILTON DE CASTRO RIBEIRO JUNIOR OFICIAL DO MP ATIVO POUSO ALEGRE - COMARCA; POUSO ALEGRE-PJ-03PJ 3.811,39 381,14 0,00 0,00 0,00 0,00 4.192,53 461,18 178,85 0,00 640,03 3.552,50 330,00 0,00 31/08/2012
43 464400 ALAN MONTEIRO GASPAR ANALISTA DO MP ATIVO SETE LAGOAS - COMARCA; SETE LAGOAS-PJ-03PJ 4.473,58 0,00 0,00 0,00 0,00 0,00 4.473,58 492,09 343,69 0,00 835,78 3.637,80 330,00 0,00 31/08/2012
44 492000 ALANA DE CASTRO FREITAS OFICIAL DO MP ATIVO BOM SUCESSO - COMARCA; BOM SUCESSO-PJ-SECRETARIA 2.637,71 0,00 0,00 0,00 0,00 0,00 2.637,71 306,92 69,85 0,00 376,77 2.260,94 330,00 180,18 31/08/2012
45 306700 ALANA MARCIA DE OLIVEIRA OFICIAL DO MP ATIVO BELO HORIZONTE - COMARCA; DIRETORIA DE ADMINISTRACAO FINANCEIRA 4.769,54 476,95 0,00 0,00 0,00 0,00 5.246,49 682,02 638,99 0,00 1.321,01 3.925,48 480,29 1.017,59 31/08/2012
46 324500 ALANMAR COUTINHO COSTA OFICIAL DO MP ATIVO LEOPOLDINA - COMARCA; LEOPOLDINA-PJ-02PJ 3.811,39 381,14 0,00 0,00 0,00 0,00 4.192,53 461,18 114,71 0,00 575,89 3.616,64 565,00 0,00 31/08/2012
47 508200 ALBERTO DA SILVA VIEIRA ASSESSOR ATIVO BELO HORIZONTE - COMARCA; SEC ESPECIAL DE PLANEJAMENTO ESTRATEGICO 0,00 0,00 7.842,84 0,00 0,00 0,00 7.842,84 430,78 1.281,79 0,00 1.712,57 6.130,27 330,00 0,00 31/08/2012
48 407300 ALBERTO LUIZ SOARES DE OLIVEIRA ANALISTA DO MP ATIVO BELO HORIZONTE - COMARCA; DIVIS DE PROJETOS DE ENGENHARIA E ARQUITETURA 5.085,23 305,11 0,00 0,00 0,00 0,00 5.390,34 592,94 562,76 0,00 1.155,70 4.234,64 330,00 0,00 31/08/2012
49 118200 ALBERTO PEREIRA DA COSTA OFICIAL DO MP ATIVO DORES DO INDAIÁ - COMARCA; DORES DO INDAIA-PJ-UNPJ 7.595,56 5.316,90 0,00 0,00 0,00 0,00 12.912,46 1.420,37 2.358,54 0,00 3.778,91 9.133,55 330,00 0,00 31/08/2012
50 282400 ALCILENE MARISE DE ARAUJO ANALISTA DO MP ATIVO BELO HORIZONTE - COMARCA; BH-23PJ INF-FISC MED SOC FEC 7.595,56 759,56 0,00 0,00 0,00 0,00 8.355,12 919,06 1.197,88 0,00 2.116,94 6.238,18 330,00 0,00 31/08/2012
51 112600 ALCIONE DA MOTA JARDIM OFICIAL DO MP ATIVO BELO HORIZONTE - COMARCA; BELO HORIZONTE- SECRETARIA DAS PROMOTORIAS 6.069,59 2.427,84 0,00 0,00 0,00 0,00 8.497,43 934,72 1.277,96 0,00 2.212,68 6.284,75 565,00 0,00 31/08/2012
52 396400 ALCIONE DE FREITAS E SILVA ANALISTA DO MP ATIVO BELO HORIZONTE - COMARCA; DIRET DE PESSOAL DO MINISTERIO PUBLICO - DPMP 6.069,59 1.213,92 0,00 0,00 0,00 0,00 7.283,51 801,19 1.026,11 0,00 1.827,30 5.456,21 330,00 0,00 31/08/2012
53 161600 ALCIONE NERY SOUZA ASSESSOR ATIVO BELO HORIZONTE - COMARCA; BH-15PJ M AMB PAT HIST CULT 0,00 1.679,47 5.598,22 0,00 0,00 0,00 7.277,69 430,78 1.126,37 0,00 1.557,15 5.720,54 330,00 0,00 31/08/2012
54 376000 ALDA GOMES LANA OFICIAL DO MP ATIVO LAGOA SANTA - COMARCA; LAGOA SANTA-PJ-02PJ 4.332,50 259,95 0,00 0,00 0,00 0,00 4.592,45 690,36 772,84 0,00 1.463,20 3.129,25 330,00 1.823,81 31/08/2012
55 148000 ALDA MARTINS SIMOES OFICIAL DO MP ATIVO BELO HORIZONTE - COMARCA; BH-23PJ CIVEL- FISC ENT AB POL 7.595,56 2.278,67 0,00 0,00 0,00 0,00 9.874,23 1.086,17 1.660,19 0,00 2.746,36 7.127,87 330,00 0,00 31/08/2012
56 318400 ALDO CREPALDI JUNIOR OFICIAL DO MP ATIVO BELO HORIZONTE - COMARCA; EXTINTA - DIVISAO DE MATERIAL DE CONSUMO 4.195,87 419,59 0,00 0,00 0,00 0,00 4.615,46 901,18 1.311,54 0,00 2.212,72 2.402,74 565,00 3.970,53 31/08/2012
57 118400 ALECIO JOSE GUIMARAES DE OLIVEIRA ANALISTA DO MP ATIVO BOM SUCESSO - COMARCA; BOM SUCESSO-PJ-UNPJ 11.931,59 9.545,28 0,00 0,00 0,00 0,00 21.476,87 2.362,46 4.364,17 0,00 6.726,63 14.750,24 330,00 0,00 31/08/2012
58 197900 ALESSA DE SOUSA E SILVA OFICIAL DO MP ATIVO OLIVEIRA - COMARCA; OLIVEIRA-PJ-02PJ 7.356,10 1.471,22 0,00 0,00 0,00 0,00 8.827,32 971,01 1.358,70 0,00 2.329,71 6.497,61 601,00 0,00 31/08/2012
59 428500 ALESSANDRA ALVES DINIZ OFICIAL DO MP ATIVO BELO HORIZONTE - COMARCA; BH-17PJ PATRIMONIO PUBLICO 2.998,37 899,51 0,00 0,00 0,00 0,00 3.897,88 428,77 228,40 0,00 657,17 3.240,71 330,00 0,00 31/08/2012
60 286801 ALESSANDRA BOTELHO JUNQUEIRA DE MENEZES ANALISTA DO MP ATIVO PASSOS - COMARCA; PASSOS-PJ-05PJ 5.598,22 1.119,64 0,00 0,00 0,00 0,00 6.717,86 738,96 842,41 0,00 1.581,37 5.136,49 330,00 0,00 31/08/2012
61 307000 ALESSANDRA CRISTINA SANTOS MENDES ANALISTA DO MP ATIVO OURO PRETO - COMARCA; OURO PRETO-PJ-02PJ 5.878,19 587,82 0,00 0,00 0,00 0,00 6.466,01 758,54 931,22 0,00 1.689,76 4.776,25 565,00 429,80 31/08/2012
62 264400 ALESSANDRA DE SOUZA SANTOS COORDENADOR/ANALISTA ATIVO BELO HORIZONTE - COMARCA; DIRETORIA DE PRODUCAO EDITORIAL 8.361,90 4.349,66 0,00 0,00 4.237,19 0,00 16.948,75 1.195,75 3.575,55 0,00 4.771,30 12.177,45 330,00 0,00 31/08/2012
63 441500 ALESSANDRA DRUMMOND DE FIGUEIREDO ROSSI ANALISTA DO MP ATIVO BELO HORIZONTE - COMARCA; DIVIS DE PROJETOS DE ENGENHARIA E ARQUITETURA 4.473,58 0,00 0,00 0,00 0,00 0,00 4.473,58 492,09 343,69 0,00 835,78 3.637,80 330,00 0,00 31/08/2012
64 524000 ALESSANDRA LUCIOLI DE BARROS GUERRA ANALISTA DO MP ATIVO BELO HORIZONTE - COMARCA; BH-12PJ JUIZO CRIMINAL-GAB 094PJ 3.935,44 0,00 0,00 0,00 0,00 0,00 3.935,44 432,90 235,92 0,00 668,82 3.266,62 330,00 0,00 31/08/2012
65 479900 ALESSANDRA MARA ANDRADE DE FARIA OFICIAL DO MP ATIVO UBERABA - COMARCA; UBERABA-PJ-05PJ 2.903,86 0,00 0,00 0,00 0,00 0,00 2.903,86 319,42 80,87 0,00 400,29 2.503,57 800,00 0,00 31/08/2012
66 226700 ALESSANDRA MARA VASCONCELOS REZENDE OFICIAL DO MP ATIVO CONSELHEIRO LAFAIETE - COMARCA; CONSELHEIRO LAFAIETE-PJ-07PJ 4.195,87 839,17 0,00 0,00 0,00 0,00 5.035,04 553,85 475,80 0,00 1.029,65 4.005,39 330,00 0,00 31/08/2012
67 112100 ALESSANDRA MARCIA FERREIRA OFICIAL DO MP ATIVO BELO HORIZONTE - COMARCA; BELO HORIZONTE- SECRETARIA DAS PROMOTORIAS 6.471,28 2.588,51 0,00 0,00 0,00 0,00 9.059,79 996,58 1.415,60 0,00 2.412,18 6.647,61 330,00 0,00 31/08/2012
68 196500 ALESSANDRA MARIA RIBEIRO LUCIANO OFICIAL DO MP ATIVO RIO PARANAÍBA - COMARCA; RIO PARANAIBA-PJ-UNPJ 7.124,13 2.137,24 0,00 0,00 0,00 0,00 9.261,37 1.018,75 1.510,19 0,00 2.528,94 6.732,43 565,00 0,00 31/08/2012
69 91400 ALESSANDRA MENDES VASCONCELOS DE SOUZA OFICIAL DO MP ATIVO BELO HORIZONTE - COMARCA; BH-23PJ INF-FISC MED SOC AB 9.505,17 4.752,58 0,00 0,00 0,00 0,00 14.257,75 1.568,35 2.642,55 0,00 4.210,90 10.046,85 330,00 0,00 31/08/2012
70 384900 ALESSANDRA RODRIGUES ANALISTA DO MP ATIVO VISCONDE DO RIO BRANCO - COMARCA; VISCONDE DO RIO BRANCO-PJ-03PJ 6.069,59 364,18 0,00 0,00 0,00 0,00 6.433,77 707,71 727,63 0,00 1.435,34 4.998,43 330,00 0,00 31/08/2012
71 390000 ALESSANDRA SPADANO MASSARA VASCONCELOS OFICIAL DO MP ATIVO BETIM - COMARCA; BETIM-PJ-SECRETARIA 3.935,44 236,13 0,00 0,00 0,00 0,00 4.171,57 458,87 283,21 0,00 742,08 3.429,49 330,00 0,00 31/08/2012
72 426500 ALESSANDRO CAMPOS DE PAIVA ASSESSOR/ANALISTA ATIVO BELO HORIZONTE - COMARCA; DIRETORIA DE PUBLICIDADE INSTITUCIONAL 0,00 427,45 7.124,13 0,00 0,00 0,00 7.551,58 749,82 1.383,33 0,00 2.133,15 5.418,43 330,00 979,55 31/08/2012
73 420600 ALESSANDRO SILVA OFICIAL DO MP ATIVO BELO HORIZONTE - COMARCA; COORD DE CONT. DA CONSTITUCIONALIDADE-SEC 2.998,37 599,67 0,00 0,00 0,00 0,00 3.598,04 531,48 267,28 0,00 798,76 2.799,28 330,00 1.233,60 31/08/2012
74 375300 ALETHEIA PATRICIA ASSIS MORAIS MOREIRA OFICIAL DO MP ATIVO ITABIRA - COMARCA; ITABIRA-PJ-02PJ 4.332,50 259,95 0,00 0,00 0,00 0,00 4.592,45 690,36 856,67 0,00 1.547,03 3.045,42 498,35 1.976,73 31/08/2012
75 382300 ALEX CARVALHO LIMA ANALISTA DO MP ATIVO UBERLÂNDIA - COMARCA; UBERLANDIA-PJ-14PJ 5.085,23 305,11 0,00 0,00 0,00 0,00 5.390,34 592,94 391,71 0,00 984,65 4.405,69 330,00 0,00 31/08/2012
76 195201 ALEX DE CASTRO PEREIRA ANALISTA DO MP ATIVO UBERABA - COMARCA; UBERABA-PJ-09PJ 7.595,56 1.519,11 0,00 0,00 0,00 0,00 9.114,67 1.002,61 1.474,29 0,00 2.476,90 6.637,77 330,00 0,00 31/08/2012
77 358900 ALEX DE PAULA LANZA ASSESSOR ATIVO BELO HORIZONTE - COMARCA; SUPERINTENDENCIA DE COMUNICACAO INTEGRADA 0,00 0,00 5.598,22 0,00 0,00 0,00 5.598,22 430,78 664,52 0,00 1.095,30 4.502,92 330,00 0,00 31/08/2012
78 178400 ALEX RODRIGO SALDANHA GUIMARAES OFICIAL DO MP ATIVO BELO HORIZONTE - COMARCA; DIRETORIA DE SISTEMAS DE INFORMACAO 4.195,87 839,17 0,00 0,00 0,00 0,00 5.035,04 553,85 475,80 0,00 1.029,65 4.005,39 330,00 0,00 31/08/2012
79 289200 ALEX SANDRO PEREIRA DE MATOS OFICIAL DO MP ATIVO BELO HORIZONTE - COMARCA; EXTINTA - SECRETARIA ADMINISTRATIVA 4.195,87 419,59 0,00 0,00 0,00 0,00 4.615,46 507,70 373,10 0,00 880,80 3.734,66 330,00 0,00 31/08/2012
80 413500 ALEX VILELA OLIVEIRA ANALISTA DO MP ATIVO GOVERNADOR VALADARES - COMARCA; COORD REG PJ DEF EDU DIR CRIANCA ADOL RIODOCE 5.598,22 335,89 0,00 0,00 0,00 0,00 5.934,11 680,73 758,10 0,00 1.438,83 4.495,28 330,00 254,35 31/08/2012
81 264300 ALEXANDRA FATIMA SARAIVA SOARES ANALISTA DO MP ATIVO BELO HORIZONTE - COMARCA; CENTRAL DE APOIO TECN-SETOR DE MEIO AMBIENTE 8.361,90 836,19 0,00 0,00 0,00 0,00 9.198,09 1.011,79 1.494,70 0,00 2.506,49 6.691,60 330,00 0,00 31/08/2012
82 488000 ALEXANDRA LARA PAIS DE CARVALHO ANALISTA DO MP ATIVO GUANHÃES - COMARCA; GUANHAES-PJ-SECRETARIA 4.473,58 0,00 0,00 0,00 0,00 0,00 4.473,58 492,09 269,63 0,00 761,72 3.711,86 565,00 0,00 31/08/2012
83 256300 ALEXANDRA SANTOS GOMES OFICIAL DO MP ATIVO BELO HORIZONTE - COMARCA; EXTINTA - DIVISÃO DE COMPRAS 4.619,20 461,92 0,00 0,00 0,00 0,00 5.081,12 736,17 881,45 0,00 1.617,62 3.463,50 330,00 1.611,35 31/08/2012
84 403300 ALEXANDRE AUGUSTO RODRIGUES ANALISTA DO MP ATIVO ÁGUAS FORMOSAS - COMARCA; AGUAS FORMOSAS-PJ-UNPJ 5.085,23 305,11 0,00 0,00 0,00 0,00 5.390,34 592,94 562,76 0,00 1.155,70 4.234,64 330,00 0,00 31/08/2012
85 311700 ALEXANDRE BARCELOS RESENDE OFICIAL DO MP ATIVO BELO HORIZONTE - COMARCA; GAECO - SECRETARIA 2.998,37 179,90 0,00 0,00 0,00 0,00 3.178,27 349,61 117,50 0,00 467,11 2.711,16 330,00 0,00 31/08/2012
86 285600 ALEXANDRE CAMPOS DE OLIVEIRA OFICIAL DO MP ATIVO UBERABA - COMARCA; COORD REG BACIAS PARANAIBA BAIXO RIO GRANDE 5.085,23 508,52 0,00 0,00 0,00 0,00 5.593,75 615,31 522,03 0,00 1.137,34 4.456,41 565,00 0,00 31/08/2012
87 509200 ALEXANDRE CAPUANO DE REZENDE ANALISTA DO MP ATIVO BELO HORIZONTE - COMARCA; PROC. JUSTICA DE HABEAS CORPUS 4.769,54 0,00 0,00 0,00 1.589,85 0,00 6.359,39 524,65 848,02 0,00 1.372,67 4.986,72 330,00 0,00 31/08/2012
88 229400 ALEXANDRE CARLOS BOTREL DIRETOR/OFICIAL ATIVO BELO HORIZONTE - COMARCA; SUPERINTENDENCIA DOS ORGAOS COLEGIADOS 0,00 2.386,32 11.931,59 0,00 0,00 0,00 14.317,91 609,73 3.013,22 0,00 3.622,95 10.694,96 330,00 0,00 31/08/2012
89 411900 ALEXANDRE CARVALHO SANTOS RIBEIRO ANALISTA DO MP ATIVO PERDÕES - COMARCA; PERDOES-PJ-UNPJ 5.598,22 335,89 0,00 0,00 0,00 0,00 5.934,11 652,75 695,84 0,00 1.348,59 4.585,52 3.545,68 294,77 31/08/2012
90 201200 ALEXANDRE DE ALENCAR CORDEIRO OFICIAL DO MP ATIVO ÁGUAS FORMOSAS - COMARCA; AGUAS FORMOSAS-PJ-UNPJ 4.195,87 1.258,76 0,00 0,00 0,00 0,00 5.454,63 600,01 487,98 0,00 1.087,99 4.366,64 330,00 0,00 31/08/2012
91 288200 ALEXANDRE DE VASCONCELOS COSTA KER ANALISTA DO MP ATIVO BELO HORIZONTE - COMARCA; BH-03PJ EMPRESARIAL-SECRETARIA 7.595,56 759,56 0,00 0,00 0,00 0,00 8.355,12 919,06 1.243,13 0,00 2.162,19 6.192,93 330,00 0,00 31/08/2012
92 445000 ALEXANDRE DIOGENES OLIVEIRA ANALISTA DO MP ATIVO SALINAS - COMARCA; SALINAS-PJ-02PJ 5.421,69 0,00 0,00 0,00 0,00 0,00 5.421,69 596,39 570,43 0,00 1.166,82 4.254,87 330,00 0,00 31/08/2012
93 463400 ALEXANDRE LEAL WINKELSTROTER ANALISTA DO MP ATIVO TEÓFILO OTONI - COMARCA; TEOFILO OTONI-PJ-04PJ 4.063,61 0,00 0,00 0,00 0,00 0,00 4.063,61 447,00 261,59 0,00 708,59 3.355,02 330,00 0,00 31/08/2012
94 356900 ALEXANDRE MOISES MENDONCA E ARAUJO OFICIAL DO MP ATIVO UBERABA - COMARCA; UBERABA-PJ-13PJ 3.691,17 369,12 0,00 0,00 0,00 0,00 4.060,29 706,95 562,60 0,00 1.269,55 2.790,74 602,68 2.477,89 31/08/2012
95 469900 ALEXANDRE PEREIRA GUEDES ANALISTA DO MP ATIVO CATAGUASES - COMARCA; CATAGUASES-PJ-03PJ 4.924,85 0,00 0,00 0,00 0,00 0,00 4.924,85 541,73 448,83 0,00 990,56 3.934,29 330,00 0,00 31/08/2012
96 208700 ALEXANDRE RESENDE FRAGA ANALISTA DO MP ATIVO BELO HORIZONTE - COMARCA; BH-19PJ SAUDE 9.814,62 1.962,92 0,00 0,00 0,00 0,00 11.777,54 1.295,53 2.080,77 0,00 3.376,30 8.401,24 800,00 0,00 31/08/2012
97 216401 ALEXANDRE RIBEIRO DE LIMA MAIORINO ANALISTA DO MP ATIVO UBERABA - COMARCA; UBERABA-PJ-03PJ 7.595,56 1.519,11 0,00 0,00 0,00 0,00 9.114,67 1.002,61 1.429,03 0,00 2.431,64 6.683,03 565,00 0,00 31/08/2012
98 475100 ALEXANDRE TEOTONIO COSTA ANALISTA DO MP ATIVO ARAGUARI - COMARCA; ARAGUARI-PJ-01PJ 4.473,58 0,00 0,00 0,00 0,00 0,00 4.473,58 492,09 343,69 0,00 835,78 3.637,80 800,00 0,00 31/08/2012
99 339000 ALEXANDRE VITOR CARDOSO OFICIAL DO MP ATIVO BELO HORIZONTE - COMARCA; BH-17PJ PATRIMONIO PUBLICO 3.691,17 369,12 0,00 0,00 0,00 0,00 4.060,29 446,63 161,20 0,00 607,83 3.452,46 565,00 0,00 31/08/2012
100 513300 ALFSON MIRANDA BRAGA ANALISTA DO MP ATIVO BELO HORIZONTE - COMARCA; BH-12PJ JUIZO CRIMINAL-GAB 092PJ 4.332,50 0,00 0,00 0,00 1.444,17 0,00 5.776,67 476,58 700,99 0,00 1.177,57 4.599,10 330,00 0,00 31/08/2012
101 471000 ALICE TITONELI MOREIRA ANALISTA DO MP ATIVO MIRADOURO - COMARCA; MIRADOURO-PJ-UNPJ 4.924,85 0,00 0,00 0,00 0,00 0,00 4.924,85 643,88 630,85 0,00 1.274,73 3.650,12 565,00 928,62 31/08/2012
102 373000 ALINE BOTELHO RESENDE OFICIAL DO MP ATIVO PASSA QUATRO - COMARCA; PASSA QUATRO-PJ-SECRETARIA 3.574,80 214,49 0,00 0,00 0,00 0,00 3.789,29 416,82 206,66 0,00 623,48 3.165,81 330,00 0,00 31/08/2012
103 407700 ALINE CRISTINA RODRIGUES PEREIRA ANALISTA DO MP ATIVO BELO HORIZONTE - COMARCA; DIVIS DE PROJETOS DE ENGENHARIA E ARQUITETURA 4.619,20 277,15 0,00 0,00 0,00 0,00 4.896,35 538,60 441,85 0,00 980,45 3.915,90 565,00 0,00 31/08/2012
104 193100 ALINE CRISTINA SENA OLIVEIRA OFICIAL DO MP ATIVO UBERLÂNDIA - COMARCA; UBERLANDIA-PJ-03PJ 6.069,59 1.213,92 0,00 0,00 0,00 0,00 7.283,51 917,93 1.240,61 0,00 2.158,54 5.124,97 330,00 1.061,31 31/08/2012
105 505500 ALINE DA CUNHA MARREIROS OLIVEIRA ANALISTA DO MP ATIVO CARANGOLA - COMARCA; CARANGOLA-PJ-SECRETARIA 4.769,54 0,00 0,00 0,00 0,00 0,00 4.769,54 524,65 410,81 0,00 935,46 3.834,08 565,00 0,00 31/08/2012
106 433500 ALINE DE MELO QUEIROZ OFICIAL DO MP ATIVO BELO HORIZONTE - COMARCA; PROCON-MG-SECRETARIA DE FISCALIZACOES 3.574,80 214,49 0,00 0,00 0,00 0,00 3.789,29 429,12 229,03 0,00 658,15 3.131,14 330,00 111,76 31/08/2012
107 474800 ALINE DINIZ FERREIRA ANALISTA DO MP ATIVO OURO PRETO - COMARCA; OURO PRETO-PJ-02PJ 4.924,85 0,00 0,00 0,00 0,00 0,00 4.924,85 541,73 448,83 0,00 990,56 3.934,29 330,00 0,00 31/08/2012
108 330000 ALINE DIORIO MAYRINK OFICIAL DO MP ATIVO SETE LAGOAS - COMARCA; SETE LAGOAS-PJ-SECRETARIA 4.332,50 433,25 0,00 0,00 0,00 0,00 4.765,75 524,23 409,89 0,00 934,12 3.831,63 330,00 0,00 31/08/2012
109 499000 ALINE FERREIRA LOPES NEIVA ANALISTA DO MP ATIVO TEÓFILO OTONI - COMARCA; COORD. DE DEF. DO PAT. PUBLICO-JEQUIT./MUCURI 4.769,54 0,00 0,00 0,00 0,00 0,00 4.769,54 524,65 410,81 0,00 935,46 3.834,08 2.237,82 174,88 31/08/2012
110 405300 ALINE LAIA CARDOZO ANALISTA DO MP ATIVO BELO HORIZONTE - COMARCA; EXTINTA - DIRETORIA DE CONTRATOS E CONVÊNIOS 5.085,23 305,11 0,00 0,00 0,00 0,00 5.390,34 592,94 562,76 0,00 1.155,70 4.234,64 330,00 0,00 31/08/2012
111 278200 ALINE MARCIA FARIA BARBOSA OFICIAL DO MP ATIVO BARBACENA - COMARCA; BARBACENA-PJ-SECRETARIA 4.195,87 419,59 0,00 0,00 0,00 0,00 4.615,46 507,70 261,02 0,00 768,72 3.846,74 800,00 0,00 31/08/2012
112 496600 ALINE MENDES DE GODOY ANALISTA DO MP ATIVO BELO HORIZONTE - COMARCA; ASSESS TECNICO-JUR JUNTO AS PROC. DE JUST 4.769,54 0,00 0,00 0,00 0,00 0,00 4.769,54 625,61 675,50 0,00 1.301,11 3.468,43 330,00 1.063,46 31/08/2012
113 389000 ALINE NERI NOBRE ANALISTA DO MP ATIVO MONTES CLAROS - COMARCA; COORD REG PJ DEF EDUC DIR CRIANCA ADOL NORTE 6.069,59 1.213,92 0,00 0,00 0,00 0,00 7.283,51 938,53 1.331,70 0,00 2.270,23 5.013,28 330,00 1.248,60 31/08/2012
114 294600 ALINE PATRICIA SILVA VIEIRA OFICIAL DO MP ATIVO UBERLÂNDIA - COMARCA; UBERLANDIA-PJ-03PJ 5.085,23 508,52 0,00 0,00 0,00 0,00 5.593,75 615,31 567,29 0,00 1.182,60 4.411,15 565,00 0,00 31/08/2012
115 434200 ALINE RENA PEREIRA DE ALMEIDA ANALISTA DO MP ATIVO BELO HORIZONTE - COMARCA; BH-07PJ 01 TRIBUNAL JURI-SECRETARIA 5.085,23 305,11 0,00 0,00 0,00 0,00 5.390,34 699,69 664,51 0,00 1.364,20 4.026,14 800,00 970,46 31/08/2012
116 420000 ALINE RODRIGUES CAMOROPIN ANALISTA DO MP ATIVO SABARÁ - COMARCA; SABARA-PJ-02PJ 5.598,22 335,89 0,00 0,00 0,00 0,00 5.934,11 652,75 695,84 0,00 1.348,59 4.585,52 330,00 0,00 31/08/2012
117 408300 ALINE SILVA ARAUJO DE PAULA ANALISTA DO MP ATIVO SÃO SEBASTIÃO DO PARAÍSO - COMARCA; SAO SEBASTIAO DO PARAISO-PJ-02PJ 5.598,22 335,89 0,00 0,00 0,00 0,00 5.934,11 652,75 695,84 0,00 1.348,59 4.585,52 330,00 0,00 31/08/2012
118 425400 ALINE TRINDADE DE FREITAS CAMPOS OFICIAL DO MP ATIVO BETIM - COMARCA; BETIM-PJ-11PJ 3.574,80 214,49 0,00 0,00 0,00 0,00 3.789,29 416,82 206,66 0,00 623,48 3.165,81 330,00 0,00 31/08/2012
119 517200 ALISSOM PEREIRA DA SILVA ANALISTA DO MP ATIVO BORDA DA MATA - COMARCA; BORDA DA MATA-PJ-UNPJ 4.332,50 0,00 0,00 0,00 0,00 0,00 4.332,50 476,58 315,43 0,00 792,01 3.540,49 330,00 0,00 31/08/2012
120 442400 ALISSON LABRE ANALISTA DO MP ATIVO VARGINHA - COMARCA; VARGINHA-PJ-02PJ 5.421,69 0,00 0,00 0,00 0,00 0,00 5.421,69 596,39 570,43 0,00 1.166,82 4.254,87 330,00 0,00 31/08/2012
121 349000 ALLEC RODRIGUES VIEIRA ASSESSOR/OFICIAL ATIVO BELO HORIZONTE - COMARCA; PROCURADOR-GERAL DE JUSTICA- GABINETE 0,00 784,28 7.842,84 0,00 0,00 0,00 8.627,12 948,98 1.354,96 0,00 2.303,94 6.323,18 330,00 0,00 31/08/2012
122 297300 ALLYSON SALIBA MONTEIRO LAIZO ANALISTA DO MP ATIVO CONSELHEIRO LAFAIETE - COMARCA; CONSELHEIRO LAFAIETE-PJ-03PJ 7.356,10 735,61 0,00 0,00 0,00 0,00 8.091,71 890,09 1.223,92 0,00 2.114,01 5.977,70 330,00 0,00 31/08/2012
123 303700 ALMIR LOPES LOURES ANALISTA DO MP ATIVO BELO HORIZONTE - COMARCA; CENTRAL DE APOIO TECN-SETOR DE MEIO AMBIENTE 8.361,90 836,19 0,00 0,00 0,00 0,00 9.198,09 1.011,79 1.404,19 0,00 2.415,98 6.782,11 330,00 0,00 31/08/2012
124 515900 ALTAIR NEVES JUNIOR OFICIAL DO MP ATIVO BELO HORIZONTE - COMARCA; BH-03PJ EMPRESARIAL-SECRETARIA 2.812,27 0,00 0,00 0,00 0,00 0,00 2.812,27 309,35 68,64 0,00 377,99 2.434,28 330,00 0,00 31/08/2012
125 233300 ALVARINDO BATISTA ANALISTA DO MP ATIVO BELO HORIZONTE - COMARCA; SUPERINTENDENCIA DE COMUNICACAO INTEGRADA 9.505,17 1.901,03 0,00 0,00 0,00 0,00 11.406,20 1.254,68 1.989,88 0,00 3.244,56 8.161,64 330,00 0,00 31/08/2012
126 274100 ALYSSON CARVALHO VIDAL DE LACERDA OFICIAL DO MP ATIVO MANHUAÇU - COMARCA; MANHUACU-PJ-01PJ 5.250,75 525,08 0,00 0,00 0,00 0,00 5.775,83 635,34 657,10 0,00 1.292,44 4.483,39 330,00 0,00 31/08/2012
127 521700 AMANDA CRISTINA AGUIAR MACHADO OFICIAL DO MP ATIVO BARBACENA - COMARCA; BARBACENA-PJ-03PJ 2.554,55 0,00 0,00 0,00 0,00 0,00 2.554,55 281,00 47,74 0,00 328,74 2.225,81 330,00 0,00 31/08/2012
128 520800 AMANDA DE SOUZA MACHADO ANALISTA DO MP ATIVO BAEPENDI - COMARCA; BAEPENDI-PJ-UNPJ 4.332,50 0,00 0,00 0,00 0,00 0,00 4.332,50 476,58 315,43 0,00 792,01 3.540,49 800,00 0,00 31/08/2012
129 501800 AMANDA LIMA TEIXEIRA COSTA OFICIAL DO MP ATIVO CATAGUASES - COMARCA; CATAGUASES-PJ-04PJ 2.812,27 0,00 0,00 0,00 0,00 0,00 2.812,27 309,35 68,64 0,00 377,99 2.434,28 565,00 0,00 31/08/2012
130 434400 AMARILIS ASSIS SIMAO CURCIO ANALISTA DO MP ATIVO BELO HORIZONTE - COMARCA; ASSESS TECNICO-JUR JUNTO AS PROC. DE JUST 5.085,23 305,11 0,00 0,00 0,00 0,00 5.390,34 706,25 814,89 0,00 1.521,14 3.869,20 330,00 1.030,15 31/08/2012
131 273700 AMBROLINA CARNEIRO DE VASCONCELOS OFICIAL DO MP ATIVO FRUTAL - COMARCA; FRUTAL-PJ-03PJ 5.085,23 2.034,09 0,00 0,00 0,00 0,00 7.119,32 910,66 1.224,43 0,00 2.135,09 4.984,23 330,00 1.159,38 31/08/2012
132 58000 AMELIA GUARIZE DE CASTRO OFICIAL DO MP ATIVO JUIZ DE FORA - COMARCA; JUIZ DE FORA-PJ-SECRETARIA 4.619,20 4.157,28 0,00 0,00 0,00 965,41 9.741,89 965,41 1.657,00 0,00 2.622,41 7.119,48 330,00 0,00 31/08/2012
133 324301 AMERICA SUELI FERREIRA DA SILVA ANALISTA DO MP ATIVO MONTE CARMELO - COMARCA; MONTE CARMELO-PJ-02PJ 4.924,85 0,00 0,00 0,00 0,00 0,00 4.924,85 541,73 448,83 0,00 990,56 3.934,29 330,00 0,00 31/08/2012
134 273300 AMUJACY DE BRITO ASSIZ OFICIAL DO MP ATIVO BELO HORIZONTE - COMARCA; BH-12PJ JUIZO CRIMINAL-SECRETARIA 4.332,50 433,25 0,00 0,00 0,00 0,00 4.765,75 590,36 525,54 0,00 1.115,90 3.649,85 715,29 662,53 31/08/2012
135 482200 ANA ALICE LOPES ACHTSCHIN ANALISTA DO MP ATIVO BELO HORIZONTE - COMARCA; PROC JUST RECURSOS ESP E EXTRAORD CRIMINAIS 4.473,58 0,00 0,00 0,00 0,00 0,00 4.473,58 492,09 343,69 0,00 835,78 3.637,80 330,00 0,00 31/08/2012
136 490400 ANA AMELIA PAULINO GARCIA OFICIAL DO MP ATIVO GRAO MOGOL - COMARCA; GRAO MOGOL-PJ-UNPJ 3.196,81 0,00 0,00 0,00 0,00 0,00 3.196,81 373,83 151,93 0,00 525,76 2.671,05 330,00 235,25 31/08/2012
137 279100 ANA CAROLINA ARAUJO PEREIRA ANALISTA DO MP ATIVO BELO HORIZONTE - COMARCA; DIVIS DE PROJETOS DE ENGENHARIA E ARQUITETURA 7.356,10 735,61 0,00 0,00 0,00 0,00 8.091,71 890,09 1.223,92 0,00 2.114,01 5.977,70 330,00 0,00 31/08/2012
138 359400 ANA CAROLINA DE ABREU FARIA ASSESSOR ATIVO BELO HORIZONTE - COMARCA; SUPERINTENDÊNCIA DE ENGENHARIA E ARQUITETURA 0,00 0,00 3.519,31 0,00 0,00 0,00 3.519,31 423,42 157,58 0,00 581,00 2.938,31 330,00 0,00 31/08/2012
139 408500 ANA CAROLINA DE CASTRO CARVALHO ANALISTA DO MP ATIVO BARBACENA - COMARCA; BARBACENA-PJ-SECRETARIA 5.598,22 335,89 0,00 0,00 0,00 0,00 5.934,11 652,75 695,84 0,00 1.348,59 4.585,52 330,00 0,00 31/08/2012
140 420200 ANA CAROLINA FERNANDES SILVA ANALISTA DO MP ATIVO BELO HORIZONTE - COMARCA; PROC. JUSTICA DE HABEAS CORPUS 5.085,23 305,11 0,00 0,00 0,00 0,00 5.390,34 592,94 562,76 0,00 1.155,70 4.234,64 330,00 0,00 31/08/2012
141 522100 ANA CAROLINA FERNANDINO VIDAL PEREIRA SANTOS OFICIAL DO MP ATIVO BELO HORIZONTE - COMARCA; EXTINTA - SECRETARIA ADMINISTRATIVA 2.554,55 0,00 0,00 0,00 0,00 0,00 2.554,55 281,00 47,74 0,00 328,74 2.225,81 565,00 0,00 31/08/2012
142 502400 ANA CAROLINA GONCALVES FERNANDES ANALISTA DO MP ATIVO ABRE CAMPO - COMARCA; ABRE CAMPO-PJ-01PJ 4.769,54 0,00 0,00 0,00 1.589,85 0,00 6.359,39 556,13 918,06 0,00 1.474,19 4.885,20 330,00 286,16 31/08/2012
143 431900 ANA CAROLINA MOTTA GUATIMOSIM ANALISTA DO MP ATIVO BELO HORIZONTE - COMARCA; PROC. JUSTICA DE HABEAS CORPUS 5.598,22 335,89 0,00 0,00 0,00 0,00 5.934,11 652,75 695,84 0,00 1.348,59 4.585,52 330,00 0,00 31/08/2012
144 322500 ANA CAROLINA TOSTES DIB OFICIAL DO MP ATIVO BELO HORIZONTE - COMARCA; GAECO - SECRETARIA 3.811,39 381,14 0,00 0,00 0,00 0,00 4.192,53 461,18 287,40 0,00 748,58 3.443,95 330,00 0,00 31/08/2012
145 490600 ANA CAROLINA XAVIER GODOY ANALISTA DO MP ATIVO BELO HORIZONTE - COMARCA; BH-18PJ VIOLENCIA DOMESTICA 4.924,85 0,00 0,00 0,00 0,00 0,00 4.924,85 575,90 524,85 0,00 1.100,75 3.824,10 392,12 316,31 31/08/2012
146 324800 ANA CECILIA MENDES DA SILVA OFICIAL DO MP ATIVO OURO FINO - COMARCA; OURO FINO-PJ-01PJ 4.619,20 923,84 0,00 0,00 0,00 0,00 5.543,04 609,73 600,13 0,00 1.209,86 4.333,18 565,00 0,00 31/08/2012
147 219400 ANA CELIA DE ALMEIDA SOARES COORDENADOR/OFICIAL ATIVO BELO HORIZONTE - COMARCA; DIVISAO DE DOCUMENTACAO JURIDICA 0,00 1.619,64 8.098,20 0,00 0,00 0,00 9.717,84 738,96 1.712,66 0,00 2.451,62 7.266,22 330,00 0,00 31/08/2012
148 441300 ANA CLAUDIA ALKIMIM MIRANDA BOMTEMPO ANALISTA DO MP ATIVO MONTES CLAROS - COMARCA; MONTES CLAROS-PJ-11PJ 5.421,69 0,00 0,00 0,00 0,00 0,00 5.421,69 596,39 525,17 0,00 1.121,56 4.300,13 565,00 0,00 31/08/2012
149 461200 ANA CRISTINA ALVES ANALISTA DO MP ATIVO SANTA LUZIA - COMARCA; SANTA LUZIA-PJ-03PJ 4.473,58 0,00 0,00 0,00 0,00 0,00 4.473,58 492,09 343,69 0,00 835,78 3.637,80 565,00 0,00 31/08/2012
150 379300 ANA CRISTINA ALVES FLAVIO ANALISTA DO MP ATIVO SÃO GOTARDO - COMARCA; SAO GOTARDO-PJ-01PJ 6.069,59 364,18 0,00 0,00 0,00 0,00 6.433,77 707,71 772,88 0,00 1.480,59 4.953,18 330,00 0,00 31/08/2012
151 514100 ANA CRISTINA ARAUJO ASSUNCAO ANALISTA DO MP ATIVO BELO HORIZONTE - COMARCA; BH-14PJ DEFESA CONSUMIDOR-SECRETARIA 4.332,50 0,00 0,00 0,00 0,00 0,00 4.332,50 476,58 315,43 0,00 792,01 3.540,49 330,00 0,00 31/08/2012
152 113400 ANA CRISTINA BRAGA ALBUQUERQUE ASSESSOR/ANALISTA ATIVO BELO HORIZONTE - COMARCA; ASSESS ESP ADM E FINANCEIRA DO PGJ ADJ ADM 20.616,95 11.969,71 0,00 0,00 0,00 0,00 32.586,66 2.652,94 5.146,26 8.469,04 16.268,24 16.318,42 1.937,86 147,39 31/08/2012
153 233800 ANA CRISTINA BRAGA SOARES RIOS OFICIAL DO MP ATIVO CONTAGEM - COMARCA; CONTAGEM-PJ-SECRETARIA 4.769,54 953,91 0,00 0,00 0,00 0,00 5.723,45 629,58 644,28 0,00 1.273,86 4.449,59 330,00 0,00 31/08/2012
154 186400 ANA CRISTINA DE AZEVEDO LOPES OFICIAL DO MP ATIVO UBÁ - COMARCA; UBA-PJ-01PJ 7.124,13 1.424,83 0,00 0,00 0,00 0,00 8.548,96 1.392,82 2.251,99 0,00 3.644,81 4.904,15 330,00 4.113,04 31/08/2012
155 465100 ANA CRISTINA DE OLIVEIRA GUIMARAES ANALISTA DO MP ATIVO BRASÓPOLIS - COMARCA; BRASOPOLIS-PJ-UNPJ 4.473,58 0,00 0,00 0,00 0,00 0,00 4.473,58 492,09 343,69 0,00 835,78 3.637,80 330,00 0,00 31/08/2012
156 500600 ANA CRISTINA LATADO SUDARIO ANALISTA DO MP ATIVO UBERLÂNDIA - COMARCA; UBERLANDIA-PJ-07PJ 4.332,50 0,00 0,00 0,00 0,00 0,00 4.332,50 476,58 315,43 0,00 792,01 3.540,49 330,00 0,00 31/08/2012
157 331400 ANA CRISTINA RIBEIRO ALVES OFICIAL DO MP ATIVO BAMBUÍ - COMARCA; BAMBUI-PJ-SECRETARIA 4.473,58 447,36 0,00 0,00 0,00 0,00 4.920,94 541,30 447,87 0,00 989,17 3.931,77 330,00 0,00 31/08/2012
158 249300 ANA ELOINA MARTINS DO PINHO OFICIAL DO MP ATIVO BETIM - COMARCA; BETIM-PJ-06PJ 5.085,23 1.525,57 0,00 0,00 0,00 0,00 6.610,80 727,19 816,21 0,00 1.543,40 5.067,40 330,00 0,00 31/08/2012
159 257400 ANA FLAVIA CAMBRAIA ANALISTA DO MP ATIVO BELO HORIZONTE - COMARCA; BH-19PJ SAUDE-ASS TECNICA 8.361,90 836,19 0,00 0,00 0,00 0,00 9.198,09 1.011,79 1.449,45 0,00 2.461,24 6.736,85 330,00 0,00 31/08/2012
160 248201 ANA FLAVIA DE MORAIS SOUZA ANALISTA DO MP ATIVO DIVINÓPOLIS - COMARCA; DIVINOPOLIS-PJ-01PJ 4.924,85 984,97 0,00 0,00 0,00 0,00 5.909,82 650,08 689,90 0,00 1.339,98 4.569,84 330,00 0,00 31/08/2012
161 238600 ANA FLAVIA FRANCO CAMPOS OFICIAL DO MP ATIVO BELO HORIZONTE - COMARCA; DIRETORIA DE PESSOAL ADMINISTRATIVO - DPAD 5.598,22 1.119,64 0,00 0,00 0,00 0,00 6.717,86 738,96 887,67 0,00 1.626,63 5.091,23 565,00 0,00 31/08/2012
162 402900 ANA FLAVIA PORTES DE CARVALHO ANALISTA DO MP ATIVO BELO HORIZONTE - COMARCA; DIRET DE PLANOS PROJETOS E PROGRAMAS INST 5.598,22 335,89 0,00 0,00 0,00 0,00 5.934,11 652,75 650,59 0,00 1.303,34 4.630,77 2.096,61 140,40 31/08/2012
163 382700 ANA KARENINA SALDANHA GONTIJO ANALISTA DO MP ATIVO BELO HORIZONTE - COMARCA; ASSESS TECNICO-JUR JUNTO AS PROC. DE JUST 5.598,22 335,89 0,00 0,00 0,00 0,00 5.934,11 652,75 695,84 0,00 1.348,59 4.585,52 330,00 0,00 31/08/2012
164 220000 ANA LUCIA AMORIM OFICIAL DO MP ATIVO MARTINHO CAMPOS - COMARCA; MARTINHO CAMPOS-PJ-SECRETARIA 4.619,20 1.847,68 0,00 0,00 0,00 0,00 6.466,88 711,36 826,24 0,00 1.537,60 4.929,28 330,00 0,00 31/08/2012
165 462200 ANA LUCIA ANDRADE TOMICH OTTONI ANALISTA DO MP ATIVO TEÓFILO OTONI - COMARCA; TEOFILO OTONI-PJ-06PJ 4.473,58 0,00 0,00 0,00 0,00 0,00 4.473,58 492,09 269,63 0,00 761,72 3.711,86 565,00 0,00 31/08/2012
166 504100 ANA LUCIA CATAO DE CARVALHO OFICIAL DO MP ATIVO BELO HORIZONTE - COMARCA; BH-09PJ AUDITORIA MILITAR 2.812,27 0,00 0,00 0,00 0,00 0,00 2.812,27 309,35 68,64 0,00 377,99 2.434,28 565,00 0,00 31/08/2012
167 274700 ANA LUCIA DE ALENCAR BRAGATO OFICIAL DO MP ATIVO UBERABA - COMARCA; UBERABA-PJ-04PJ 5.085,23 508,52 0,00 0,00 0,00 0,00 5.593,75 615,31 567,29 0,00 1.182,60 4.411,15 330,00 0,00 31/08/2012
168 258600 ANA LUCIA DE FREITAS AZEVEDO ANALISTA DO MP ATIVO BELO HORIZONTE - COMARCA; BH-19PJ SAUDE-ASS TECNICA 8.361,90 836,19 0,00 0,00 0,00 0,00 9.198,09 1.011,79 1.494,70 0,00 2.506,49 6.691,60 330,00 0,00 31/08/2012
169 509400 ANA LUCIA DORNELAS MALLOSTO ANALISTA DO MP ATIVO JUIZ DE FORA - COMARCA; JUIZ DE FORA-PJ-08PJ 3.935,44 0,00 0,00 0,00 0,00 0,00 3.935,44 432,90 235,92 0,00 668,82 3.266,62 330,00 0,00 31/08/2012
170 524600 ANA LUCIA DOS SANTOS FERNANDES COELHO ASSESSOR ATIVO BELO HORIZONTE - COMARCA; COORD ESTADUAL DE DEFESA DA EDUCACAO 0,00 0,00 3.519,31 0,00 0,00 0,00 3.519,31 116,30 213,53 0,00 329,83 3.189,48 330,00 0,00 31/08/2012
171 302600 ANA LUCIA LOPES SANTOS OFICIAL DO MP ATIVO BELO HORIZONTE - COMARCA; PROCON-MG-SECRETARIA DE FISCALIZACOES 4.619,20 461,92 0,00 0,00 0,00 0,00 5.081,12 587,67 505,77 0,00 1.093,44 3.987,68 565,00 261,30 31/08/2012
172 493400 ANA LUISA NOGUEIRA MOREIRA ANALISTA DO MP ATIVO BELO HORIZONTE - COMARCA; TRIBUNAL DO JURI-07 PJ-02 TRIBUNAL 4.924,85 0,00 0,00 0,00 0,00 0,00 4.924,85 603,79 586,91 0,00 1.190,70 3.734,15 330,00 564,17 31/08/2012
173 389300 ANA LUISA REUTER LIMA ANALISTA DO MP ATIVO BELO HORIZONTE - COMARCA; DIRETORIA DE SISTEMAS DE INFORMACAO 5.085,23 305,11 0,00 0,00 0,00 0,00 5.390,34 592,94 562,76 0,00 1.155,70 4.234,64 330,00 0,00 31/08/2012
174 480600 ANA LUIZA FERNANDES FRAGA E GRECO OFICIAL DO MP ATIVO SANTO ANTÔNIO DO MONTE - COMARCA; SANTO ANTONIO DO MONTE-PJ-UNPJ 2.637,71 0,00 0,00 0,00 0,00 0,00 2.637,71 290,15 53,29 0,00 343,44 2.294,27 330,00 0,00 31/08/2012
175 517800 ANA LUIZA MAGALHAES CIRINO PIOTO BRAGA OFICIAL DO MP ATIVO BELO HORIZONTE - COMARCA; EXTINTA - DIVISAO DE SERVICOS GERAIS 2.554,55 0,00 0,00 0,00 0,00 0,00 2.554,55 281,00 47,74 0,00 328,74 2.225,81 330,00 0,00 31/08/2012
176 481400 ANA MARCIA CANDIDA FERREIRA OFICIAL DO MP ATIVO BRUMADINHO - COMARCA; BRUMADINHO-PJ-01PJ 2.637,71 0,00 0,00 0,00 0,00 0,00 2.637,71 290,15 53,29 0,00 343,44 2.294,27 330,00 0,00 31/08/2012
177 409600 ANA OLIVIA FARIA ROSENBURG ANALISTA DO MP ATIVO BELO HORIZONTE - COMARCA; DIRETORIA DO COLEGIO E DA CAMARA DE PJ 5.598,22 559,82 0,00 0,00 0,00 0,00 6.158,04 677,38 750,65 0,00 1.428,03 4.730,01 565,00 0,00 31/08/2012
178 374600 ANA PATRICIA FERREIRA FRANCA OFICIAL DO MP ATIVO TIROS - COMARCA; TIROS-PJ-SECRETARIA 4.332,50 259,95 0,00 0,00 0,00 0,00 4.592,45 690,36 772,84 0,00 1.463,20 3.129,25 330,00 1.823,81 31/08/2012
179 461500 ANA PAULA ALVES CARVALHO ANALISTA DO MP ATIVO UBERLÂNDIA - COMARCA; UBERLANDIA-PJ-08PJ 4.473,58 0,00 0,00 0,00 0,00 0,00 4.473,58 492,09 343,69 0,00 835,78 3.637,80 330,00 0,00 31/08/2012
180 523200 ANA PAULA ALVES DA SILVA OFICIAL DO MP ATIVO GOVERNADOR VALADARES - COMARCA; GOVERNADOR VALADARES-PJ-15PJ 2.812,27 0,00 0,00 0,00 0,00 0,00 2.812,27 309,35 68,64 0,00 377,99 2.434,28 330,00 0,00 31/08/2012
181 381200 ANA PAULA BARROS PEREIRA ASSESSOR/ANALISTA ATIVO BELO HORIZONTE - COMARCA; PROC JUST RECURSOS ESP E EXTRAORD CRIMINAIS 0,00 427,45 7.124,13 0,00 0,00 0,00 7.551,58 652,75 1.140,65 0,00 1.793,40 5.758,18 330,00 0,00 31/08/2012
182 227200 ANA PAULA DA SILVA CAMPOLINA ANALISTA DO MP ATIVO BELO HORIZONTE - COMARCA; EXTINTA - DIVISÃO DE MATERIAL PERMANENTE 9.505,17 2.851,55 0,00 0,00 0,00 0,00 12.356,72 1.359,24 2.267,78 0,00 3.627,02 8.729,70 330,00 0,00 31/08/2012
183 84200 ANA PAULA DE SOUZA ROCHA OFICIAL DO MP ATIVO BELO HORIZONTE - COMARCA; ASSESS ESP ADM E FINANCEIRA DO PGJ ADJ ADM 19.377,21 7.750,88 0,00 0,00 0,00 0,00 27.128,09 2.652,94 5.055,75 3.010,47 10.719,16 16.408,93 1.937,86 147,39 31/08/2012
184 278500 ANA PAULA DIAS CAPANEMA COORDENADOR/OFICIAL ATIVO BELO HORIZONTE - COMARCA; EXTINTA - DIRETORIA DE MATERIAL E PATRIMONIO 0,00 920,55 9.205,45 0,00 0,00 0,00 10.126,00 615,31 1.858,91 0,00 2.474,22 7.651,78 330,00 0,00 31/08/2012
185 327300 ANA PAULA GARCIA MAXIMO OFICIAL DO MP ATIVO UNAÍ - COMARCA; UNAI-PJ-01PJ 4.619,20 923,84 0,00 0,00 0,00 0,00 5.543,04 609,73 464,37 0,00 1.074,10 4.468,94 565,00 0,00 31/08/2012
186 270000 ANA PAULA GOULART CRUZ DE MAGALHAES ANALISTA DO MP ATIVO BELO HORIZONTE - COMARCA; COMB CRIMES PRAT POR AG POL MUN-ASSESSORIA 6.471,28 647,13 0,00 0,00 0,00 0,00 7.118,41 783,03 985,70 0,00 1.768,73 5.349,68 330,00 0,00 31/08/2012
187 262100 ANA PAULA KOMATSUZAKI ABIJAUDI ANALISTA DO MP ATIVO BELO HORIZONTE - COMARCA; BH-17PJ PATRIMONIO PUBLICO-SECRETARIA 8.361,90 2.508,57 0,00 0,00 0,00 0,00 10.870,47 1.195,75 1.813,51 0,00 3.009,26 7.861,21 565,00 0,00 31/08/2012
188 278900 ANA PAULA MOREIRA GURGEL ANALISTA DO MP ATIVO BELO HORIZONTE - COMARCA; EXTINTA - DIRETORIA DE CONTRATOS E CONVÊNIOS 8.361,90 1.672,38 0,00 0,00 0,00 0,00 10.034,28 1.103,77 1.699,36 0,00 2.803,13 7.231,15 330,00 0,00 31/08/2012
189 425700 ANA PAULA ROCHA ASSESSOR/OFICIAL ATIVO BELO HORIZONTE - COMARCA; SUPERINTENDENCIA DE COMUNICACAO INTEGRADA 0,00 335,89 5.598,22 0,00 0,00 0,00 5.934,11 416,82 760,72 0,00 1.177,54 4.756,57 330,00 0,00 31/08/2012
190 395601 ANA PAULA SALGE OLIVEIRA ANALISTA DO MP ATIVO UBERABA - COMARCA; COORD REG PJ DEF EDUC DIR CRIANCA ADOL TRIANG 4.769,54 476,95 0,00 0,00 0,00 0,00 5.246,49 577,11 527,55 0,00 1.104,66 4.141,83 330,00 0,00 31/08/2012
191 473200 ANA PAULA SCOTTON BRASIL ANALISTA DO MP ATIVO JUIZ DE FORA - COMARCA; JUIZ DE FORA-PJ-09PJ 4.473,58 0,00 0,00 0,00 0,00 0,00 4.473,58 492,09 343,69 0,00 835,78 3.637,80 330,00 0,00 31/08/2012
192 470900 ANA PAULA VALADARES ANALISTA DO MP ATIVO PITANGUI - COMARCA; PITANGUI-PJ-01PJ 4.924,85 0,00 0,00 0,00 0,00 0,00 4.924,85 606,74 548,20 0,00 1.154,94 3.769,91 565,00 590,94 31/08/2012
193 447000 ANA PAULA VALENTIM DE ARAUJO ANALISTA DO MP ATIVO BELO HORIZONTE - COMARCA; BH-08PJ JUIZADO ESPECIAL 5.421,69 0,00 0,00 0,00 0,00 0,00 5.421,69 596,39 570,43 0,00 1.166,82 4.254,87 330,00 0,00 31/08/2012
194 505400 ANA PAULA VIEIRA SOUTO OFICIAL DO MP ATIVO ALMENARA - COMARCA; COORD. PAT. PUBLICO-MUCURI/JEQUIT - ALMENARA 2.554,55 0,00 0,00 0,00 0,00 0,00 2.554,55 281,00 23,05 0,00 304,05 2.250,50 565,00 0,00 31/08/2012
195 280200 ANA RACHEL BRANDAO LADEIRA ROLAND DIRETOR/ANALISTA ATIVO BELO HORIZONTE - COMARCA; SUPRIN DE FORMACAO E APERFEICOAMENTO-SFA/CEAF 0,00 1.193,16 11.931,59 0,00 0,00 0,00 13.124,75 919,06 2.600,03 0,00 3.519,09 9.605,66 565,00 0,00 31/08/2012
196 384700 ANA RODRIGUES PEREIRA MARRA ANALISTA DO MP ATIVO COROMANDEL - COMARCA; COROMANDEL-PJ-SECRETARIA 5.085,23 305,11 0,00 0,00 0,00 0,00 5.390,34 592,94 517,50 0,00 1.110,44 4.279,90 565,00 0,00 31/08/2012
197 232700 ANA SILVIA SEMBLANO NAKAMURA ASSESSOR/OFICIAL ATIVO BELO HORIZONTE - COMARCA; CENT DE APOIO TEC-SETOR DEF,IDOSO E INFANC 0,00 1.424,83 7.124,13 0,00 0,00 0,00 8.548,96 715,66 1.397,63 0,00 2.113,29 6.435,67 330,00 0,00 31/08/2012
198 326700 ANA TERCIA DE FATIMA COSTA OFICIAL DO MP ATIVO NOVA SERRANA - COMARCA; NOVA SERRANA-PJ-01PJ 4.619,20 461,92 0,00 0,00 0,00 558,92 5.640,04 558,92 550,27 0,00 1.109,19 4.530,85 3.545,68 294,77 31/08/2012
199 310400 ANADEJE DO CARMO DINIZ ARAUJO OFICIAL DO MP ATIVO BELO HORIZONTE - COMARCA; CENT DE ATENDIMENTO E ORIENTACAO DE PESSOAL 4.619,20 461,92 0,00 0,00 0,00 0,00 5.081,12 558,92 487,08 0,00 1.046,00 4.035,12 565,00 0,00 31/08/2012
200 395000 ANAIDE PEREIRA LOPES ANALISTA DO MP ATIVO BELO HORIZONTE - COMARCA; DIRETORIA DE GESTAO DOCUMENTAL 5.085,23 305,11 0,00 0,00 0,00 0,00 5.390,34 705,61 813,45 0,00 1.519,06 3.871,28 330,00 1.024,29 31/08/2012
201 337000 ANAILDES MARIA MENDES OFICIAL DO MP ATIVO JANAÚBA - COMARCA; JANAUBA-PJ-02PJ 3.811,39 381,14 0,00 0,00 0,00 0,00 4.192,53 500,89 359,69 0,00 860,58 3.331,95 330,00 361,00 31/08/2012
202 192900 ANATALIA CERQUEIRA LIMA PERES OFICIAL DO MP ATIVO UBERLÂNDIA - COMARCA; UBERLANDIA-PJ-04PJ 4.619,20 923,84 0,00 0,00 0,00 0,00 5.543,04 609,73 600,13 0,00 1.209,86 4.333,18 330,00 0,00 31/08/2012
203 377400 ANDEIRSON DA MATTA BARBOSA ANALISTA DO MP ATIVO POUSO ALEGRE - COMARCA; POUSO ALEGRE-PJ-01PJ 5.598,22 335,89 0,00 0,00 0,00 0,00 5.934,11 652,75 695,84 0,00 1.348,59 4.585,52 330,00 0,00 31/08/2012
204 317400 ANDERSON DA SILVA BICALHO OFICIAL DO MP ATIVO CONTAGEM - COMARCA; CONTAGEM-PJ-03PJ 4.619,20 461,92 0,00 0,00 0,00 0,00 5.081,12 558,92 487,08 0,00 1.046,00 4.035,12 565,00 0,00 31/08/2012
205 506900 ANDERSON DE SOUZA DAMIANI ANALISTA DO MP ATIVO BELO HORIZONTE - COMARCA; DIRETORIA DE PAGAMENTO DE PESSOAL-DPAG 3.935,44 787,09 0,00 0,00 0,00 0,00 4.722,53 577,38 528,14 0,00 1.105,52 3.617,01 330,00 526,37 31/08/2012
206 410000 ANDERSON DE SOUZA NETO ASSESSOR ATIVO BELO HORIZONTE - COMARCA; DIRETORIA DE ADMINISTRACAO FINANCEIRA 0,00 0,00 3.519,31 0,00 0,00 0,00 3.519,31 423,42 157,58 0,00 581,00 2.938,31 330,00 0,00 31/08/2012
207 181900 ANDERSON FLAVIO DE OLIVEIRA OFICIAL DO MP ATIVO ITAGUARA - COMARCA; ITAGUARA-PJ-SECRETARIA 5.598,22 1.119,64 0,00 0,00 0,00 0,00 6.717,86 738,96 887,67 0,00 1.626,63 5.091,23 330,00 0,00 31/08/2012
208 119500 ANDERSON FUNGHI DE AZEVEDO ROCHA COORDENADOR/OFICIAL ATIVO BELO HORIZONTE - COMARCA; DIR ESTRUTURA E PROCESSOS ORGANIZACIONAIS 0,00 6.443,83 9.205,45 0,00 0,00 0,00 15.649,28 1.514,36 2.994,81 0,00 4.509,17 11.140,11 330,00 0,00 31/08/2012
209 333200 ANDERSON JOSE DE FREITAS OFICIAL DO MP ATIVO IPATINGA - COMARCA; IPATINGA-PJ-02PJ 3.811,39 381,14 0,00 0,00 0,00 0,00 4.192,53 461,18 287,40 0,00 748,58 3.443,95 330,00 0,00 31/08/2012
210 462100 ANDERSON LUIZ GUIMARAES CARDOSO ANALISTA DO MP ATIVO BARBACENA - COMARCA; BARBACENA-PJ-SECRETARIA 4.924,85 0,00 0,00 0,00 0,00 0,00 4.924,85 541,73 448,83 0,00 990,56 3.934,29 330,00 0,00 31/08/2012
211 429700 ANDERSON MELO DE SOUZA OFICIAL DO MP ATIVO BELO HORIZONTE - COMARCA; DIRET DE ESTAGIOS E CONVENIOS ACADEMICOS 2.998,37 179,90 0,00 0,00 0,00 0,00 3.178,27 349,61 117,50 0,00 467,11 2.711,16 330,00 0,00 31/08/2012
212 519900 ANDERSON MOREIRA DOEHLER ANALISTA DO MP ATIVO NOVO CRUZEIRO - COMARCA; NOVO CRUZEIRO-PJ-UNPJ 4.332,50 0,00 0,00 0,00 0,00 0,00 4.332,50 476,58 315,43 0,00 792,01 3.540,49 330,00 0,00 31/08/2012
213 103000 ANDERSON TADEU DE DEUS ASSESSOR ATIVO BELO HORIZONTE - COMARCA; EXTINTA - PROTOCOLO DA PGJ 0,00 1.407,72 3.519,31 0,00 0,00 0,00 4.927,03 430,78 479,94 0,00 910,72 4.016,31 565,00 0,00 31/08/2012
214 309200 ANDITYAS SOARES DE MOURA COSTA MATOS ANALISTA DO MP ATIVO BELO HORIZONTE - COMARCA; GABINETE DE PROCURADOR DE JUSTIÇA - SALA 909 6.899,47 689,95 0,00 0,00 0,00 0,00 7.589,42 834,84 1.100,98 0,00 1.935,82 5.653,60 330,00 0,00 31/08/2012
215 338701 ANDRE BARBUTO VITORINO ANALISTA DO MP ATIVO AIMORÉS - COMARCA; AIMORES-PJ-UNPJ 5.598,22 335,89 0,00 0,00 1.978,04 0,00 7.912,15 652,75 1.239,81 0,00 1.892,56 6.019,59 330,00 0,00 31/08/2012
216 519200 ANDRE BORJA LANA ANALISTA DO MP ATIVO BELO HORIZONTE - COMARCA; SUPERINTENDENCIA DE COMUNICACAO INTEGRADA 4.332,50 0,00 0,00 0,00 0,00 0,00 4.332,50 476,58 315,43 0,00 792,01 3.540,49 330,00 0,00 31/08/2012
217 521900 ANDRE LUIS GOMES SILVA ANALISTA DO MP ATIVO FORMIGA - COMARCA; FORMIGA-PJ-01PJ 3.935,44 0,00 0,00 0,00 0,00 0,00 3.935,44 432,90 235,92 0,00 668,82 3.266,62 330,00 0,00 31/08/2012
218 304300 ANDRE LUIZ AVELAR ANALISTA DO MP ATIVO BELO HORIZONTE - COMARCA; DIRETORIA DE REDES E BANCOS DE DADOS 5.421,69 542,17 0,00 0,00 0,00 0,00 5.963,86 667,27 728,15 0,00 1.395,42 4.568,44 330,00 102,24 31/08/2012
219 397400 ANDRE PATARO MYRRHA DE PAULA E SILVA ASSESSOR/ANALISTA ATIVO BELO HORIZONTE - COMARCA; ASSESSORIA JURIDICO-ADMINISTRATIVA 0,00 427,45 7.124,13 0,00 0,00 0,00 7.551,58 652,75 1.095,39 0,00 1.748,14 5.803,44 330,00 0,00 31/08/2012
220 297200 ANDRE WILLE ROSARIO ANALISTA DO MP ATIVO BELO HORIZONTE - COMARCA; ASSESSORIA ESPECIAL DO PGJ 7.595,56 759,56 0,00 0,00 0,00 0,00 8.355,12 966,33 1.257,78 0,00 2.224,11 6.131,01 565,00 429,66 31/08/2012
221 423600 ANDREA COSTA GUALBERTO ANALISTA DO MP ATIVO GOVERNADOR VALADARES - COMARCA; COORD REG PJ DEF EDU DIR CRIANCA ADOL RIODOCE 5.085,23 2.034,10 0,00 0,00 0,00 0,00 7.119,33 941,62 1.398,37 0,00 2.339,99 4.779,34 565,00 1.658,30 31/08/2012
222 198600 ANDREA CRISTINA ANDRADE COSTA E SOUZA OFICIAL DO MP ATIVO MONTES CLAROS - COMARCA; MONTES CLAROS-PJ-SECRETARIA 7.124,13 1.424,83 0,00 0,00 0,00 0,00 8.548,96 940,39 1.245,32 0,00 2.185,71 6.363,25 330,00 0,00 31/08/2012
223 467300 ANDREA DE CASSIA PENNA ALVERNAZ ANALISTA DO MP ATIVO PONTE NOVA - COMARCA; PONTE NOVA-PJ-SECRETARIA 4.924,85 0,00 0,00 0,00 0,00 0,00 4.924,85 541,73 448,83 0,00 990,56 3.934,29 565,00 0,00 31/08/2012
224 308000 ANDREA DE CASSIA SANTOS OLIVEIRA ANALISTA DO MP ATIVO BELO HORIZONTE - COMARCA; ASSESS TECNICO-JUR JUNTO AS PROC. DE JUST 7.595,56 759,56 0,00 0,00 0,00 0,00 8.355,12 919,06 1.288,39 0,00 2.207,45 6.147,67 565,00 0,00 31/08/2012
225 349500 ANDREA DE OLIVEIRA OFICIAL DO MP ATIVO IGUATAMA - COMARCA; IGUATAMA-PJ-UNPJ 4.063,61 406,36 0,00 0,00 0,00 0,00 4.469,97 491,70 305,93 0,00 797,63 3.672,34 565,00 0,00 31/08/2012
226 254700 ANDREA EMISE REIS DE AZEVEDO COORDENADOR/OFICIAL ATIVO BELO HORIZONTE - COMARCA; COMB CRIMES PRAT POR AG POL MUN-SECRETARIA 0,00 809,82 8.098,20 0,00 0,00 0,00 8.908,02 615,31 1.523,97 0,00 2.139,28 6.768,74 330,00 0,00 31/08/2012
227 287900 ANDREA FERNANDES PENA OFICIAL DO MP ATIVO FRANCISCO SÁ - COMARCA; FRANCISCO SA-PJ-SECRETARIA 5.085,23 508,52 0,00 0,00 0,00 0,00 5.593,75 615,31 522,03 0,00 1.137,34 4.456,41 330,00 0,00 31/08/2012
228 300800 ANDREA FERREIRA ANALISTA DO MP ATIVO LAVRAS - COMARCA; LAVRAS-PJ-04PJ 7.356,10 735,61 0,00 0,00 0,00 0,00 8.091,71 890,09 1.223,92 0,00 2.114,01 5.977,70 330,00 0,00 31/08/2012
229 316700 ANDREA FRANCISCA DIAS DE SOUZA ASSESSOR ATIVO BELO HORIZONTE - COMARCA; BH-22PJ PES COM DEF E IDOSOS-SECRETARIA 0,00 0,00 2.107,81 0,00 0,00 0,00 2.107,81 268,16 15,19 0,00 283,35 1.824,46 330,00 0,00 31/08/2012
230 395100 ANDREA LANNA MENDES NOVAIS ANALISTA DO MP ATIVO BELO HORIZONTE - COMARCA; PROMOT ESTADUAL DE DEF PATRI CULT E TUR DE MG 6.069,59 364,18 0,00 0,00 0,00 0,00 6.433,77 707,71 772,88 0,00 1.480,59 4.953,18 800,00 0,00 31/08/2012
231 67300 ANDREA LEAO MAGALHAES ROQUE ASSESSOR ATIVO BELO HORIZONTE - COMARCA; COORD DE CONT. DA CONSTITUCIONALIDADE-SEC 0,00 3.562,07 7.124,13 0,00 0,00 0,00 10.686,20 430,78 2.063,71 0,00 2.494,49 8.191,71 330,00 0,00 31/08/2012
232 335700 ANDREA LOPES PEREIRA ANALISTA DO MP ATIVO GOVERNADOR VALADARES - COMARCA; COORD REG DO MA DA BACIA DO RIO DOCE 7.356,10 735,61 0,00 0,00 0,00 0,00 8.091,71 890,09 1.223,92 0,00 2.114,01 5.977,70 330,00 0,00 31/08/2012
233 389200 ANDREA TUPINI DOS SANTOS TRISTAO DA ROCHA OFICIAL DO MP ATIVO DIVINO - COMARCA; DIVINO-PJ-UNPJ 3.300,91 198,05 0,00 0,00 0,00 0,00 3.498,96 414,58 202,57 0,00 617,15 2.881,81 330,00 269,91 31/08/2012
234 419000 ANDREIA BARBOSA DE ALMEIDA ANALISTA DO MP ATIVO BELO HORIZONTE - COMARCA; PROC. JUSTICA DE HABEAS CORPUS 5.598,22 335,89 0,00 0,00 0,00 0,00 5.934,11 652,75 695,84 0,00 1.348,59 4.585,52 330,00 0,00 31/08/2012
235 281501 ANDREIA CARLA COSTA FILGUEIRAS ANALISTA DO MP ATIVO VISCONDE DO RIO BRANCO - COMARCA; VISCONDE DO RIO BRANCO-PJ-02PJ 5.598,22 335,89 0,00 0,00 0,00 0,00 5.934,11 759,07 841,89 0,00 1.600,96 4.333,15 330,00 966,53 31/08/2012
236 477100 ANDREIA DE ALMEIDA RIBEIRO MELO OFICIAL DO MP ATIVO CONTAGEM - COMARCA; CONTAGEM-PJ-07PJ 2.903,86 0,00 0,00 0,00 0,00 0,00 2.903,86 319,42 80,87 0,00 400,29 2.503,57 330,00 0,00 31/08/2012
237 100200 ANDREIA FERREIRA MATTOZINHOS COORDENADOR/ANALISTA ATIVO BELO HORIZONTE - COMARCA; DIRET DE ESTAGIOS E CONVENIOS ACADEMICOS 15.061,73 12.752,52 0,00 0,00 0,00 0,00 27.814,25 2.652,94 5.146,26 3.696,63 11.495,83 16.318,42 1.937,86 147,38 31/08/2012
238 424000 ANDREIA LUCIA COUTO ANALISTA DO MP ATIVO BELO HORIZONTE - COMARCA; BH-18PJ DIREITOS HUMANOS 5.598,22 335,89 0,00 0,00 0,00 0,00 5.934,11 652,75 695,84 0,00 1.348,59 4.585,52 565,00 0,00 31/08/2012
239 370100 ANDREIA MARIA SILVA PINTO OFICIAL DO MP ATIVO CORONEL FABRICIANO - COMARCA; CORONEL FABRICIANO-PJ-01PJ 4.332,50 433,25 0,00 0,00 0,00 0,00 4.765,75 524,23 409,89 0,00 934,12 3.831,63 330,00 0,00 31/08/2012
240 382100 ANDREIA NATALI PEREIRA OFICIAL DO MP ATIVO PRADOS - COMARCA; PRADOS-PJ-UNPJ 4.332,50 259,95 0,00 0,00 0,00 0,00 4.592,45 690,36 779,51 0,00 1.469,87 3.122,58 330,00 1.683,52 31/08/2012
241 198700 ANDREIA NUNES DURAES OFICIAL DO MP ATIVO MONTES CLAROS - COMARCA; MONTES CLAROS-PJ-06PJ 7.356,10 1.471,22 0,00 0,00 0,00 0,00 8.827,32 971,01 1.403,96 0,00 2.374,97 6.452,35 330,00 0,00 31/08/2012
242 275200 ANDREIA RIBEIRO FREITAS OFICIAL DO MP ATIVO VIÇOSA - COMARCA; VICOSA-PJ-03PJ 5.085,23 1.017,05 0,00 0,00 0,00 0,00 6.102,28 671,25 646,50 0,00 1.317,75 4.784,53 1.010,69 40,85 31/08/2012
243 352200 ANDREIA XAVIER PEREIRA OFICIAL DO MP ATIVO CLÁUDIO - COMARCA; CLAUDIO-PJ-UNPJ 4.063,61 406,36 0,00 0,00 0,00 0,00 4.469,97 491,70 342,96 0,00 834,66 3.635,31 330,00 0,00 31/08/2012
244 383700 ANDRESSA EDUARDO SOUZA ANALISTA DO MP ATIVO OURO BRANCO - COMARCA; OURO BRANCO-PJ-SECRETARIA 6.069,59 364,18 0,00 0,00 0,00 0,00 6.433,77 707,71 818,14 0,00 1.525,85 4.907,92 330,00 0,00 31/08/2012
245 426200 ANDRESSA MENDES CASAL ASSESSOR/OFICIAL ATIVO BELO HORIZONTE - COMARCA; BH-12PJ JUIZO CRIMINAL-SECRETARIA 0,00 335,89 5.598,22 0,00 0,00 0,00 5.934,11 384,89 769,51 0,00 1.154,40 4.779,71 330,00 0,00 31/08/2012
246 390100 ANDRESSA RIBEIRO PUCCI OFICIAL DO MP ATIVO UBERABA - COMARCA; UBERABA-PJ-14PJ 3.574,80 214,49 0,00 0,00 0,00 0,00 3.789,29 416,82 206,66 0,00 623,48 3.165,81 330,00 0,00 31/08/2012
247 462500 ANDREZA APARECIDA COSTA E SILVA ANALISTA DO MP ATIVO CONSELHEIRO LAFAIETE - COMARCA; CONSELHEIRO LAFAIETE-PJ-02PJ 4.924,85 0,00 0,00 0,00 0,00 0,00 4.924,85 541,73 448,83 0,00 990,56 3.934,29 330,00 0,00 31/08/2012
248 491600 ANE PATRICIA RIBEIRO ANALISTA DO MP ATIVO SETE LAGOAS - COMARCA; SETE LAGOAS-PJ-10PJ 4.473,58 0,00 0,00 0,00 0,00 0,00 4.473,58 520,55 414,62 0,00 935,17 3.538,41 565,00 305,68 31/08/2012
249 465800 ANELISE GAMA ASSESSOR ATIVO BELO HORIZONTE - COMARCA; BH-18PJ VIOLENCIA DOMESTICA 0,00 0,00 3.519,31 0,00 0,00 0,00 3.519,31 423,42 157,58 0,00 581,00 2.938,31 330,00 0,00 31/08/2012
250 197200 ANGELA COELHO SALDANHA OLIVEIRA OFICIAL DO MP ATIVO PARÁ DE MINAS - COMARCA; PARA DE MINAS-PJ-03PJ 7.356,10 1.471,22 0,00 0,00 0,00 0,00 8.827,32 971,01 1.403,96 0,00 2.374,97 6.452,35 330,00 0,00 31/08/2012
251 307400 ANGELA CRISTINA GONCALVES MUNIZ ANALISTA DO MP ATIVO UBERLÂNDIA - COMARCA; UBERLANDIA-COORD CONJ-FAMÍLIA E JUIZ ESP CRIM 7.595,56 1.519,11 0,00 0,00 0,00 0,00 9.114,67 1.002,61 1.474,29 0,00 2.476,90 6.637,77 3.780,68 294,77 31/08/2012
252 191800 ANGELA MARIA DE OLIVEIRA OFICIAL DO MP ATIVO GUARANÉSIA - COMARCA; GUARANESIA-PJ-SECRETARIA 7.356,10 2.206,83 0,00 0,00 0,00 0,00 9.562,93 1.051,92 1.538,74 0,00 2.590,66 6.972,27 3.461,57 287,06 31/08/2012
253 69900 ANGELA MARIA DE PAULA CUNHA OFICIAL DO MP ATIVO JUIZ DE FORA - COMARCA; JUIZ DE FORA-PJ-11PJ 7.595,56 3.797,78 0,00 0,00 0,00 0,00 11.393,34 1.253,27 1.896,23 0,00 3.149,50 8.243,84 330,00 0,00 31/08/2012
254 497400 ANGELA MARIA HENRIQUES ANALISTA DO MP ATIVO BELO HORIZONTE - COMARCA; COORD REG BACIAS RIO VELHAS E PARAOPEBA 4.332,50 0,00 0,00 0,00 0,00 0,00 4.332,50 476,58 315,43 0,00 792,01 3.540,49 330,00 0,00 31/08/2012
255 83700 ANGELA SILVA ALMEIDA CAMPOS OFICIAL DO MP ATIVO BELO HORIZONTE - COMARCA; BH-08PJ JUIZADO ESPECIAL-SECRETARIA 9.505,17 6.653,62 0,00 0,00 0,00 1.777,47 17.936,26 1.777,47 3.687,14 0,00 5.464,61 12.471,65 330,00 0,00 31/08/2012
256 260700 ANGELICA CRISTINA AZEVEDO MOREIRA MOUCO OFICIAL DO MP ATIVO UBÁ - COMARCA; UBA-PJ-02PJ 5.250,75 525,08 0,00 0,00 0,00 0,00 5.775,83 635,34 566,60 0,00 1.201,94 4.573,89 565,00 0,00 31/08/2012
257 334600 ANGELICA PANISSA DE FREITAS OFICIAL DO MP ATIVO GUAXUPÉ - COMARCA; GUAXUPE-PJ-02PJ 3.811,39 762,28 0,00 0,00 0,00 0,00 4.573,67 530,61 424,08 0,00 954,69 3.618,98 369,68 250,05 31/08/2012
258 521100 ANGELICA SALES MOREIRA OFICIAL DO MP ATIVO BELO HORIZONTE - COMARCA; BH-02PJ FAMILIA-SECRETARIA 2.554,55 0,00 0,00 0,00 0,00 0,00 2.554,55 281,00 47,74 0,00 328,74 2.225,81 330,00 0,00 31/08/2012
259 466500 ANGELLO MARQUES AGRELLI ANALISTA DO MP ATIVO MAR DE ESPANHA - COMARCA; MAR DE ESPANHA-PJ-UNPJ 4.063,61 0,00 0,00 0,00 0,00 0,00 4.063,61 447,00 261,59 0,00 708,59 3.355,02 330,00 0,00 31/08/2012
260 363300 ANGELO VERDOLIN HENRIQUES ANALISTA DO MP ATIVO SETE LAGOAS - COMARCA; SETE LAGOAS-PJ-04PJ 7.124,13 1.424,83 0,00 0,00 0,00 0,00 8.548,96 940,39 1.335,83 0,00 2.276,22 6.272,74 565,00 0,00 31/08/2012
261 250900 ANISIO APARECIDO SANTOS OFICIAL DO MP ATIVO CONTAGEM - COMARCA; CONTAGEM-PJ-19PJ 4.195,87 839,17 0,00 0,00 0,00 0,00 5.035,04 553,85 385,29 0,00 939,14 4.095,90 330,00 0,00 31/08/2012
262 253400 ANNA FLAVIA LEHMAN BATTAGLIA DIRETOR/ANALISTA ATIVO BELO HORIZONTE - COMARCA; SUPERINTENDENCIA DE RECURSOS HUMANOS 0,00 1.193,16 11.931,59 0,00 0,00 0,00 13.124,75 1.011,79 2.438,77 0,00 3.450,56 9.674,19 800,00 0,00 31/08/2012
263 447600 ANNGELUCE ALCANTARA DE CAMPOS OFICIAL DO MP ATIVO DIVINÓPOLIS - COMARCA; DIVINOPOLIS-PJ-10PJ 2.903,86 0,00 0,00 0,00 0,00 0,00 2.903,86 319,42 80,87 0,00 400,29 2.503,57 330,00 0,00 31/08/2012
264 119600 ANSELMO BORGES PARREIRAS OFICIAL DO MP ATIVO BONFIM - COMARCA; BONFIM-PJ-UNPJ 4.769,54 3.338,67 0,00 0,00 0,00 0,00 8.108,21 891,90 1.137,45 0,00 2.029,35 6.078,86 330,00 0,00 31/08/2012
265 194800 ANTONIA MARIA AFONSO DE SOUZA OFICIAL DO MP ATIVO ITAPAGIPE - COMARCA; ITAPAGIPE-PJ-SECRETARIA 6.471,28 3.235,64 0,00 0,00 0,00 0,00 9.706,92 1.067,76 1.573,99 0,00 2.641,75 7.065,17 330,00 0,00 31/08/2012
266 332400 ANTONIA MARIA MAMEDE OFICIAL DO MP ATIVO ARAGUARI - COMARCA; ARAGUARI-PJ-05PJ 4.769,54 476,95 0,00 0,00 0,00 0,00 5.246,49 885,29 1.167,99 0,00 2.053,28 3.193,21 330,00 2.801,61 31/08/2012
267 401600 ANTONIO CARLOS GUEDES AROUCA ANALISTA DO MP ATIVO BELO HORIZONTE - COMARCA; EXTINTA - CAO-IDOSOS PESSOAS DEFIC-SEC ADM 6.069,59 364,18 0,00 0,00 0,00 0,00 6.433,77 790,16 1.001,57 0,00 1.791,73 4.642,04 330,00 749,48 31/08/2012
268 7100 ANTONIO DO NASCIMENTO OLIVEIRA ASSESSOR ATIVO BELO HORIZONTE - COMARCA; GAECO - SECRETARIA 0,00 1.897,03 2.107,81 0,00 0,00 0,00 4.004,84 430,78 130,57 0,00 561,35 3.443,49 330,00 0,00 31/08/2012
269 59400 ANTONIO GOBIRA DE ALCANTARA AGENTE DO MP ATIVO BELO HORIZONTE - COMARCA; EXTINTA - DIVISAO DE TRANSPORTES 4.619,20 3.233,44 0,00 0,00 0,00 0,00 7.852,64 1.234,00 1.943,85 0,00 3.177,85 4.674,79 330,00 3.365,50 31/08/2012
270 333900 ANTONIO GONCALVES DE SOUZA FILHO OFICIAL DO MP ATIVO BELO HORIZONTE - COMARCA; ARQUIVO DO MINISTERIO PUBLICO DO ESTADO DE MG 4.195,87 419,59 0,00 0,00 0,00 0,00 4.615,46 507,70 373,10 0,00 880,80 3.734,66 330,00 0,00 31/08/2012
271 119700 ANTONIO LISBOA MACIEL OFICIAL DO MP ATIVO JABOTICATUBAS - COMARCA; JABOTICATUBAS-PJ-SECRETARIA 3.811,39 2.667,98 0,00 0,00 0,00 0,00 6.479,37 712,73 648,28 0,00 1.361,01 5.118,36 330,00 0,00 31/08/2012
272 176100 ANTONIO MARCELO CAMPOS CAMPANELLA OFICIAL DO MP ATIVO BELO HORIZONTE - COMARCA; SUPERINTENDENCIA DE RECURSOS HUMANOS 7.356,10 2.206,83 0,00 0,00 0,00 0,00 9.562,93 1.051,92 1.584,00 0,00 2.635,92 6.927,01 3.780,68 294,77 31/08/2012
273 119800 ANTONIO MARCIANO DE PAULA AGENTE DO MP ATIVO BELO HORIZONTE - COMARCA; DIRETORIA DE MANUTENCAO PREDIAL 3.691,17 2.952,94 0,00 0,00 0,00 730,85 7.374,96 730,85 934,84 0,00 1.665,69 5.709,27 330,00 0,00 31/08/2012
274 321001 ANTONIO OLINTO VIEIRA MACHADO ANALISTA DO MP ATIVO BELO HORIZONTE - COMARCA; CENTRAL DE APOIO TECN-SETOR DE MEIO AMBIENTE 6.069,59 364,18 0,00 0,00 0,00 0,00 6.433,77 707,71 818,14 0,00 1.525,85 4.907,92 2.903,51 235,91 31/08/2012
275 356200 ANTONIO PAULA DA SILVA OFICIAL DO MP ATIVO JUIZ DE FORA - COMARCA; JUIZ DE FORA-PJ-20PJ 3.691,17 369,12 0,00 0,00 0,00 0,00 4.060,29 446,63 260,92 0,00 707,55 3.352,74 330,00 0,00 31/08/2012
276 83800 ANTONIO ROBSON DA SILVA AGENTE DO MP ATIVO BELO HORIZONTE - COMARCA; BH-23PJ CIVEL-SEC EXP CIVEIS 9.505,17 6.653,62 0,00 0,00 0,00 0,00 16.158,79 1.777,47 3.107,83 0,00 4.885,30 11.273,49 330,00 0,00 31/08/2012
277 119900 ANTONIO RODRIGUES DE PINHO OFICIAL DO MP ATIVO GUANHÃES - COMARCA; GUANHAES-PJ-01PJ 7.124,13 3.562,07 0,00 0,00 0,00 0,00 10.686,20 1.606,37 2.862,15 0,00 4.468,52 6.217,68 330,00 4.243,55 31/08/2012
278 373300 ANTONIO SERGIO ANANIAS OFICIAL DO MP ATIVO AIURUOCA - COMARCA; AIURUOCA-PJ-UNPJ 3.574,80 214,49 0,00 0,00 0,00 0,00 3.789,29 416,82 149,70 0,00 566,52 3.222,77 800,00 0,00 31/08/2012
279 374700 ANTONIO SILVA NETO OFICIAL DO MP ATIVO RIBEIRÃO DAS NEVES - COMARCA; RIBEIRAO DAS NEVES-PJ-08PJ 3.935,44 236,13 0,00 0,00 0,00 0,00 4.171,57 458,87 283,21 0,00 742,08 3.429,49 330,00 0,00 31/08/2012
280 413200 ANY PEREIRA SILVA ANALISTA DO MP ATIVO TRÊS PONTAS - COMARCA; TRES PONTAS-PJ-01PJ 5.085,23 305,11 0,00 0,00 0,00 0,00 5.390,34 689,50 641,83 0,00 1.331,33 4.059,01 330,00 877,80 31/08/2012
281 151401 APARECIDA DE FATIMA MENDES DE ALMEIDA ASSESSOR ATIVO JUIZ DE FORA - COMARCA; JUIZ DE FORA-PJ-SECRETARIA 0,00 0,00 3.519,31 0,00 0,00 0,00 3.519,31 423,42 157,58 0,00 581,00 2.938,31 330,00 0,00 31/08/2012
282 329300 APARECIDA MARIA MELO DE ASSIS OFICIAL DO MP ATIVO BELO HORIZONTE - COMARCA; BH-18PJ DIREITOS HUMANOS-SECRETARIA 4.619,20 461,92 0,00 0,00 0,00 0,00 5.081,12 558,92 487,08 0,00 1.046,00 4.035,12 330,00 0,00 31/08/2012
283 475300 APARECIDA MARLENE FREIRE ROSA ANALISTA DO MP ATIVO BELO HORIZONTE - COMARCA; BH-02PJ FAMILIA 4.924,85 3.939,89 0,00 0,00 0,00 0,00 8.864,74 975,12 1.413,12 0,00 2.388,24 6.476,50 330,00 0,00 31/08/2012
284 240300 APARECIDA PEREIRA DO NASCIMENTO OFICIAL DO MP ATIVO ITURAMA - COMARCA; ITURAMA-PJ-01PJ 5.598,22 2.799,11 0,00 0,00 0,00 0,00 8.397,33 1.025,28 1.524,72 0,00 2.550,00 5.847,33 533,52 923,39 31/08/2012
285 354500 APARECIDA VIEIRA DE CARVALHO OFICIAL DO MP ATIVO BELO HORIZONTE - COMARCA; PROCON-MG-SEC DE EDUCACAO PARA O CONSUMO 3.691,17 369,12 0,00 0,00 0,00 0,00 4.060,29 446,63 223,90 0,00 670,53 3.389,76 330,00 0,00 31/08/2012
286 286200 ARACELI MEDRADO DOS SANTOS LIMA OFICIAL DO MP ATIVO PARACATU - COMARCA; PARACATU-PJ-03PJ 4.195,87 419,59 0,00 0,00 0,00 0,00 4.615,46 507,70 373,10 0,00 880,80 3.734,66 330,00 0,00 31/08/2012
287 189000 ARAHY MARQUES SILVA OFICIAL DO MP ATIVO SÃO JOÃO DEL REI - COMARCA; SAO JOAO DEL REI-PJ-01PJ 4.195,87 839,17 0,00 0,00 0,00 0,00 5.035,04 553,85 475,80 0,00 1.029,65 4.005,39 330,00 0,00 31/08/2012
288 112200 ARAQUEM AUGUSTO DE MATOS AGENTE DO MP ATIVO BELO HORIZONTE - COMARCA; BH-23PJ INFRACIONAL-SEC EXP 3.811,39 2.667,98 0,00 0,00 0,00 0,00 6.479,37 712,73 738,79 0,00 1.451,52 5.027,85 565,00 0,00 31/08/2012
289 280600 ARDUINO FRATTEZI ANALISTA DO MP ATIVO BELO HORIZONTE - COMARCA; CENTRAL DE APOIO TECNICO-SETOR CONTABIL 7.595,56 759,56 0,00 0,00 0,00 0,00 8.355,12 919,06 1.197,88 0,00 2.116,94 6.238,18 330,00 0,00 31/08/2012
290 417700 ARIANA CRISTINA DE FREITAS ANALISTA DO MP ATIVO MATEUS LEME - COMARCA; MATEUS LEME-PJ-01PJ 4.619,20 277,15 0,00 0,00 0,00 0,00 4.896,35 538,60 441,85 0,00 980,45 3.915,90 330,00 0,00 31/08/2012
291 520200 ARIANE DE FATIMA CARVALHO ALMEIDA OFICIAL DO MP ATIVO BELO HORIZONTE - COMARCA; BH-19PJ SAUDE 2.554,55 0,00 0,00 0,00 0,00 0,00 2.554,55 281,00 47,74 0,00 328,74 2.225,81 330,00 0,00 31/08/2012
292 182000 ARILSON ALEXANDRE MARTINS MAGALHAES OFICIAL DO MP ATIVO JOÃO MONLEVADE - COMARCA; JOAO MONLEVADE-PJ-02PJ 6.069,59 1.820,88 0,00 0,00 0,00 0,00 7.890,47 867,95 1.084,16 0,00 1.952,11 5.938,36 330,00 0,00 31/08/2012
293 511000 ARISLANE CAROLINA DA SILVA ANALISTA DO MP ATIVO CAMPINA VERDE - COMARCA; CAMPINA VERDE-PJ-UNPJ 4.332,50 0,00 0,00 0,00 0,00 0,00 4.332,50 476,58 315,43 0,00 792,01 3.540,49 330,00 0,00 31/08/2012
294 170000 ARLEY BRITES DA SILVA ASSESSOR ATIVO BELO HORIZONTE - COMARCA; EXTINTA - DIVISÃO DE MATERIAL PERMANENTE 0,00 703,86 3.519,31 0,00 0,00 0,00 4.223,17 430,78 190,06 0,00 620,84 3.602,33 565,00 0,00 31/08/2012
295 120400 ARLINDO CASSIO DA CRUZ OFICIAL DO MP ATIVO SÃO GONÇALO DO SAPUCAÍ - COMARCA; SAO GONCALO DO SAPUCAI-PJ-01PJ 9.814,62 6.870,24 0,00 0,00 0,00 0,00 16.684,86 1.835,33 3.191,33 0,00 5.026,66 11.658,20 636,68 0,00 31/08/2012
296 243700 ARLINDO MARCIO LACERDA OFICIAL DO MP ATIVO CONTAGEM - COMARCA; CONTAGEM-PJ-03PJ 5.421,69 1.084,34 0,00 0,00 0,00 0,00 6.506,03 715,66 835,82 0,00 1.551,48 4.954,55 330,00 0,00 31/08/2012
297 392100 ARNALDO DE ANDRADE OFICIAL DO MP ATIVO DIVINÓPOLIS - COMARCA; DIVINOPOLIS-PJ-02PJ 4.332,50 259,95 0,00 0,00 0,00 0,00 4.592,45 806,27 1.037,42 0,00 1.843,69 2.748,76 330,00 2.737,27 31/08/2012
298 352801 ARTHUR JONAS MENDONCA E ARAUJO ANALISTA DO MP ATIVO UBERABA - COMARCA; UBERABA-PJ-12PJ 4.473,58 0,00 0,00 0,00 0,00 0,00 4.473,58 492,09 343,69 0,00 835,78 3.637,80 330,00 0,00 31/08/2012
299 302100 AUGUSTO ROUSSEAU DE CASTRO ANALISTA DO MP ATIVO CATAGUASES - COMARCA; CATAGUASES-PJ-01PJ 8.361,90 836,19 0,00 0,00 0,00 0,00 9.198,09 1.011,79 1.494,70 0,00 2.506,49 6.691,60 330,00 0,00 31/08/2012
300 183200 AURELIANO MAGELA DE REZENDE COORDENADOR/OFICIAL ATIVO BELO HORIZONTE - COMARCA; COORD DE GABINETE DO PGJ 0,00 1.841,09 9.205,45 0,00 0,00 0,00 11.046,54 775,92 2.067,89 0,00 2.843,81 8.202,73 330,00 0,00 31/08/2012
301 519400 BARBARA CRISTINA ALVES PINTO ZADOROSNY ANALISTA DO MP ATIVO BELO HORIZONTE - COMARCA; PROC. JUSTICA DIR. DIFUSOS E COLETIVOS-SEC 3.935,44 0,00 0,00 0,00 0,00 0,00 3.935,44 432,90 235,92 0,00 668,82 3.266,62 330,00 0,00 31/08/2012
302 436800 BARBARA ROCHA LADEIA COLEN OFICIAL DO MP ATIVO BELO HORIZONTE - COMARCA; ASSESS TECNICO-JUR JUNTO AS PROC. DE JUST 3.519,31 211,16 0,00 0,00 0,00 0,00 3.730,47 433,58 237,16 0,00 670,74 3.059,73 330,00 211,16 31/08/2012
303 316500 BEATRIZ ABILVIA DA SILVA ANALISTA DO MP ATIVO GOVERNADOR VALADARES - COMARCA; GOVERNADOR VALADARES-PJ-13PJ 7.595,56 759,56 0,00 0,00 0,00 0,00 8.355,12 919,06 1.288,39 0,00 2.207,45 6.147,67 330,00 0,00 31/08/2012
304 482800 BEATRIZ ANGELICA NACIF SADER ASSESSOR ATIVO BELO HORIZONTE - COMARCA; OUVIDORIA DO MPMG 0,00 0,00 5.598,22 0,00 0,00 0,00 5.598,22 430,78 664,52 0,00 1.095,30 4.502,92 330,00 0,00 31/08/2012
305 311800 BEATRIZ APARECIDA SOARES GANEM OFICIAL DO MP ATIVO ITAMBACURI - COMARCA; ITAMBACURI-PJ-02PJ 4.924,85 984,97 0,00 0,00 0,00 0,00 5.909,82 761,53 802,12 0,00 1.563,65 4.346,17 565,00 1.013,20 31/08/2012
306 266800 BEATRIZ AUGUSTA VILACA GOMES DA SILVA OFICIAL DO MP ATIVO BELO HORIZONTE - COMARCA; BH-05PJ-JUÍZO SUCESSÕES-SEC 4.332,50 433,25 0,00 0,00 0,00 0,00 4.765,75 524,23 409,89 0,00 934,12 3.831,63 330,00 0,00 31/08/2012
307 235200 BEATRIZ BOTELHO BATISTA OFICIAL DO MP ATIVO BELO HORIZONTE - COMARCA; CGMP-DIVISAO DE APOIO ADMINISTRATIVO 5.598,22 1.119,64 0,00 0,00 0,00 0,00 6.717,86 738,96 887,67 0,00 1.626,63 5.091,23 330,00 0,00 31/08/2012
308 113500 BEATRIZ DE LOURDES SOUZA ASSESSOR ATIVO BELO HORIZONTE - COMARCA; BH-02PJ FAMILIA-PROM DEC PAT 0,00 2.799,11 5.598,22 0,00 0,00 0,00 8.397,33 430,78 936,81 0,00 1.367,59 7.029,74 3.545,68 294,77 31/08/2012
309 182300 BEATRIZ PAULA SOUSA RAMOS OFICIAL DO MP ATIVO MARIANA - COMARCA; MARIANA-PJ-01PJ 6.471,28 1.941,38 0,00 0,00 0,00 0,00 8.412,66 1.281,93 2.005,26 0,00 3.287,19 5.125,47 330,00 3.241,25 31/08/2012
310 507000 BELCHIOR FRANKLIN AMARAL LEITE ANALISTA DO MP ATIVO BELO HORIZONTE - COMARCA; CENTRAL DE APOIO TECNICO 4.769,54 0,00 0,00 0,00 0,00 0,00 4.769,54 524,65 410,81 0,00 935,46 3.834,08 330,00 0,00 31/08/2012
311 478400 BENEDITO EVANGELISTA DANTAS ANALISTA DO MP ATIVO PARACATU - COMARCA; PARACATU-PJ-01PJ 3.935,44 0,00 0,00 0,00 0,00 0,00 3.935,44 432,90 119,85 0,00 552,75 3.382,69 330,00 0,00 31/08/2012
312 345100 BENITO ELIAS RODRIGUES ANALISTA DO MP ATIVO BARBACENA - COMARCA; BARBACENA-PJ-SECRETARIA 7.356,10 735,61 0,00 0,00 0,00 0,00 8.091,71 1.057,94 1.552,13 0,00 2.610,07 5.481,64 3.545,68 1.820,69 31/08/2012
313 207300 BENITO VIEIRA DOS SANTOS ANALISTA DO MP ATIVO BELO HORIZONTE - COMARCA; COMB CRIMES PRAT POR AG POL MUN-ASSESSORIA 10.464,02 3.139,21 0,00 0,00 0,00 0,00 13.603,23 1.496,36 1.541,37 0,00 3.037,73 10.565,50 330,00 0,00 31/08/2012
314 120600 BERNADETE FIGUEIREDO SALVIANO OFICIAL DO MP ATIVO BELO HORIZONTE - COMARCA; AUDITORIA INTERNA 4.619,20 3.233,44 0,00 0,00 0,00 863,79 8.716,43 863,79 1.402,95 0,00 2.266,74 6.449,69 330,00 0,00 31/08/2012
315 480200 BERNADETE NUNES DOS SANTOS ANALISTA DO MP ATIVO GUANHÃES - COMARCA; GUANHAES-PJ-02PJ 4.924,85 0,00 0,00 0,00 0,00 0,00 4.924,85 636,05 700,04 0,00 1.336,09 3.588,76 330,00 1.007,83 31/08/2012
316 378400 BETANIA FARNESI DE SOUZA E SILVA OFICIAL DO MP ATIVO SETE LAGOAS - COMARCA; SETE LAGOAS-PJ-03PJ 3.935,44 787,09 0,00 0,00 0,00 0,00 4.722,53 519,48 356,51 0,00 875,99 3.846,54 565,00 0,00 31/08/2012
317 387400 BETANIA MENDONCA DE ASSIS ANALISTA DO MP ATIVO BELO HORIZONTE - COMARCA; BH-08PJ JUIZADO ESPECIAL-SECRETARIA 6.069,59 364,18 0,00 0,00 0,00 0,00 6.433,77 707,71 818,14 0,00 1.525,85 4.907,92 330,00 0,00 31/08/2012
318 450300 BIANCA OLIVEIRA DE ALBUQUERQUE ANALISTA DO MP ATIVO BELO HORIZONTE - COMARCA; BH-10PJ EXECUÇÃO PENAL-SECRETARIA 4.924,85 0,00 0,00 0,00 0,00 0,00 4.924,85 541,73 448,83 0,00 990,56 3.934,29 330,00 0,00 31/08/2012
319 120800 BRAS MARQUES DE SOUZA DIRETOR/ANALISTA ATIVO BELO HORIZONTE - COMARCA; EXTINTA - SUPERINTENDENCIA ADMINISTRATIVA-SAD 16.277,88 14.496,73 0,00 0,00 0,00 0,00 30.774,61 2.652,94 5.010,50 6.656,99 14.320,43 16.454,18 3.780,68 294,77 31/08/2012
320 460900 BRENO CRISTIANO DE SOUZA REZENDE ANALISTA DO MP ATIVO ITAÚNA - COMARCA; ITAUNA-PJ-02PJ 4.063,61 0,00 0,00 0,00 0,00 0,00 4.063,61 447,00 261,59 0,00 708,59 3.355,02 330,00 0,00 31/08/2012
321 239000 BRENO VENANCIO ROMANINI OFICIAL DO MP ATIVO BELO HORIZONTE - COMARCA; BH-20PJ ORD ECON TRIBUTARIA-SECRETARIA 4.619,20 923,84 0,00 0,00 0,00 0,00 5.543,04 609,73 600,13 0,00 1.209,86 4.333,18 330,00 0,00 31/08/2012
322 202200 BRIGITTE AMARALINA CALDAS MEDEIROS OFICIAL DO MP ATIVO NANUQUE - COMARCA; NANUQUE-PJ-02PJ 5.878,19 1.763,46 0,00 0,00 0,00 0,00 7.641,65 840,58 1.068,51 0,00 1.909,09 5.732,56 565,00 0,00 31/08/2012
323 470000 BRUNA ALCIDES MORAES ANALISTA DO MP ATIVO TOMBOS - COMARCA; TOMBOS-PJ-UNPJ 4.924,85 0,00 0,00 0,00 0,00 0,00 4.924,85 541,73 448,83 0,00 990,56 3.934,29 330,00 0,00 31/08/2012
324 513600 BRUNA KARLA MARTINS CARVALHO ANALISTA DO MP ATIVO GOVERNADOR VALADARES - COMARCA; GOVERNADOR VALADARES-PJ-09PJ 3.935,44 0,00 0,00 0,00 0,00 0,00 3.935,44 432,90 235,92 0,00 668,82 3.266,62 330,00 0,00 31/08/2012
325 415100 BRUNA MARIA SOARES OLIVEIRA COSTA RAMOS ANALISTA DO MP ATIVO UBÁ - COMARCA; COORD REG BACIA DO RIO PARAIBA DO SUL 5.598,22 335,89 0,00 0,00 0,00 0,00 5.934,11 652,75 695,84 0,00 1.348,59 4.585,52 330,00 0,00 31/08/2012
326 463800 BRUNO ALVES TEIXEIRA ANALISTA DO MP ATIVO UBERLÂNDIA - COMARCA; UBERLANDIA-PJ-04PJ 4.924,85 0,00 0,00 0,00 0,00 0,00 4.924,85 541,73 448,83 0,00 990,56 3.934,29 330,00 0,00 31/08/2012
327 318200 BRUNO BARROS DE SOUZA OFICIAL DO MP ATIVO UBÁ - COMARCA; UBA-PJ-04PJ 4.619,20 461,92 0,00 0,00 0,00 0,00 5.081,12 558,92 301,92 0,00 860,84 4.220,28 3.780,68 241,18 31/08/2012
328 459600 BRUNO CASTELAR LUGAO MENDES OFICIAL DO MP ATIVO GOVERNADOR VALADARES - COMARCA; GOVERNADOR VALADARES-PJ-SECRETARIA 3.196,81 0,00 0,00 0,00 0,00 0,00 3.196,81 351,65 119,97 0,00 471,62 2.725,19 330,00 0,00 31/08/2012
329 427400 BRUNO CESAR RIBEIRO DE PAIVA ANALISTA DO MP ATIVO BELO HORIZONTE - COMARCA; ASSESS JUR DO CONS SUPERIOR DO MINISTERIO PUB 5.598,22 335,89 0,00 0,00 0,00 0,00 5.934,11 652,75 695,84 0,00 1.348,59 4.585,52 330,00 0,00 31/08/2012
330 490200 BRUNO CESARINO SOARES ANALISTA DO MP ATIVO BELO HORIZONTE - COMARCA; CENTRAL DE APOIO TECNICO-SETOR DE ENGENHARIA 4.924,85 0,00 0,00 0,00 0,00 0,00 4.924,85 567,93 521,35 0,00 1.089,28 3.835,57 330,00 289,91 31/08/2012
331 380900 BRUNO CIRILO ANTUNES OFICIAL DO MP ATIVO VARGINHA - COMARCA; VARGINHA-PJ-05PJ 3.300,91 198,05 0,00 0,00 0,00 0,00 3.498,96 384,89 160,31 0,00 545,20 2.953,76 330,00 0,00 31/08/2012
332 329000 BRUNO DE MELO REIS ANALISTA DO MP ATIVO PATROCÍNIO - COMARCA; PATROCINIO-PJ-02PJ 7.356,10 1.471,22 0,00 0,00 0,00 0,00 8.827,32 971,01 1.403,96 0,00 2.374,97 6.452,35 330,00 0,00 31/08/2012
333 378300 BRUNO HERDY LOPES DE OLIVEIRA ANALISTA DO MP ATIVO MANTENA - COMARCA; MANTENA-PJ-SECRETARIA 6.069,59 364,18 0,00 0,00 0,00 0,00 6.433,77 707,71 818,14 0,00 1.525,85 4.907,92 330,00 0,00 31/08/2012
334 350100 BRUNO LAUD SERRANO DOS REIS OFICIAL DO MP ATIVO UBÁ - COMARCA; UBA-PJ-04PJ 4.063,61 406,36 0,00 0,00 0,00 0,00 4.469,97 491,70 268,91 0,00 760,61 3.709,36 235,00 0,00 31/08/2012
335 373800 BRUNO MARTINO DE ALBUQUERQUE ANALISTA DO MP ATIVO PONTE NOVA - COMARCA; PONTE NOVA-PJ-SECRETARIA 6.069,59 364,18 0,00 0,00 0,00 0,00 6.433,77 750,17 822,10 0,00 1.572,27 4.861,50 565,00 385,98 31/08/2012
336 470400 BRUNO NOVAIS CABRAL ANALISTA DO MP ATIVO RESPLENDOR - COMARCA; RESPLENDOR-PJ-UNPJ 4.924,85 0,00 0,00 0,00 0,00 0,00 4.924,85 541,73 448,83 0,00 990,56 3.934,29 330,00 0,00 31/08/2012
337 369200 BRUNO ROBERTO DIAS DE OLIVEIRA OFICIAL DO MP ATIVO BELO HORIZONTE - COMARCA; BH-23PJ CIVEL-SETOR JURIDICO 4.473,58 447,36 0,00 0,00 0,00 0,00 4.920,94 541,30 447,87 0,00 989,17 3.931,77 330,00 0,00 31/08/2012
338 438200 BRUNO SALES PEREIRA ANALISTA DO MP ATIVO BELO HORIZONTE - COMARCA; CENTRAL DE APOIO TECNICO-SETOR CONTABIL 4.924,85 0,00 0,00 0,00 0,00 0,00 4.924,85 541,73 448,83 0,00 990,56 3.934,29 330,00 0,00 31/08/2012
339 405800 CAIO FERNANDO RODRIGUES DE OLIVEIRA ANALISTA DO MP ATIVO BELO HORIZONTE - COMARCA; ASSESS TECNICO-JUR JUNTO AS PROC. DE JUST 5.598,22 335,89 0,00 0,00 0,00 0,00 5.934,11 652,75 695,84 0,00 1.348,59 4.585,52 330,00 0,00 31/08/2012
340 491400 CAIO MIRANDA JUNQUEIRA ANALISTA DO MP ATIVO BUENO BRANDAO - COMARCA; BUENO BRANDAO-PJ-UNPJ 4.473,58 0,00 0,00 0,00 1.491,19 0,00 5.964,77 522,10 815,21 0,00 1.337,31 4.627,46 565,00 272,75 31/08/2012
341 415800 CAMILA ALVES DA SILVA ANALISTA DO MP ATIVO CAETÉ - COMARCA; CAETE-PJ-01PJ 5.598,22 335,89 0,00 0,00 0,00 0,00 5.934,11 652,75 695,84 0,00 1.348,59 4.585,52 330,00 0,00 31/08/2012
342 445200 CAMILA CONDE ROCHA ANALISTA DO MP ATIVO CONTAGEM - COMARCA; CONTAGEM-PJ-10PJ 5.421,69 0,00 0,00 0,00 0,00 0,00 5.421,69 596,39 570,43 0,00 1.166,82 4.254,87 330,00 0,00 31/08/2012
343 419900 CAMILA CUNNINGHAM PIMENTA DE PADUA ANALISTA DO MP ATIVO BELO HORIZONTE - COMARCA; ASSESSORIA PSICOSSOCIAL 5.598,22 335,89 0,00 0,00 0,00 0,00 5.934,11 652,75 695,84 0,00 1.348,59 4.585,52 330,00 0,00 31/08/2012
344 507700 CAMILA ELIZABETH RODRIGUES ANALISTA DO MP ATIVO BELO HORIZONTE - COMARCA; BH-02PJ FAMILIA 4.332,50 0,00 0,00 0,00 0,00 0,00 4.332,50 476,58 315,43 0,00 792,01 3.540,49 330,00 0,00 31/08/2012
345 372700 CAMILA FONSECA LIMONGE ANALISTA DO MP ATIVO BETIM - COMARCA; BETIM-PJ-01PJ 6.069,59 364,18 0,00 0,00 0,00 0,00 6.433,77 707,71 818,14 0,00 1.525,85 4.907,92 330,00 0,00 31/08/2012
346 409800 CAMILA GONCALVES COSTA RIBEIRO ANALISTA DO MP ATIVO INHAPIM - COMARCA; INHAPIM-PJ-02PJ 5.598,22 335,89 0,00 0,00 0,00 0,00 5.934,11 652,75 695,84 0,00 1.348,59 4.585,52 330,00 0,00 31/08/2012
347 335000 CAMILA GONTIJO DE PAIVA ANALISTA DO MP ATIVO BELO HORIZONTE - COMARCA; COORD DE CONTROLE DA CONSTITUCIONALIDADE 6.471,28 647,13 0,00 0,00 2.372,80 0,00 9.491,21 871,67 1.790,21 0,00 2.661,88 6.829,33 330,00 805,90 31/08/2012
348 430000 CANDIDA MARINA COSTA ANALISTA DO MP ATIVO BELO HORIZONTE - COMARCA; DIVISAO DE DOCUMENTACAO JURIDICA 5.598,22 335,89 0,00 0,00 0,00 0,00 5.934,11 808,22 1.084,51 0,00 1.892,73 4.041,38 330,00 1.568,80 31/08/2012
349 380400 CARINA DIAS FACANHA DE SOUZA ANALISTA DO MP ATIVO SANTA RITA DO SAPUCAÍ - COMARCA; SANTA RITA DO SAPUCAI-PJ-SECRETARIA 5.598,22 335,89 0,00 0,00 0,00 0,00 5.934,11 652,75 695,84 0,00 1.348,59 4.585,52 330,00 0,00 31/08/2012
350 255000 CARLA ADRIANA DE MENEZES ASSESSOR/OFICIAL ATIVO BELO HORIZONTE - COMARCA; CENT DE APOIO TEC-SETOR DEF,IDOSO E INFANC 0,00 559,82 5.598,22 0,00 0,00 0,00 6.158,04 615,31 767,72 0,00 1.383,03 4.775,01 330,00 0,00 31/08/2012
351 425100 CARLA ADRIANA DINIZ AMARAL OFICIAL DO MP ATIVO CONTAGEM - COMARCA; CONTAGEM-PJ-08PJ 3.574,80 214,49 0,00 0,00 0,00 0,00 3.789,29 416,82 206,66 0,00 623,48 3.165,81 330,00 0,00 31/08/2012
352 508100 CARLA ALESSANDRA FONSECA ANALISTA DO MP ATIVO BELO HORIZONTE - COMARCA; CAO-ORDEM ECONOMICA E TRIBUTARIA-SECRETARIA 4.332,50 0,00 0,00 0,00 0,00 0,00 4.332,50 527,53 417,23 0,00 944,76 3.387,74 330,00 463,24 31/08/2012
353 351500 CARLA APARECIDA MENDES RAMIRIO OFICIAL DO MP ATIVO PASSOS - COMARCA; PASSOS-PJ-07PJ 4.332,50 433,25 0,00 0,00 0,00 0,00 4.765,75 524,23 365,17 0,00 889,40 3.876,35 565,00 0,00 31/08/2012
354 206200 CARLA BORGES DA COSTA COORDENADOR/ANALISTA ATIVO BELO HORIZONTE - COMARCA; DIVIS DE PROJETOS DE ENGENHARIA E ARQUITETURA 10.464,02 3.712,44 0,00 0,00 0,00 0,00 14.176,46 1.381,25 2.762,15 0,00 4.143,40 10.033,06 330,00 0,00 31/08/2012
355 442800 CARLA GONCALVES COSTA SOALHEIRO ANALISTA DO MP ATIVO GOVERNADOR VALADARES - COMARCA; GOVERNADOR VALADARES-PJ-11PJ 5.421,69 0,00 0,00 0,00 1.807,23 0,00 7.228,92 596,39 1.067,42 0,00 1.663,81 5.565,11 800,00 0,00 31/08/2012
356 321500 CARLA GONCALVES MASSOTE OFICIAL DO MP ATIVO CAMPO BELO - COMARCA; CAMPO BELO-PJ-01PJ 4.619,20 461,92 0,00 0,00 0,00 0,00 5.081,12 558,92 487,08 0,00 1.046,00 4.035,12 330,00 0,00 31/08/2012
357 429200 CARLA HAUTEQUESTT BECHARA ANALISTA DO MP ATIVO BELO HORIZONTE - COMARCA; DIVISAO DE DOCUMENTACAO JURIDICA 5.598,22 335,89 0,00 0,00 0,00 0,00 5.934,11 652,75 695,84 0,00 1.348,59 4.585,52 330,00 0,00 31/08/2012
358 247500 CARLA MATILDE GUIMARAES DE OLIVEIRA OFICIAL DO MP ATIVO ITAJUBA - COMARCA; ITAJUBA-PJ-03PJ 4.924,85 984,97 0,00 0,00 0,00 0,00 5.909,82 650,08 689,90 0,00 1.339,98 4.569,84 330,00 0,00 31/08/2012
359 226100 CARLA MERLI DA CONCEICAO ANALISTA DO MP ATIVO BELO HORIZONTE - COMARCA; CENTRAL DE APOIO TECNICO-SETOR CONTABIL 9.505,17 1.901,03 0,00 0,00 0,00 0,00 11.406,20 1.254,68 1.989,88 0,00 3.244,56 8.161,64 330,00 0,00 31/08/2012
360 330400 CARLA SILVEIRA CASTEJON PINHEIRO OFICIAL DO MP ATIVO PATOS DE MINAS - COMARCA; PATOS DE MINAS-PJ-06PJ 4.769,54 476,95 0,00 0,00 0,00 0,00 5.246,49 577,11 527,55 0,00 1.104,66 4.141,83 565,00 0,00 31/08/2012
361 181401 CARLO MICHEL GAUDENSI COELHO ANALISTA DO MP ATIVO IBIRITÉ - COMARCA; IBIRITE-PJ-01PJ 5.598,22 1.119,64 0,00 0,00 0,00 0,00 6.717,86 738,96 887,67 0,00 1.626,63 5.091,23 330,00 0,00 31/08/2012
362 375800 CARLOS ALBERTO ROCHA OFICIAL DO MP ATIVO VARGINHA - COMARCA; VARGINHA-PJ-07PJ 4.332,50 259,95 0,00 0,00 0,00 0,00 4.592,45 833,32 1.136,19 0,00 1.969,51 2.622,94 1.706,77 3.226,73 31/08/2012
363 462800 CARLOS ANDREI SOARES FAGUNDES ANALISTA DO MP ATIVO MONTES CLAROS - COMARCA; MONTES CLAROS-PJ-09PJ 4.924,85 0,00 0,00 0,00 0,00 0,00 4.924,85 541,73 448,83 0,00 990,56 3.934,29 330,00 0,00 31/08/2012
364 370300 CARLOS AUGUSTO BUENO DIAS ASSESSOR ATIVO BELO HORIZONTE - COMARCA; DIRETORIA DE FISCALIZACAO DE OBRAS 0,00 0,00 7.124,13 0,00 0,00 0,00 7.124,13 430,78 496,40 0,00 927,18 6.196,95 330,00 0,00 31/08/2012
365 505100 CARLOS CEZAR CARVALHO ANALISTA DO MP ATIVO RIBEIRÃO DAS NEVES - COMARCA; RIBEIRAO DAS NEVES-PJ-SEC CIVEL 3.935,44 0,00 0,00 0,00 0,00 0,00 3.935,44 432,90 235,92 0,00 668,82 3.266,62 330,00 0,00 31/08/2012
366 195900 CARLOS DE SOUZA FERREIRA OFICIAL DO MP ATIVO COROMANDEL - COMARCA; COROMANDEL-PJ-UNPJ 5.421,69 2.710,85 0,00 0,00 0,00 0,00 8.132,54 894,58 1.143,40 0,00 2.037,98 6.094,56 330,00 0,00 31/08/2012
367 196800 CARLOS EDUARDO DE OLIVEIRA MARINHO OFICIAL DO MP ATIVO PASSOS - COMARCA; PASSOS-PJ-SECRETARIA 7.124,13 2.849,65 0,00 0,00 0,00 0,00 9.973,78 1.097,12 1.639,30 0,00 2.736,42 7.237,36 565,00 0,00 31/08/2012
368 491800 CARLOS EDUARDO ROMAN OFICIAL DO MP ATIVO BARBACENA - COMARCA; BARBACENA-PJ-01PJ 3.196,81 319,68 0,00 0,00 0,00 0,00 3.516,49 487,26 334,88 0,00 822,14 2.694,35 440,90 918,66 31/08/2012
369 299300 CARLOS HENRIQUE BICALHO ANALISTA DO MP ATIVO BELO HORIZONTE - COMARCA; BH-17PJ PATRIMONIO PUBLICO-SECRETARIA 7.595,56 1.519,11 0,00 0,00 0,00 0,00 9.114,67 1.002,61 1.474,29 0,00 2.476,90 6.637,77 330,00 0,00 31/08/2012
370 205100 CARLOS HENRIQUE ESTEVES OFICIAL DO MP ATIVO ITAMBACURI - COMARCA; ITAMBACURI-PJ-01PJ 7.356,10 1.471,22 0,00 0,00 0,00 0,00 8.827,32 1.154,10 1.811,35 0,00 2.965,45 5.861,87 330,00 1.664,52 31/08/2012
371 351600 CARLOS HENRIQUE FELICIO DA FONSECA OFICIAL DO MP ATIVO LIMA DUARTE - COMARCA; LIMA DUARTE-PJ-UNPJ 4.063,61 812,72 0,00 0,00 0,00 0,00 4.876,33 536,40 436,95 0,00 973,35 3.902,98 330,00 0,00 31/08/2012
372 85400 CARLOS JOSE VIEIRA OFICIAL DO MP ATIVO BELO HORIZONTE - COMARCA; DIRETORIA DO CONSELHO SUPERIOR DO MP 16.277,88 8.138,94 0,00 0,00 0,00 0,00 24.416,82 2.652,94 5.146,26 299,20 8.098,40 16.318,42 1.937,86 147,39 31/08/2012
373 229100 CARLOS MERCES DE OLIVEIRA ANALISTA DO MP ATIVO BELO HORIZONTE - COMARCA; CENTRAL DE APOIO TECN-SETOR DE MEIO AMBIENTE 8.915,18 1.783,04 0,00 0,00 0,00 0,00 10.698,22 1.176,80 1.347,90 0,00 2.524,70 8.173,52 330,00 0,00 31/08/2012
374 265100 CARLOS REIFF MIRANDA ANALISTA DO MP ATIVO BELO HORIZONTE - COMARCA; BH-19PJ SAUDE-ASS TECNICA 7.595,56 759,56 0,00 0,00 0,00 0,00 8.355,12 919,06 1.288,39 0,00 2.207,45 6.147,67 330,00 0,00 31/08/2012
375 305400 CARLOS ROCHA DE SOUZA OFICIAL DO MP ATIVO MONTALVÂNIA - COMARCA; MONTALVANIA-PJ-SECRETARIA 4.195,87 419,59 0,00 0,00 0,00 0,00 4.615,46 507,70 373,10 0,00 880,80 3.734,66 565,00 0,00 31/08/2012
376 349200 CARLOS WAGNER MELO FRANCO OFICIAL DO MP ATIVO PITANGUI - COMARCA; PITANGUI-PJ-01PJ 3.408,38 204,50 0,00 0,00 0,00 0,00 3.612,88 397,42 150,84 0,00 548,26 3.064,62 849,16 0,00 31/08/2012
377 365100 CARLOS WAGNER SANDER MORAIS ASSESSOR/OFICIAL ATIVO BELO HORIZONTE - COMARCA; DIRETORIA DE ADMINISTRACAO FINANCEIRA 0,00 712,41 7.124,13 0,00 0,00 0,00 7.836,54 563,52 1.662,86 0,00 2.226,38 5.610,16 330,00 1.524,77 31/08/2012
378 399900 CARMELITA EVANGELISTA DE SOUZA OFICIAL DO MP ATIVO JOÃO PINHEIRO - COMARCA; JOAO PINHEIRO-PJ-01PJ 3.300,91 198,05 0,00 0,00 0,00 0,00 3.498,96 441,33 275,32 0,00 716,65 2.782,31 330,00 620,00 31/08/2012
379 390400 CARMEM APARECIDA ANTUNES RESENDE OFICIAL DO MP ATIVO IGARAPÉ - COMARCA; IGARAPE-PJ-SECRETARIA 3.935,44 3.148,35 0,00 0,00 0,00 0,00 7.083,79 845,86 1.125,52 0,00 1.971,38 5.112,41 330,00 605,88 31/08/2012
380 202000 CARMEN LUCIA MARIZ DE MACEDO OFICIAL DO MP ATIVO BELO HORIZONTE - COMARCA; COORD COMB REPRES TRAFICO ILICITO ENTORPECEN 7.124,13 2.849,65 0,00 0,00 0,00 0,00 9.973,78 2.085,14 2.882,21 0,00 4.967,35 5.006,43 330,00 5.343,13 31/08/2012
381 228500 CAROLINA CHIARELLA DOS SANTOS RIBEIRO OFICIAL DO MP ATIVO BELO HORIZONTE - COMARCA; BH-13ª PJ JUÍXO DE TÓXICOS 3.811,39 762,28 0,00 0,00 0,00 0,00 4.573,67 503,10 326,70 0,00 829,80 3.743,87 800,00 0,00 31/08/2012
382 446500 CAROLINA COSTA VAL RODRIGUES ANALISTA DO MP ATIVO CONTAGEM - COMARCA; CONTAGEM-PJ-05PJ 5.421,69 542,17 0,00 0,00 0,00 0,00 5.963,86 656,02 703,13 0,00 1.359,15 4.604,71 330,00 0,00 31/08/2012
383 404300 CAROLINA DOS SANTOS VIEIRA ANALISTA DO MP ATIVO BELO HORIZONTE - COMARCA; BH-08PJ JUIZADO ESPECIAL-SECRETARIA 5.598,22 335,89 0,00 0,00 0,00 0,00 5.934,11 652,75 695,84 0,00 1.348,59 4.585,52 800,00 0,00 31/08/2012
384 426600 CAROLINA GUEDES PEREIRA ANALISTA DO MP ATIVO BELO HORIZONTE - COMARCA; ASSESS JUR DO CONS SUPERIOR DO MINISTERIO PUB 5.598,22 335,89 0,00 0,00 0,00 0,00 5.934,11 652,75 695,84 0,00 1.348,59 4.585,52 330,00 0,00 31/08/2012
385 382200 CAROLINA MENDES CHAVES LIN ANALISTA DO MP ATIVO BELO HORIZONTE - COMARCA; SUPERINTENDENCIA DE RECURSOS HUMANOS 5.085,23 305,11 0,00 0,00 0,00 0,00 5.390,34 592,94 562,76 0,00 1.155,70 4.234,64 0,00 0,00 31/08/2012
386 461900 CAROLINA MURTA TEIXEIRA DIAS ANALISTA DO MP ATIVO BELO HORIZONTE - COMARCA; SUPRIN DE FORMACAO E APERFEICOAMENTO-SFA/CEAF 4.473,58 0,00 0,00 0,00 0,00 0,00 4.473,58 492,09 343,69 0,00 835,78 3.637,80 330,00 0,00 31/08/2012
387 509600 CAROLINA PINTO DE OLIVEIRA SOUZA ANALISTA DO MP ATIVO MURIAÉ - COMARCA; MURIAE-PJ-03PJ 4.332,50 0,00 0,00 0,00 1.444,17 0,00 5.776,67 568,30 905,08 0,00 1.473,38 4.303,29 565,00 833,83 31/08/2012
388 502600 CAROLINA RODRIGUES RUBEN ANALISTA DO MP ATIVO BELO HORIZONTE - COMARCA; BH-18PJ VIOLENCIA DOMESTICA-SECRETARIA 4.332,50 0,00 0,00 0,00 0,00 0,00 4.332,50 476,58 315,43 0,00 792,01 3.540,49 330,00 0,00 31/08/2012
389 517600 CAROLINE ALVES DE OLIVEIRA MULLER ANALISTA DO MP ATIVO ERVÁLIA - COMARCA; ERVALIA-PJ-SECRETARIA 4.769,54 0,00 0,00 0,00 0,00 0,00 4.769,54 524,65 410,81 0,00 935,46 3.834,08 565,00 0,00 31/08/2012
390 373200 CAROLINE ANTUNES RIBEIRO OFICIAL DO MP ATIVO JACUI - COMARCA; JACUI-PJ-UNPJ 4.332,50 259,95 0,00 0,00 0,00 0,00 4.592,45 690,36 779,51 0,00 1.469,87 3.122,58 2.401,98 1.821,29 31/08/2012
391 497800 CAROLINE BATISTA MARTINS OFICIAL DO MP ATIVO RIBEIRÃO DAS NEVES - COMARCA; RIBEIRAO DAS NEVES-PJ-04PJ 3.095,99 0,00 0,00 0,00 0,00 0,00 3.095,99 411,65 237,84 0,00 649,49 2.446,50 330,00 826,74 31/08/2012
392 499400 CAROLINE MARQUES DE LOURDES MARZULLO OFICIAL DO MP ATIVO JUIZ DE FORA - COMARCA; JUIZ DE FORA-PJ-20PJ 2.812,27 0,00 0,00 0,00 0,00 0,00 2.812,27 309,35 68,64 0,00 377,99 2.434,28 330,00 0,00 31/08/2012
393 268800 CASSIA BEATRIZ TEIXEIRA OFICIAL DO MP ATIVO BELO HORIZONTE - COMARCA; COMB CRIMES PRAT POR AG POL MUN-SECRETARIA 5.085,23 508,52 0,00 0,00 0,00 0,00 5.593,75 615,31 612,54 0,00 1.227,85 4.365,90 330,00 0,00 31/08/2012
394 500000 CASSIA DE OLIVEIRA COSTA VIANA ANALISTA DO MP ATIVO SETE LAGOAS - COMARCA; SETE LAGOAS-PJ-01PJ 4.769,54 0,00 0,00 0,00 0,00 0,00 4.769,54 524,65 410,81 0,00 935,46 3.834,08 330,00 0,00 31/08/2012
395 368800 CASSIA LUISA BATISTA MENDONCA WEBER OFICIAL DO MP ATIVO BELO HORIZONTE - COMARCA; PROCON-MG-SEC DE EDUCACAO PARA O CONSUMO 3.691,17 369,12 0,00 0,00 0,00 0,00 4.060,29 446,63 260,92 0,00 707,55 3.352,74 565,00 0,00 31/08/2012
396 121000 CASSIO HENRIQUE AFONSO DA SILVA COORDENADOR/OFICIAL ATIVO BELO HORIZONTE - COMARCA; DIVISAO DE ATENDIMENTO E CONSULTA JURIDICA 8.361,90 6.124,52 0,00 0,00 0,00 0,00 14.486,42 1.379,71 2.757,31 0,00 4.137,02 10.349,40 800,00 0,00 31/08/2012
397 121100 CASSIO MOREIRA DE MIRANDA AGENTE DO MP ATIVO BELO HORIZONTE - COMARCA; PROCON-MG-SECRETARIA DE FISCALIZACOES 2.998,37 2.098,86 0,00 0,00 0,00 0,00 5.097,23 560,70 61,01 0,00 621,71 4.475,52 330,00 0,00 31/08/2012
398 512000 CATARINA NATALINO CALIXTO OFICIAL DO MP ATIVO BELO HORIZONTE - COMARCA; EXTINTA - DIVISÃO DE COMPRAS 2.554,55 0,00 0,00 0,00 851,52 0,00 3.406,07 281,00 161,96 0,00 442,96 2.963,11 330,00 0,00 31/08/2012
399 71800 CATIA EFIGENIA CARNEIRO DE FREITAS OFICIAL DO MP ATIVO BELO HORIZONTE - COMARCA; ASSESSORIA JURIDICO-ADMINISTRATIVA 18.757,35 13.130,16 0,00 0,00 0,00 0,00 31.887,51 2.652,94 5.101,00 7.769,89 15.523,83 16.363,68 1.937,86 147,38 31/08/2012
400 261300 CECILIO ANTONIO CAMPOS DOS REIS ANALISTA DO MP ATIVO BELO HORIZONTE - COMARCA; CENTRAL DE APOIO TECNICO-SETOR CONTABIL 8.361,90 1.672,38 0,00 0,00 0,00 0,00 10.034,28 1.103,77 1.699,36 0,00 2.803,13 7.231,15 330,00 0,00 31/08/2012
401 386400 CEFAS AMORELI DE FIGUEIREDO OFICIAL DO MP ATIVO CABO VERDE - COMARCA; CABO VERDE-PJ-SECRETARIA 3.300,91 198,05 0,00 0,00 0,00 0,00 3.498,96 384,89 160,31 0,00 545,20 2.953,76 330,00 0,00 31/08/2012
402 149000 CELIA MAGALHAES CLAROS SOSSI OFICIAL DO MP ATIVO GOVERNADOR VALADARES - COMARCA; GOVERNADOR VALADARES-PJ-01PJ 7.595,56 3.038,23 0,00 0,00 0,00 0,00 10.633,79 1.169,72 1.846,09 0,00 3.015,81 7.617,98 330,00 0,00 31/08/2012
403 113100 CELIA MARIA ALVES PINTO OFICIAL DO MP ATIVO BELO HORIZONTE - COMARCA; PROCON-MG-SEC DE EDUCACAO PARA O CONSUMO 5.085,23 3.559,66 0,00 0,00 0,00 0,00 8.644,89 1.175,59 1.859,16 0,00 3.034,75 5.610,14 330,00 2.042,31 31/08/2012
404 421000 CELINA BENEDITA DE SOUZA ALMEIDA OFICIAL DO MP ATIVO CAMBUÍ - COMARCA; CAMBUI-PJ-01PJ 3.574,80 1.429,92 0,00 0,00 0,00 0,00 5.004,72 550,52 468,38 0,00 1.018,90 3.985,82 330,00 0,00 31/08/2012
405 252900 CELIO DE MELO CASTOR ANALISTA DO MP ATIVO BELO HORIZONTE - COMARCA; BH-20PJ ORD ECON TRIBUTARIA-SECRETARIA 8.361,90 836,19 0,00 0,00 0,00 0,00 9.198,09 1.011,79 1.449,45 0,00 2.461,24 6.736,85 330,00 0,00 31/08/2012
406 395700 CELIO FERREIRA LIMA OFICIAL DO MP ATIVO CONTAGEM - COMARCA; CONTAGEM-PJ-07PJ 3.300,91 198,05 0,00 0,00 0,00 0,00 3.498,96 384,89 135,63 0,00 520,52 2.978,44 565,00 0,00 31/08/2012
407 281300 CELMA REGINA PEREIRA SANTOS ANALISTA DO MP ATIVO BELO HORIZONTE - COMARCA; DIVISAO DE ACERVOS BIBLIOGRAFICOS 8.361,90 836,19 0,00 0,00 0,00 0,00 9.198,09 1.011,79 1.494,70 0,00 2.506,49 6.691,60 330,00 0,00 31/08/2012
408 367000 CESAR NARVAES DE AVELAR OFICIAL DO MP ATIVO BELO HORIZONTE - COMARCA; DIVISAO DE MEMORIA INSTITUCIONAL 4.473,58 447,36 0,00 0,00 0,00 0,00 4.920,94 541,30 447,87 0,00 989,17 3.931,77 330,00 0,00 31/08/2012
409 226500 CESAR SILVEIRA BARROUIN OFICIAL DO MP ATIVO BELO HORIZONTE - COMARCA; DIRETORIA DE ADMINISTRACAO FINANCEIRA 5.421,69 1.084,34 0,00 0,00 0,00 0,00 6.506,03 715,66 835,82 0,00 1.551,48 4.954,55 330,00 0,00 31/08/2012
410 121400 CEZAR MORENO CONCEICAO TAVARES OFICIAL DO MP ATIVO BELO HORIZONTE - COMARCA; BH-15PJ M AMB 16PJ HAB URB-SECRETARIA 7.356,10 3.678,05 0,00 0,00 0,00 0,00 11.034,15 1.213,76 1.944,08 0,00 3.157,84 7.876,31 330,00 0,00 31/08/2012
411 243800 CHARLES MARTINS MUNIZ OFICIAL DO MP ATIVO BELO HORIZONTE - COMARCA; GAECO - SECRETARIA 4.924,85 984,97 0,00 0,00 0,00 0,00 5.909,82 650,08 689,90 0,00 1.339,98 4.569,84 330,00 0,00 31/08/2012
412 193500 CHARLIN CESAR KOURLY OFICIAL DO MP ATIVO ITUIUTABA - COMARCA; ITUIUTABA-PJ-SECRETARIA 7.124,13 1.424,83 0,00 0,00 0,00 0,00 8.548,96 940,39 1.335,83 0,00 2.276,22 6.272,74 330,00 0,00 31/08/2012
413 385500 CHILLEN PEIXOTO DE MOURA OFICIAL DO MP ATIVO RIBEIRÃO DAS NEVES - COMARCA; RIBEIRAO DAS NEVES-PJ-SEC CIVEL 3.300,91 198,05 0,00 0,00 0,00 0,00 3.498,96 384,89 160,31 0,00 545,20 2.953,76 330,00 0,00 31/08/2012
414 370600 CHRISTIAN KARINE FELIX PRATES ASSESSOR ATIVO BELO HORIZONTE - COMARCA; PROCURADOR-GERAL DE JUSTICA- GABINETE 0,00 0,00 3.519,31 0,00 0,00 0,00 3.519,31 423,42 157,58 0,00 581,00 2.938,31 565,00 0,00 31/08/2012
415 435800 CHRISTIANA BAHIA ANDRADE PINA ANALISTA DO MP ATIVO BELO HORIZONTE - COMARCA; CAO-ORDEM ECONOMICA E TRIBUTARIA 5.421,69 325,30 0,00 0,00 0,00 0,00 5.746,99 667,95 759,48 0,00 1.427,43 4.319,56 800,00 433,73 31/08/2012
416 516800 CHRISTIANE FERREIRA DO NASCIMENTO ANALISTA DO MP ATIVO ESTRELA DO SUL - COMARCA; ESTRELA DO SUL-PJ-UNPJ 3.935,44 0,00 0,00 0,00 0,00 0,00 3.935,44 432,90 235,92 0,00 668,82 3.266,62 330,00 0,00 31/08/2012
417 176000 CHRISTIANE JUNQUEIRA PULITI ANDRADE DE BARROS ASSESSOR ATIVO BELO HORIZONTE - COMARCA; CENTRO DE ESTUDOS E APERFEICOAMENTO FUNCIONAL 0,00 4.602,73 9.205,45 0,00 0,00 0,00 13.808,18 1.518,90 2.577,77 0,00 4.096,67 9.711,51 330,00 0,00 31/08/2012
418 319200 CHRISTIANE MARIA DE ASSIS RUSSO OFICIAL DO MP ATIVO BELO HORIZONTE - COMARCA; CAO-ORDEM ECONOMICA E TRIBUTARIA-SECRETARIA 4.619,20 461,92 0,00 0,00 1.693,71 0,00 6.774,83 587,67 1.016,80 0,00 1.604,47 5.170,36 565,00 261,30 31/08/2012
419 510300 CHRISTIANE MARY DE CARVALHO FERREIRA ANALISTA DO MP ATIVO BELO HORIZONTE - COMARCA; DIRETORIA DE SISTEMAS DE INFORMACAO 3.935,44 0,00 0,00 0,00 1.311,81 0,00 5.247,25 432,90 567,42 0,00 1.000,32 4.246,93 565,00 0,00 31/08/2012
420 424900 CHRISTIANE PEREIRA TURNER DE ARAUJO OFICIAL DO MP ATIVO BELO HORIZONTE - COMARCA; CAO-PATRIMONIO PUBLICO 3.300,91 198,05 0,00 0,00 0,00 0,00 3.498,96 384,89 160,31 0,00 545,20 2.953,76 330,00 0,00 31/08/2012
421 513700 CHRISTIANE VIEIRA SOARES PEDERSOLI ANALISTA DO MP ATIVO BELO HORIZONTE - COMARCA; EXTINTA - SECRETARIA ADMINISTRATIVA 4.769,54 0,00 0,00 0,00 0,00 0,00 4.769,54 524,65 410,81 0,00 935,46 3.834,08 330,00 0,00 31/08/2012
422 412300 CHRYSTIAN MACHADO RIBEIRO ANALISTA DO MP ATIVO VARGINHA - COMARCA; VARGINHA-PJ-04PJ 5.598,22 335,89 0,00 0,00 0,00 0,00 5.934,11 652,75 695,84 0,00 1.348,59 4.585,52 330,00 0,00 31/08/2012
423 513800 CHRYSTIANE DO NASCIMENTO DE MAGALHAES OFICIAL DO MP ATIVO UBERLÂNDIA - COMARCA; UBERLANDIA-PJ-10PJ 2.554,55 0,00 0,00 0,00 0,00 0,00 2.554,55 281,00 47,74 0,00 328,74 2.225,81 565,00 0,00 31/08/2012
424 497900 CIBELE DE FREITAS SANCHES DIAS ANALISTA DO MP ATIVO SABARÁ - COMARCA; SABARA-PJ-03PJ 4.332,50 0,00 0,00 0,00 0,00 0,00 4.332,50 476,58 315,43 0,00 792,01 3.540,49 330,00 0,00 31/08/2012
425 500900 CIBELLE SILVA PRADO ALVARENGA ANALISTA DO MP ATIVO ITANHANDU - COMARCA; ITANHANDU-PJ-UNPJ 4.332,50 0,00 0,00 0,00 0,00 0,00 4.332,50 476,58 315,43 0,00 792,01 3.540,49 330,00 0,00 31/08/2012
426 296400 CINTIA APARECIDA MOREIRA NAVES E RODRIGUES ANALISTA DO MP ATIVO CAMPO BELO - COMARCA; CAMPO BELO-PJ-04PJ 7.595,56 759,56 0,00 0,00 0,00 0,00 8.355,12 919,06 1.288,39 0,00 2.207,45 6.147,67 330,00 0,00 31/08/2012
427 407900 CINTIA NETO COMELLI ANALISTA DO MP ATIVO BELO HORIZONTE - COMARCA; CENTRAL DE APOIO TECNICO-SETOR CONTABIL 5.085,23 305,11 0,00 0,00 0,00 0,00 5.390,34 592,94 562,76 0,00 1.155,70 4.234,64 330,00 0,00 31/08/2012
428 304700 CINTIA QUEIROZ OFICIAL DO MP ATIVO BELO HORIZONTE - COMARCA; BH-17PJ PATRIMONIO PUBLICO 4.924,85 492,49 0,00 0,00 0,00 0,00 5.417,34 595,91 569,36 0,00 1.165,27 4.252,07 330,00 0,00 31/08/2012
429 286100 CIRO CANGUSSU CORDEIRO OFICIAL DO MP ATIVO IPATINGA - COMARCA; IPATINGA-PJ-09PJ 4.195,87 419,59 0,00 0,00 0,00 0,00 4.615,46 507,70 373,10 0,00 880,80 3.734,66 330,00 0,00 31/08/2012
430 412500 CLARICE GOMES MAROTTA ANALISTA DO MP ATIVO BELO HORIZONTE - COMARCA; ASSESS TECNICO-JUR JUNTO AS PROC. DE JUST 5.598,22 1.119,64 0,00 0,00 0,00 0,00 6.717,86 738,96 887,67 0,00 1.626,63 5.091,23 330,00 0,00 31/08/2012
431 308100 CLARISSA DUARTE MARTINS COORDENADOR/ANALISTA ATIVO BELO HORIZONTE - COMARCA; ASSESSORIA JURIDICO-ADMINISTRATIVA 0,00 1.193,16 11.931,59 0,00 0,00 0,00 13.124,75 919,06 2.600,03 0,00 3.519,09 9.605,66 330,00 0,00 31/08/2012
432 497100 CLARISSA ROCHA GUIDI ANALISTA DO MP ATIVO BELO HORIZONTE - COMARCA; EXTINTA - JUIZO DE FAMILIA-02 PJ-02 VARA 3.935,44 0,00 0,00 0,00 0,00 0,00 3.935,44 432,90 235,92 0,00 668,82 3.266,62 330,00 0,00 31/08/2012
433 463700 CLAUDIA ADRIANA FERRAO DIAS ANALISTA DO MP ATIVO SETE LAGOAS - COMARCA; SETE LAGOAS-PJ-06PJ 4.063,61 0,00 0,00 0,00 0,00 0,00 4.063,61 496,80 352,26 0,00 849,06 3.214,55 330,00 452,79 31/08/2012
434 415400 CLAUDIA ALMEIDA DE VASCONCELLOS BARROS ASSESSOR/OFICIAL ATIVO BELO HORIZONTE - COMARCA; DIRET DE PESSOAL DO MINISTERIO PUBLICO - DPMP 0,00 427,45 7.124,13 0,00 0,00 0,00 7.551,58 416,82 1.205,53 0,00 1.622,35 5.929,23 330,00 0,00 31/08/2012
435 389600 CLAUDIA ALVES PERDOMO ASSESSOR ATIVO BELO HORIZONTE - COMARCA; PROCON-MG-GAB DO COORDENADOR DO PROCON-MG 0,00 0,00 7.124,13 0,00 0,00 0,00 7.124,13 430,78 1.084,14 0,00 1.514,92 5.609,21 330,00 0,00 31/08/2012
436 207000 CLAUDIA APARECIDA VILELA MACHADO ANALISTA DO MP ATIVO BELO HORIZONTE - COMARCA; CENTRAL DE APOIO TECNICO-SETOR CONTABIL 9.814,62 2.944,39 0,00 0,00 0,00 0,00 12.759,01 1.403,49 2.230,48 0,00 3.633,97 9.125,04 565,00 0,00 31/08/2012
437 365700 CLAUDIA BREGUEZ CUNHA ANALISTA DO MP ATIVO VARGINHA - COMARCA; VARGINHA-PJ-07PJ 7.124,13 712,41 0,00 0,00 0,00 0,00 7.836,54 1.301,81 2.139,99 0,00 3.441,80 4.394,74 330,00 3.998,07 31/08/2012
438 430500 CLAUDIA CECILIA SANTANA VENCESLAU ASSESSOR/OFICIAL ATIVO BELO HORIZONTE - COMARCA; DIRET DE DESENV DE RECURSOS HUMANOS-DDRH 0,00 427,45 7.124,13 0,00 0,00 0,00 7.551,58 416,82 1.205,53 0,00 1.622,35 5.929,23 1.645,27 120,57 31/08/2012
439 112400 CLAUDIA CRISTINA FIUZA DE AVELAR AGENTE DO MP ATIVO BELO HORIZONTE - COMARCA; SERVICO MEDICO-DEPTO PERIC MEDICA SAUDE OCUP 4.924,85 1.969,94 0,00 0,00 0,00 0,00 6.894,79 758,43 930,97 0,00 1.689,40 5.205,39 330,00 0,00 31/08/2012
440 149400 CLAUDIA DINIZ OFICIAL DO MP ATIVO BELO HORIZONTE - COMARCA; BH-09PJ AUDITORIA MILITAR-SECRETARIA 9.205,45 4.602,73 0,00 0,00 0,00 0,00 13.808,18 1.518,90 2.442,01 0,00 3.960,91 9.847,27 330,00 0,00 31/08/2012
441 480400 CLAUDIA GOULART DE SOUZA OFICIAL DO MP ATIVO PASSOS - COMARCA; PASSOS-PJ-06PJ 2.903,86 0,00 0,00 0,00 0,00 0,00 2.903,86 319,42 80,87 0,00 400,29 2.503,57 330,00 0,00 31/08/2012
442 519800 CLAUDIA HELENA CORREA DE ALMEIDA ANALISTA DO MP ATIVO BELO HORIZONTE - COMARCA; BH-12PJ JUIZO CRIMINAL-GAB 090PJ 4.332,50 0,00 0,00 0,00 0,00 0,00 4.332,50 476,58 315,43 0,00 792,01 3.540,49 330,00 0,00 31/08/2012
443 422100 CLAUDIA IACOMINI CABRAL ANALISTA DO MP ATIVO BELO HORIZONTE - COMARCA; CENT DE APOIO TEC-SETOR DEF,IDOSO E INFANC 5.598,22 2.239,29 0,00 0,00 0,00 0,00 7.837,51 862,13 1.161,70 0,00 2.023,83 5.813,68 330,00 0,00 31/08/2012
444 258200 CLAUDIA LAGE MICHALAROS ANALISTA DO MP ATIVO BELO HORIZONTE - COMARCA; CENTRAL DE APOIO TECN-SETOR DE MEIO AMBIENTE 8.634,11 4.317,05 0,00 0,00 0,00 0,00 12.951,16 1.424,63 2.413,27 0,00 3.837,90 9.113,26 330,00 0,00 31/08/2012
445 284600 CLAUDIA LENI DE ABREU OFICIAL DO MP ATIVO CONTAGEM - COMARCA; CONTAGEM-PJ-22PJ 4.195,87 839,17 0,00 0,00 0,00 0,00 5.035,04 553,85 475,80 0,00 1.029,65 4.005,39 2.344,02 184,62 31/08/2012
446 433600 CLAUDIA LUIZA SANTIAGO FELICIO ANALISTA DO MP ATIVO BELO HORIZONTE - COMARCA; CAO-SAUDE-TECNICO JURIDICO 5.598,22 335,89 0,00 0,00 0,00 0,00 5.934,11 674,71 716,59 0,00 1.391,30 4.542,81 800,00 261,97 31/08/2012
447 317000 CLAUDIA MACHADO ALVES OFICIAL DO MP ATIVO BELO HORIZONTE - COMARCA; SEC ESPECIAL DE PLANEJAMENTO ESTRATEGICO 3.811,39 381,14 0,00 0,00 0,00 0,00 4.192,53 461,18 213,35 0,00 674,53 3.518,00 330,00 0,00 31/08/2012
448 155300 CLAUDIA MACIEL MIRANDA OFICIAL DO MP ATIVO CONGONHAS - COMARCA; CONGONHAS-PJ-SECRETARIA 7.356,10 2.206,83 0,00 0,00 0,00 0,00 9.562,93 1.051,92 1.493,49 0,00 2.545,41 7.017,52 800,00 0,00 31/08/2012
449 242200 CLAUDIA MICHELLE DIAS MUNIZ BALEEIRO OFICIAL DO MP ATIVO MONTE AZUL - COMARCA; MONTE AZUL-PJ-SECRETARIA 5.250,75 1.575,23 0,00 0,00 0,00 0,00 6.825,98 750,86 823,62 0,00 1.574,48 5.251,50 681,73 0,00 31/08/2012
450 418400 CLAUDIA REGINA MARTINS BONIFACIO OFICIAL DO MP ATIVO CAPINÓPOLIS - COMARCA; CAPINOPOLIS-PJ-UNPJ 2.998,37 179,90 0,00 0,00 0,00 0,00 3.178,27 349,61 117,50 0,00 467,11 2.711,16 565,00 0,00 31/08/2012
451 240501 CLAUDIA RENATA SOARES ALVES ANALISTA DO MP ATIVO CONTAGEM - COMARCA; CONTAGEM-PJ-20PJ 5.421,69 1.084,34 0,00 0,00 0,00 0,00 6.506,03 715,66 790,57 0,00 1.506,23 4.999,80 330,00 0,00 31/08/2012
452 498300 CLAUDIA SOUTO FARIAS BRAUN OFICIAL DO MP ATIVO TEÓFILO OTONI - COMARCA; TEOFILO OTONI-PJ-02PJ 2.554,55 0,00 0,00 0,00 0,00 0,00 2.554,55 293,05 30,36 0,00 323,41 2.231,14 800,00 109,50 31/08/2012
453 206500 CLAUDIA VALERIA FONSECA ANDRADE ANALISTA DO MP ATIVO BELO HORIZONTE - COMARCA; BH-23PJ INF-FISC MED SOC FEC 9.814,62 2.944,38 0,00 0,00 0,00 0,00 12.759,00 1.403,49 2.320,98 0,00 3.724,47 9.034,53 330,00 0,00 31/08/2012
454 277500 CLAUDIO ANTONIO BORGES ALVARES ASSESSOR/OFICIAL ATIVO BELO HORIZONTE - COMARCA; COORD-GERAL DAS PJS POR BACIA HIDRO. DE MG 0,00 559,82 5.598,22 0,00 0,00 0,00 6.158,04 615,31 767,72 0,00 1.383,03 4.775,01 330,00 0,00 31/08/2012
455 444800 CLAUDIO ARESIO DO CARMO ANALISTA DO MP ATIVO SETE LAGOAS - COMARCA; SETE LAGOAS-PJ-09PJ 5.421,69 1.084,34 0,00 0,00 0,00 0,00 6.506,03 807,68 1.040,57 0,00 1.848,25 4.657,78 330,00 836,55 31/08/2012
456 353500 CLAUDIO HENRIQUE PEDRO DA ROCHA OFICIAL DO MP ATIVO BELO HORIZONTE - COMARCA; DIVISAO DE ATENDIMENTO E CONSULTA JURIDICA 3.691,17 369,12 0,00 0,00 0,00 0,00 4.060,29 446,63 186,87 0,00 633,50 3.426,79 330,00 0,00 31/08/2012
457 265800 CLAUDIO KUPIDLOWSKY FERNANDES OFICIAL DO MP ATIVO BELO HORIZONTE - COMARCA; EXTINTA - SECRETARIA ADMINISTRATIVA 5.085,23 1.017,05 0,00 0,00 0,00 0,00 6.102,28 671,25 312,91 0,00 984,16 5.118,12 565,00 0,00 31/08/2012
458 193600 CLAUDIO LEITE FONTES OFICIAL DO MP ATIVO ITUIUTABA - COMARCA; ITUIUTABA-PJ-02PJ 4.332,50 1.299,75 0,00 0,00 0,00 0,00 5.632,25 619,55 450,91 0,00 1.070,46 4.561,79 565,00 0,00 31/08/2012
459 329400 CLAUDIO MARCIO BERNARDES OFICIAL DO MP ATIVO ITAÚNA - COMARCA; ITAUNA-PJ-04PJ 4.619,20 1.385,76 0,00 0,00 0,00 0,00 6.004,96 660,55 713,18 0,00 1.373,73 4.631,23 330,00 0,00 31/08/2012
460 270200 CLAUDIO RABELO ALVES OFICIAL DO MP ATIVO FORMIGA - COMARCA; FORMIGA-PJ-SECRETARIA 5.085,23 1.017,05 0,00 0,00 0,00 0,00 6.102,28 671,25 555,99 0,00 1.227,24 4.875,04 330,00 0,00 31/08/2012
461 264700 CLAUDIO ROBERTO KFURI DE ARAUJO ANALISTA DO MP ATIVO BELO HORIZONTE - COMARCA; CENTRAL DE APOIO TECNICO-SETOR DE INFORMATICA 8.361,90 836,19 0,00 0,00 0,00 0,00 9.198,09 1.011,79 1.404,19 0,00 2.415,98 6.782,11 565,00 0,00 31/08/2012
462 188600 CLAUDIO SALES OFICIAL DO MP ATIVO NEPOMUCENO - COMARCA; NEPOMUCENO-PJ-SECRETARIA 6.471,28 1.294,26 0,00 0,00 0,00 0,00 7.765,54 922,06 1.035,55 0,00 1.957,61 5.807,93 330,00 616,81 31/08/2012
463 160700 CLAUDIO VICENTE HESS COORDENADOR ATIVO BELO HORIZONTE - COMARCA; DIRETORIA DE SUPORTE E MANUTENCAO 0,00 2.761,64 9.205,45 0,00 0,00 0,00 11.967,09 430,78 2.280,19 0,00 2.710,97 9.256,12 330,00 0,00 31/08/2012
464 312900 CLAUDIO VIEIRA FIRPE ASSESSOR/OFICIAL ATIVO BELO HORIZONTE - COMARCA; DIRETORIA DE RELACOES PUBLICAS E CERIMONIAL 0,00 559,82 5.598,22 0,00 0,00 0,00 6.158,04 541,30 788,07 0,00 1.329,37 4.828,67 330,00 0,00 31/08/2012
465 491000 CLAYDE ERIKA ROCHA PEREIRA E SILVA ANALISTA DO MP ATIVO BELO HORIZONTE - COMARCA; DIRETORIA DE SISTEMAS DE INFORMACAO 4.924,85 0,00 0,00 0,00 0,00 0,00 4.924,85 573,05 518,52 0,00 1.091,57 3.833,28 330,00 284,74 31/08/2012
466 459200 CLEIA ZILLE PEREIRA ANALISTA DO MP ATIVO BELO HORIZONTE - COMARCA; ASSESS TECNICO-JUR JUNTO AS PROC. DE JUST 4.924,85 0,00 0,00 0,00 1.641,62 0,00 6.566,47 541,73 900,27 0,00 1.442,00 5.124,47 800,00 0,00 31/08/2012
467 461300 CLEIDE ALVES DA SILVA OFICIAL DO MP ATIVO BOA ESPERANÇA - COMARCA; BOA ESPERANCA-PJ-01PJ 3.196,81 0,00 0,00 0,00 1.065,60 0,00 4.262,41 351,65 327,77 0,00 679,42 3.582,99 330,00 0,00 31/08/2012
468 481800 CLEIDE CARDOSO DA SILVA ANALISTA DO MP ATIVO GOVERNADOR VALADARES - COMARCA; GOVERNADOR VALADARES-PJ-15PJ 4.924,85 0,00 0,00 0,00 0,00 0,00 4.924,85 541,73 448,83 0,00 990,56 3.934,29 565,00 0,00 31/08/2012
469 347600 CLEIDIMAR DE OLIVEIRA SILVA OFICIAL DO MP ATIVO JOÃO PINHEIRO - COMARCA; JOAO PINHEIRO-PJ-02PJ 3.691,17 738,23 0,00 0,00 0,00 0,00 4.429,40 487,23 186,73 0,00 673,96 3.755,44 330,00 0,00 31/08/2012
470 396500 CLEIDISON BATISTA DE ANDRADE OFICIAL DO MP ATIVO RESPLENDOR - COMARCA; RESPLENDOR-PJ-UNPJ 3.300,91 198,05 0,00 0,00 0,00 0,00 3.498,96 384,89 160,31 0,00 545,20 2.953,76 330,00 0,00 31/08/2012
471 298100 CLEONICE AUGUSTA BARROS DE OLIVEIRA ANALISTA DO MP ATIVO JUIZ DE FORA - COMARCA; JUIZ DE FORA-PJ-18PJ 8.098,20 809,82 0,00 0,00 0,00 0,00 8.908,02 979,88 1.423,71 0,00 2.403,59 6.504,43 330,00 0,00 31/08/2012
472 60200 CLERES DE ALMEIDA AGENTE DO MP ATIVO BELO HORIZONTE - COMARCA; EXTINTA - DIVISAO DE TRANSPORTES 3.935,44 2.754,80 0,00 0,00 0,00 0,00 6.690,24 912,56 1.138,17 0,00 2.050,73 4.639,51 330,00 1.605,80 31/08/2012
473 114300 CLERES PEREIRA DA SILVA JUNIOR ASSESSOR ATIVO BELO HORIZONTE - COMARCA; GAECO - SECRETARIA 0,00 1.055,79 3.519,31 0,00 0,00 0,00 4.575,10 430,78 306,27 0,00 737,05 3.838,05 330,00 0,00 31/08/2012
474 264100 CLETO HENRIQUE ANDRADE SILVA ANALISTA DO MP ATIVO BELO HORIZONTE - COMARCA; DIRETORIA DE SISTEMAS DE INFORMACAO 8.361,90 836,19 0,00 0,00 0,00 0,00 9.198,09 1.297,98 1.995,71 0,00 3.293,69 5.904,40 565,00 2.601,72 31/08/2012
475 334400 CLEUBA DE OLIVEIRA BARCELOS GONCALVES OFICIAL DO MP ATIVO DIVINÓPOLIS - COMARCA; DIVINOPOLIS-PJ-07PJ 4.619,20 461,92 0,00 0,00 0,00 0,00 5.081,12 558,92 441,82 0,00 1.000,74 4.080,38 330,00 0,00 31/08/2012
476 347500 CLEUSA CORDEIRO DA MATA PIMENTA OFICIAL DO MP ATIVO CAMPO BELO - COMARCA; CAMPO BELO-PJ-04PJ 4.473,58 2.236,79 0,00 0,00 0,00 0,00 6.710,37 738,14 795,33 0,00 1.533,47 5.176,90 330,00 0,00 31/08/2012
477 510200 CLEZIO SALES SILVA OFICIAL DO MP ATIVO BRASÓPOLIS - COMARCA; BRASOPOLIS-PJ-UNPJ 2.554,55 0,00 0,00 0,00 0,00 0,00 2.554,55 281,00 47,74 0,00 328,74 2.225,81 330,00 0,00 31/08/2012
478 323000 CLOTILDE DE PADUA VIEIRA OFICIAL DO MP ATIVO BELO HORIZONTE - COMARCA; BH-15PJ M AMB 16PJ HAB URB-SECRETARIA 3.519,31 351,93 0,00 0,00 0,00 0,00 3.871,24 425,84 223,07 0,00 648,91 3.222,33 330,00 0,00 31/08/2012
479 285200 CLOVIS ANDRE LUDTKE OFICIAL DO MP ATIVO BELO HORIZONTE - COMARCA; DIRETORIA DE MANUTENCAO PREDIAL 5.085,23 508,52 0,00 0,00 0,00 0,00 5.593,75 731,33 870,67 0,00 1.602,00 3.991,75 330,00 1.054,68 31/08/2012
480 381100 CONCEICAO APARECIDA TEIXEIRA ANALISTA DO MP ATIVO BELO HORIZONTE - COMARCA; BH-23PJ INFRACIONAL-ASS JURIDICA 5.598,22 335,89 0,00 0,00 0,00 0,00 5.934,11 652,75 695,84 0,00 1.348,59 4.585,52 330,00 0,00 31/08/2012
481 249900 CONSTANTINO CEZAR GOMES MOTA OFICIAL DO MP ATIVO MONTES CLAROS - COMARCA; COORD REG BACIA RIOS VERDE GRANDE E PARDO 4.195,87 419,59 0,00 0,00 0,00 0,00 4.615,46 507,70 373,10 0,00 880,80 3.734,66 330,00 0,00 31/08/2012
482 481000 CRISHMA ANALIA LOMBELLO ANALISTA DO MP ATIVO JUIZ DE FORA - COMARCA; JUIZ DE FORA-PJ-13PJ 4.924,85 0,00 0,00 0,00 0,00 0,00 4.924,85 541,73 403,57 0,00 945,30 3.979,55 330,00 0,00 31/08/2012
483 187500 CRISLEY PATRICK TOSTES OFICIAL DO MP ATIVO JUIZ DE FORA - COMARCA; JUIZ DE FORA-PJ-21PJ 7.356,10 1.471,22 0,00 0,00 0,00 0,00 8.827,32 971,01 1.403,96 0,00 2.374,97 6.452,35 330,00 0,00 31/08/2012
484 523900 CRISTHYANE BAZOLI COSTA GUEDES OFICIAL DO MP ATIVO BELO HORIZONTE - COMARCA; TRIBUNAL DO JURI-07 PJ-01 TRIBUNAL 2.554,55 0,00 0,00 0,00 0,00 0,00 2.554,55 281,00 47,74 0,00 328,74 2.225,81 330,00 0,00 31/08/2012
485 187000 CRISTIAN DAYVSON EVANGELISTA OFICIAL DO MP ATIVO JUIZ DE FORA - COMARCA; JUIZ DE FORA-PJ-09PJ 6.069,59 1.213,92 0,00 0,00 0,00 0,00 7.283,51 931,85 1.271,58 0,00 2.203,43 5.080,08 330,00 1.187,85 31/08/2012
486 319800 CRISTIANA GONCALVES DOS SANTOS OFICIAL DO MP ATIVO BELO HORIZONTE - COMARCA; BH-14PJ DEFESA CONSUMIDOR-SECRETARIA 4.473,58 447,36 0,00 0,00 0,00 0,00 4.920,94 541,30 447,87 0,00 989,17 3.931,77 330,00 0,00 31/08/2012
487 520600 CRISTIANA JANAINA BARBOZA JUVENCIO DOS SANTOS ANALISTA DO MP ATIVO BELO HORIZONTE - COMARCA; EXTINTA - JUIZO DE FAMILIA-02 PJ-02 VARA 4.769,54 0,00 0,00 0,00 0,00 0,00 4.769,54 524,65 410,81 0,00 935,46 3.834,08 330,00 0,00 31/08/2012
488 195600 CRISTIANA SOARES HALABI OFICIAL DO MP ATIVO UBERABA - COMARCA; UBERABA-PJ-11PJ 5.878,19 1.175,64 0,00 0,00 0,00 0,00 7.053,83 775,92 969,90 0,00 1.745,82 5.308,01 330,00 0,00 31/08/2012
489 218900 CRISTIANE ALVES BELLES OFICIAL DO MP ATIVO JUIZ DE FORA - COMARCA; JUIZ DE FORA-PJ-10PJ 4.195,87 839,17 0,00 0,00 0,00 0,00 5.035,04 553,85 345,04 0,00 898,89 4.136,15 330,00 0,00 31/08/2012
490 263600 CRISTIANE CARVALHO COUTINHO OFICIAL DO MP ATIVO BELO HORIZONTE - COMARCA; BH-23PJ INFRACIONAL-SEC EXP 5.085,23 1.017,05 0,00 0,00 0,00 0,00 6.102,28 671,25 691,75 0,00 1.363,00 4.739,28 565,00 0,00 31/08/2012
491 441700 CRISTIANE CORRADO DE ANDRADE ANALISTA DO MP ATIVO BELO HORIZONTE - COMARCA; DIRETORIA DE SISTEMAS DE INFORMACAO 5.421,69 0,00 0,00 0,00 0,00 0,00 5.421,69 596,39 570,43 0,00 1.166,82 4.254,87 565,00 0,00 31/08/2012
492 375100 CRISTIANE DAS DORES ERCIO DE LIMA OFICIAL DO MP ATIVO GOVERNADOR VALADARES - COMARCA; GOVERNADOR VALADARES-PJ-15PJ 3.574,80 214,49 0,00 0,00 0,00 0,00 3.789,29 416,82 206,66 0,00 623,48 3.165,81 330,00 0,00 31/08/2012
493 178800 CRISTIANE DE LIMA HOSKEN OFICIAL DO MP ATIVO BELO HORIZONTE - COMARCA; COORD ESTADUAL DE DEFESA DA EDUCACAO 7.124,13 1.424,83 0,00 0,00 0,00 0,00 8.548,96 940,39 1.200,06 0,00 2.140,45 6.408,51 330,00 0,00 31/08/2012
494 494000 CRISTIANE DE MELO MARQUEZ ANALISTA DO MP ATIVO UBERLÂNDIA - COMARCA; UBERLANDIA-PJ-06PJ 4.924,85 0,00 0,00 0,00 1.641,62 0,00 6.566,47 664,54 1.173,52 0,00 1.838,06 4.728,41 330,00 1.116,44 31/08/2012
495 266100 CRISTIANE DE OLIVEIRA CASTRO OFICIAL DO MP ATIVO BELO HORIZONTE - COMARCA; PROCON-MG-SECRETARIA DE FISCALIZACOES 5.250,75 1.050,15 0,00 0,00 0,00 0,00 6.300,90 693,10 785,62 0,00 1.478,72 4.822,18 565,00 0,00 31/08/2012
496 329500 CRISTIANE DOS REIS SILVA OFICIAL DO MP ATIVO ARAXÁ - COMARCA; ARAXA-PJ-04PJ 3.811,39 381,14 0,00 0,00 0,00 0,00 4.192,53 461,18 213,35 0,00 674,53 3.518,00 565,00 0,00 31/08/2012
497 301600 CRISTIANE GODINHO PIRES ANALISTA DO MP ATIVO BETIM - COMARCA; BETIM-PJ-07PJ 7.842,84 784,28 0,00 0,00 0,00 0,00 8.627,12 948,98 1.354,96 0,00 2.303,94 6.323,18 330,00 0,00 31/08/2012
498 406100 CRISTIANE GONCALVES CHAVES ANALISTA DO MP ATIVO BELO HORIZONTE - COMARCA; ASSESS TECNICO-JUR JUNTO AS PROC. DE JUST 5.598,22 559,82 0,00 0,00 0,00 0,00 6.158,04 677,38 750,65 0,00 1.428,03 4.730,01 330,00 0,00 31/08/2012
499 487600 CRISTIANE LOPES DE OLIVEIRA OFICIAL DO MP ATIVO IBIRACI - COMARCA; IBIRACI-PJ-SECRETARIA 2.903,86 0,00 0,00 0,00 0,00 0,00 2.903,86 319,42 58,71 0,00 378,13 2.525,73 330,00 0,00 31/08/2012
500 502500 CRISTIANE MACIEL DE OLIVEIRA GOMES ANALISTA DO MP ATIVO JUIZ DE FORA - COMARCA; JUIZ DE FORA-PJ-04PJ 4.769,54 0,00 0,00 0,00 0,00 0,00 4.769,54 524,65 410,81 0,00 935,46 3.834,08 3.545,68 294,77 31/08/2012
501 285500 CRISTIANE MAGALHAES LOURENCO ANALISTA DO MP ATIVO BELO HORIZONTE - COMARCA; CENTRAL DE APOIO TECNICO-SETOR CONTABIL 7.595,56 759,56 0,00 0,00 0,00 0,00 8.355,12 919,06 1.197,88 0,00 2.116,94 6.238,18 330,00 0,00 31/08/2012
502 346600 CRISTIANE NOGUEIRA ANDRADE ANALISTA DO MP ATIVO BELO HORIZONTE - COMARCA; CENTRAL DE APOIO TECNICO-SETOR CONTABIL 7.356,10 735,61 0,00 0,00 0,00 0,00 8.091,71 890,09 1.223,92 0,00 2.114,01 5.977,70 800,00 0,00 31/08/2012
503 234000 CRISTIANE OLIVEIRA TOSTES OFICIAL DO MP ATIVO JUIZ DE FORA - COMARCA; JUIZ DE FORA-PJ-19PJ 5.780,51 1.156,10 0,00 0,00 0,00 0,00 6.936,61 763,03 941,20 0,00 1.704,23 5.232,38 330,00 0,00 31/08/2012
504 445800 CRISTIANE ORZIL COSTA OFICIAL DO MP ATIVO SANTA LUZIA - COMARCA; SANTA LUZIA-PJ-05PJ 2.903,86 0,00 0,00 0,00 0,00 0,00 2.903,86 319,42 80,87 0,00 400,29 2.503,57 330,00 0,00 31/08/2012
505 215000 CRISTIANE RODRIGUES DE CARVALHO ASSESSOR ATIVO BELO HORIZONTE - COMARCA; BH-14PJ DEFESA CONSUMIDOR-SECRETARIA 0,00 703,86 3.519,31 0,00 0,00 0,00 4.223,17 430,78 301,14 0,00 731,92 3.491,25 330,00 0,00 31/08/2012
506 257700 CRISTIANE RODRIGUES PAES NUNES ANALISTA DO MP ATIVO BELO HORIZONTE - COMARCA; BH-22PJ PES COM DEF E IDOSOS-ORIENTACAO PSIC 8.361,90 836,19 0,00 0,00 0,00 0,00 9.198,09 1.185,24 1.880,62 0,00 3.065,86 6.132,23 330,00 1.576,80 31/08/2012
507 510800 CRISTIANE SANTOS FERNANDES ORNELES ANALISTA DO MP ATIVO BELO HORIZONTE - COMARCA; COORD ESTADUAL DAS PJS DE HAB. E URBANISMO 3.935,44 0,00 0,00 0,00 0,00 0,00 3.935,44 432,90 235,92 0,00 668,82 3.266,62 330,00 0,00 31/08/2012
508 477400 CRISTIANO SOARES ELEUTERIO ANALISTA DO MP ATIVO BELO HORIZONTE - COMARCA; EXTINTA - COORD DEFESA DO DIREITO DE FAMILIA 4.473,58 0,00 0,00 0,00 0,00 0,00 4.473,58 492,09 343,69 0,00 835,78 3.637,80 330,00 0,00 31/08/2012
509 449400 CRISTIANO TEIXEIRA RODRIGUES LANA ANALISTA DO MP ATIVO BELO HORIZONTE - COMARCA; ASSESS TECNICO-JUR JUNTO AS PROC. DE JUST 5.421,69 0,00 0,00 0,00 0,00 0,00 5.421,69 596,39 570,43 0,00 1.166,82 4.254,87 330,00 0,00 31/08/2012
510 239400 CRISTINA DE FATIMA CRUZ E SILVA OFICIAL DO MP ATIVO MONTE SANTO DE MINAS - COMARCA; MONTE SANTO DE MINAS-PJ-SECRETARIA 4.924,85 984,97 0,00 0,00 0,00 0,00 5.909,82 650,08 689,90 0,00 1.339,98 4.569,84 2.693,93 216,69 31/08/2012
511 356800 CRISTINA DE PINHO BARROSO OFICIAL DO MP ATIVO SABINÓPOLIS - COMARCA; SABINOPOLIS-PJ-UNPJ 3.691,17 738,23 0,00 0,00 0,00 0,00 4.429,40 530,78 424,47 0,00 955,25 3.474,15 752,40 395,91 31/08/2012
512 449100 CRISTINA KISTEMANN CHIODI ASSESSOR ATIVO BELO HORIZONTE - COMARCA; CAO-MEIO AMBIENTE-SECRETARIA 0,00 0,00 7.124,13 0,00 0,00 0,00 7.124,13 430,78 1.084,14 0,00 1.514,92 5.609,21 330,00 0,00 31/08/2012
513 348201 CRISTINA MARIA DA SILVA ANALISTA DO MP ATIVO JOÃO PINHEIRO - COMARCA; JOAO PINHEIRO-PJ-01PJ 5.250,75 0,00 0,00 0,00 0,00 0,00 5.250,75 577,58 528,59 0,00 1.106,17 4.144,58 330,00 0,00 31/08/2012
514 434900 CRISTINA MELO DE MADUREIRA ANALISTA DO MP ATIVO BELO HORIZONTE - COMARCA; CAO-CRIMINAL-SECRETARIA 5.598,22 335,89 0,00 0,00 0,00 0,00 5.934,11 757,98 929,97 0,00 1.687,95 4.246,16 565,00 956,59 31/08/2012
515 117100 CRISTINA PEDROSA GARABINI COORDENADOR/ANALISTA ATIVO BELO HORIZONTE - COMARCA; DIRET DE INFORMACAO E CONHECIMENTO-DINC/CEAF 15.658,01 10.038,31 0,00 0,00 0,00 0,00 25.696,32 2.583,57 5.074,83 1.578,70 9.237,10 16.459,22 1.937,86 147,39 31/08/2012
516 307700 CRISTINA TEIXEIRA MARQUES OFICIAL DO MP ATIVO BELO HORIZONTE - COMARCA; BH-14PJ DEFESA CONSUMIDOR-SECRETARIA 4.332,50 433,25 0,00 0,00 0,00 0,00 4.765,75 590,36 511,77 0,00 1.102,13 3.663,62 330,00 601,16 31/08/2012
517 265300 CRISTOVAO SANCHES DE MEDEIROS ANALISTA DO MP ATIVO BELO HORIZONTE - COMARCA; BH-02PJ FAMILIA-SECRETARIA 7.595,56 759,56 0,00 0,00 0,00 0,00 8.355,12 919,06 1.197,88 0,00 2.116,94 6.238,18 330,00 0,00 31/08/2012
518 349800 CROZEIR LUIZ DA SILVA OFICIAL DO MP ATIVO UNAÍ - COMARCA; UNAI-PJ-SECRETARIA 3.691,17 369,12 0,00 0,00 0,00 0,00 4.060,29 446,63 186,87 0,00 633,50 3.426,79 330,00 0,00 31/08/2012
519 490500 CYNTHIA CRISTINA DE SOUZA OLIVEIRA VALENTE ANALISTA DO MP ATIVO BELO HORIZONTE - COMARCA; BH-09PJ AUDITORIA MILITAR 4.473,58 0,00 0,00 0,00 0,00 0,00 4.473,58 516,41 405,41 0,00 921,82 3.551,76 800,00 268,06 31/08/2012
520 389800 CYNTHIA GARIGLIO DOS SANTOS OFICIAL DO MP ATIVO PERDIZES - COMARCA; PERDIZES-PJ-SECRETARIA 3.300,91 198,05 0,00 0,00 0,00 0,00 3.498,96 384,89 110,94 0,00 495,83 3.003,13 565,00 0,00 31/08/2012
521 335101 CYNTHIA GONTIJO D ASSUNCAO ANALISTA DO MP ATIVO BELO HORIZONTE - COMARCA; CAO-CRIANCAS E ADOLESCENTES 4.924,85 0,00 0,00 0,00 0,00 0,00 4.924,85 541,73 448,83 0,00 990,56 3.934,29 330,00 0,00 31/08/2012
522 154000 CYNTHIA LOPES DOS SANTOS LAGES ASSESSOR ATIVO BELO HORIZONTE - COMARCA; PROCURADOR-GERAL DE JUSTICA- GABINETE 0,00 3.682,19 9.205,45 0,00 0,00 0,00 12.887,64 1.417,64 2.352,47 0,00 3.770,11 9.117,53 330,00 0,00 31/08/2012
523 269700 CYNTIA ROCHA CAVALCANTI OFICIAL DO MP ATIVO UBERLÂNDIA - COMARCA; UBERLANDIA-PJ-06PJ 5.250,75 525,08 0,00 0,00 0,00 0,00 5.775,83 635,34 657,10 0,00 1.292,44 4.483,39 330,00 0,00 31/08/2012
524 278000 DAIRTON LOPES MARTINS FILHO COORDENADOR/ANALISTA ATIVO BELO HORIZONTE - COMARCA; DIRETORIA DE SISTEMAS DE INFORMACAO 0,00 809,82 8.098,20 0,00 0,00 0,00 8.908,02 968,56 1.941,68 0,00 2.910,24 5.997,78 330,00 1.872,23 31/08/2012
525 392700 DALIANA CHAVES SILVA OFICIAL DO MP ATIVO ITAÚNA - COMARCA; ITAUNA-PJ-SECRETARIA 3.574,80 214,49 0,00 0,00 0,00 0,00 3.789,29 416,82 206,66 0,00 623,48 3.165,81 330,00 0,00 31/08/2012
526 476700 DALTON DAUD ANALISTA DO MP ATIVO ARAGUARI - COMARCA; ARAGUARI-PJ-05PJ 4.924,85 0,00 0,00 0,00 0,00 0,00 4.924,85 541,73 360,00 0,00 901,73 4.023,12 330,00 0,00 31/08/2012
527 121900 DALVA MARIA DE LIMA ANALISTA DO MP ATIVO BELO HORIZONTE - COMARCA; EXTINTA-TUTELA DAS FUNDACOES-21 PJ- GABINETE 15.658,01 14.092,21 0,00 0,00 0,00 2.652,94 32.403,16 2.652,94 5.875,82 5.632,60 14.161,36 18.241,80 1.937,86 147,38 31/08/2012
528 249700 DALVANORA NORONHA SILVA COORDENADOR/ANALISTA ATIVO BELO HORIZONTE - COMARCA; DIRET DE FORMACAO E APERF DE SERVIDORES DO MP 9.205,45 9.941,90 0,00 0,00 0,00 1.822,68 20.970,03 1.822,68 4.508,99 0,00 6.331,67 14.638,36 330,00 0,00 31/08/2012
529 426900 DANIEL ALVES DA SILVA OFICIAL DO MP ATIVO BELO HORIZONTE - COMARCA; EXTINTA - PROTOCOLO DA PGJ 2.998,37 179,90 0,00 0,00 0,00 0,00 3.178,27 349,61 117,50 0,00 467,11 2.711,16 565,00 0,00 31/08/2012
530 122000 DANIEL ANTONIO VIEIRA OFICIAL DO MP ATIVO ENTRE-RIOS DE MINAS - COMARCA; ENTRE RIOS DE MINAS-PJ-SECRETARIA 6.069,59 3.034,80 0,00 0,00 0,00 0,00 9.104,39 1.001,48 1.290,75 0,00 2.292,23 6.812,16 330,00 0,00 31/08/2012
531 272401 DANIEL AUGUSTO DOS REIS ANALISTA DO MP ATIVO BELO HORIZONTE - COMARCA; BH-22PJ PES COM DEF E IDOSOS-ASS JURIDICA 5.598,22 335,89 0,00 0,00 0,00 0,00 5.934,11 731,09 870,15 0,00 1.601,24 4.332,87 330,00 712,18 31/08/2012
532 408100 DANIEL DE CASTRO SILVA ANALISTA DO MP ATIVO CATAGUASES - COMARCA; CATAGUASES-PJ-04PJ 5.598,22 335,89 0,00 0,00 0,00 0,00 5.934,11 652,75 695,84 0,00 1.348,59 4.585,52 330,00 0,00 31/08/2012
533 411000 DANIEL FERREIRA DA SILVA ANALISTA DO MP ATIVO MANHUAÇU - COMARCA; MANHUACU-PJ-04PJ 5.598,22 1.119,64 0,00 0,00 2.239,29 0,00 8.957,15 800,54 1.595,23 0,00 2.395,77 6.561,38 565,00 559,82 31/08/2012
534 309000 DANIEL GOMES DOS SANTOS ANALISTA DO MP ATIVO POÇOS DE CALDAS - COMARCA; POCOS DE CALDAS-PJ-03PJ 6.471,28 647,13 0,00 0,00 0,00 0,00 7.118,41 890,42 1.224,66 0,00 2.115,08 5.003,33 330,00 976,32 31/08/2012
535 453000 DANIEL GONCALVES PEREIRA ANALISTA DO MP ATIVO UNAÍ - COMARCA; UNAI-PJ-SECRETARIA 5.421,69 0,00 0,00 0,00 0,00 0,00 5.421,69 596,39 570,43 0,00 1.166,82 4.254,87 330,00 0,00 31/08/2012
536 495500 DANIEL GUIMARAES CABRAL OFICIAL DO MP ATIVO LAGOA DA PRATA - COMARCA; LAGOA DA PRATA-PJ-02PJ 2.637,71 0,00 0,00 0,00 0,00 0,00 2.637,71 299,91 61,33 0,00 361,24 2.276,47 330,00 116,42 31/08/2012
537 442900 DANIEL GUIMARAES GONCALVES ANALISTA DO MP ATIVO UBERLÂNDIA - COMARCA; UBERLANDIA-PJ-03PJ 5.421,69 0,00 0,00 0,00 0,00 0,00 5.421,69 596,39 570,43 0,00 1.166,82 4.254,87 330,00 0,00 31/08/2012
538 491200 DANIEL HENRIQUE SOUTO COSTA ANALISTA DO MP ATIVO CORAÇÃO DE JESUS - COMARCA; CORACAO DE JESUS-PJ-UNPJ 4.924,85 0,00 0,00 0,00 0,00 0,00 4.924,85 575,33 537,82 0,00 1.113,15 3.811,70 330,00 357,21 31/08/2012
539 430300 DANIEL MONTEIRO SILVA ANALISTA DO MP ATIVO BELO HORIZONTE - COMARCA; BH-05PJ JUÍZO DE SUCESSÕES 5.598,22 335,89 0,00 0,00 0,00 0,00 5.934,11 652,75 695,84 0,00 1.348,59 4.585,52 330,00 0,00 31/08/2012
540 464600 DANIEL PIACENTINI STIVANIN ANALISTA DO MP ATIVO ANDRADAS - COMARCA; ANDRADAS-PJ-02PJ 4.473,58 0,00 0,00 0,00 0,00 0,00 4.473,58 492,09 343,69 0,00 835,78 3.637,80 330,00 0,00 31/08/2012
541 417000 DANIEL QUEIROZ FERREIRA ANALISTA DO MP ATIVO AREADO - COMARCA; AREADO-PJ-UNPJ 5.598,22 335,89 0,00 0,00 0,00 0,00 5.934,11 786,34 1.042,92 0,00 1.829,26 4.104,85 330,00 1.395,68 31/08/2012
542 396700 DANIEL SILVA CARNEVALLI COORDENADOR/ANALISTA ATIVO BELO HORIZONTE - COMARCA; DIRETORIA DE REDES E BANCOS DE DADOS 0,00 485,89 8.098,20 0,00 0,00 0,00 8.584,09 707,71 1.409,47 0,00 2.117,18 6.466,91 330,00 0,00 31/08/2012
543 489300 DANIEL TABOZA ROCHA ANALISTA DO MP ATIVO IPATINGA - COMARCA; IPATINGA-PJ-08PJ 4.924,85 0,00 0,00 0,00 0,00 0,00 4.924,85 615,89 613,83 0,00 1.229,72 3.695,13 330,00 674,16 31/08/2012
544 414100 DANIEL TARDELI VALADAO ANALISTA DO MP ATIVO TRÊS CORACOES - COMARCA; TRES CORACOES-PJ-02PJ 5.598,22 335,89 0,00 0,00 0,00 0,00 5.934,11 652,75 695,84 0,00 1.348,59 4.585,52 330,00 0,00 31/08/2012
545 446600 DANIEL VIEIRA BUENO OFICIAL DO MP ATIVO RIO PIRACICABA - COMARCA; RIO PIRACICABA-PJ-UNPJ 3.196,81 0,00 0,00 0,00 0,00 0,00 3.196,81 351,65 119,97 0,00 471,62 2.725,19 478,48 0,00 31/08/2012
546 253200 DANIELA BATISTA LIMA BARBOSA ASSESSOR ATIVO BELO HORIZONTE - COMARCA; CENTRAL DE APOIO TECN-SETOR DE MEIO AMBIENTE 0,00 351,93 3.519,31 0,00 0,00 0,00 3.871,24 430,78 221,95 0,00 652,73 3.218,51 330,00 0,00 31/08/2012
547 505800 DANIELA BORGES DE MATTOS RESENDE ANALISTA DO MP ATIVO JUIZ DE FORA - COMARCA; JUIZ DE FORA-PJ-20PJ 4.332,50 0,00 0,00 0,00 0,00 0,00 4.332,50 476,58 315,43 0,00 792,01 3.540,49 330,00 0,00 31/08/2012
548 478000 DANIELA CARVALHO SOARES ANALISTA DO MP ATIVO SÃO JOÃO DEL REI - COMARCA; SAO JOAO DEL REI-PJ-06PJ 4.924,85 0,00 0,00 0,00 0,00 0,00 4.924,85 541,73 448,83 0,00 990,56 3.934,29 330,00 0,00 31/08/2012
549 518900 DANIELA CERUTTI AGUIAR ANALISTA DO MP ATIVO BELO HORIZONTE - COMARCA; ASSESS TECNICO-JUR JUNTO AS PROC. DE JUST 4.332,50 0,00 0,00 0,00 1.444,17 0,00 5.776,67 476,58 700,99 0,00 1.177,57 4.599,10 330,00 0,00 31/08/2012
550 275900 DANIELA CHAGAS SODRE ANALISTA DO MP ATIVO BELO HORIZONTE - COMARCA; CENTRAL DE APOIO TECNICO-SETOR CONTABIL 7.595,56 759,56 0,00 0,00 0,00 0,00 8.355,12 919,06 1.288,39 0,00 2.207,45 6.147,67 330,00 0,00 31/08/2012
551 234301 DANIELA CRUZ SOARES ANALISTA DO MP ATIVO BELO HORIZONTE - COMARCA; CAO-ORDEM ECONOMICA E TRIBUTARIA-SECRETARIA 8.361,90 836,19 0,00 0,00 0,00 0,00 9.198,09 1.011,79 1.494,70 0,00 2.506,49 6.691,60 330,00 0,00 31/08/2012
552 301000 DANIELA DE ALMEIDA E OLIVEIRA ANALISTA DO MP ATIVO BELO HORIZONTE - COMARCA; DIRETORIA DE REDES E BANCOS DE DADOS 7.595,56 759,56 0,00 0,00 0,00 0,00 8.355,12 919,06 1.288,39 0,00 2.207,45 6.147,67 330,00 0,00 31/08/2012
553 296000 DANIELA DE AZEVEDO SILVA ANALISTA DO MP ATIVO ITAJUBA - COMARCA; ITAJUBA-PJ-03PJ 7.124,13 1.424,83 0,00 0,00 0,00 0,00 8.548,96 940,39 1.335,83 0,00 2.276,22 6.272,74 330,00 0,00 31/08/2012
554 453500 DANIELA DE CASTRO SOUSA BARBOSA ANALISTA DO MP ATIVO BELO HORIZONTE - COMARCA; BH-08PJ JUIZADO ESPECIAL-SECRETARIA 5.421,69 0,00 0,00 0,00 0,00 0,00 5.421,69 678,17 752,41 0,00 1.430,58 3.991,11 330,00 743,52 31/08/2012
555 506000 DANIELA DE OLIVEIRA CAVALIERI ANALISTA DO MP ATIVO BELO HORIZONTE - COMARCA; BH-14PJ DEFESA CONSUMIDOR-SECRETARIA 3.935,44 0,00 0,00 0,00 0,00 0,00 3.935,44 432,90 235,92 0,00 668,82 3.266,62 330,00 0,00 31/08/2012
556 482900 DANIELA DINIZ MONTEIRO NASCIMENTO ASSESSOR ATIVO BELO HORIZONTE - COMARCA; COORD-GERAL DAS PJS POR BACIA HIDRO. DE MG 0,00 0,00 5.598,22 0,00 0,00 0,00 5.598,22 430,78 664,52 0,00 1.095,30 4.502,92 565,00 0,00 31/08/2012
557 393700 DANIELA GOMES CARDOSO OFICIAL DO MP ATIVO SABARÁ - COMARCA; SABARA-PJ-02PJ 2.723,61 163,42 0,00 0,00 0,00 0,00 2.887,03 317,57 57,59 0,00 375,16 2.511,87 330,00 0,00 31/08/2012
558 356400 DANIELA LEAL FERRAZ ANALISTA DO MP ATIVO MONTES CLAROS - COMARCA; COORD REG PJ DEF EDUC DIR CRIANCA ADOL NORTE 6.899,47 689,95 0,00 0,00 0,00 0,00 7.589,42 935,03 1.323,91 0,00 2.258,94 5.330,48 3.545,68 1.205,61 31/08/2012
559 501000 DANIELA LOURENCO SANTOS DA SILVA GUIMARAES ANALISTA DO MP ATIVO BELO HORIZONTE - COMARCA; BH-12PJ JUIZO CRIMINAL 4.332,50 0,00 0,00 0,00 1.444,17 0,00 5.776,67 508,60 772,26 0,00 1.280,86 4.495,81 330,00 291,18 31/08/2012
560 195801 DANIELA MARIA DE OLIVEIRA QUEIROZ ANALISTA DO MP ATIVO ARAGUARI - COMARCA; ARAGUARI-PJ-02PJ 5.598,22 1.119,64 0,00 0,00 0,00 0,00 6.717,86 738,96 887,67 0,00 1.626,63 5.091,23 565,00 0,00 31/08/2012
561 511400 DANIELA MARIA LARA DE OLIVEIRA ANALISTA DO MP ATIVO BOA ESPERANÇA - COMARCA; BOA ESPERANCA-PJ-02PJ 4.332,50 0,00 0,00 0,00 0,00 0,00 4.332,50 476,58 241,38 0,00 717,96 3.614,54 330,00 0,00 31/08/2012
562 252101 DANIELA PAULA ALVES PENA ANALISTA DO MP ATIVO BELO HORIZONTE - COMARCA; DIRETORIA DE PRODUCAO EDITORIAL 6.069,59 1.213,92 0,00 0,00 0,00 0,00 7.283,51 801,19 1.026,11 0,00 1.827,30 5.456,21 330,00 0,00 31/08/2012
563 429600 DANIELA PIMENTA NUNES MACHADO ANALISTA DO MP ATIVO BELO HORIZONTE - COMARCA; BH-05PJ JUÍZO DE SUCESSÕES 5.598,22 335,89 0,00 0,00 0,00 0,00 5.934,11 652,75 695,84 0,00 1.348,59 4.585,52 330,00 0,00 31/08/2012
564 424300 DANIELA PORTO PINTO OFICIAL DO MP ATIVO BELO HORIZONTE - COMARCA; BH-19PJ SAUDE-ASS TECNICA 2.812,27 168,74 0,00 0,00 0,00 0,00 2.981,01 327,91 91,17 0,00 419,08 2.561,93 330,00 0,00 31/08/2012
565 462000 DANIELA SOUSA GOMES DO AMARAL ANALISTA DO MP ATIVO BETIM - COMARCA; BETIM-PJ-08PJ 4.924,85 0,00 0,00 0,00 0,00 0,00 4.924,85 541,73 448,83 0,00 990,56 3.934,29 565,00 0,00 31/08/2012
566 427000 DANIELA TEIXEIRA DINIZ ANDRADE ANALISTA DO MP ATIVO BELO HORIZONTE - COMARCA; DIVIS DE PROJETOS DE ENGENHARIA E ARQUITETURA 4.619,20 277,15 0,00 0,00 0,00 0,00 4.896,35 538,60 441,85 0,00 980,45 3.915,90 565,00 0,00 31/08/2012
567 337200 DANIELA TOLEDO SENIUK ANALISTA DO MP ATIVO BELO HORIZONTE - COMARCA; CGMP-SECRETARIA DA CORREGEDORIA-GERAL DO MP 5.878,19 587,82 0,00 0,00 0,00 0,00 6.466,01 1.014,94 1.456,46 0,00 2.471,40 3.994,61 565,00 2.760,72 31/08/2012
568 229900 DANIELA UCHOA SALOMON ANALISTA DO MP ATIVO BELO HORIZONTE - COMARCA; CAO-PATRIMONIO PUBLICO-SECRETARIA 6.267,25 1.253,45 0,00 0,00 0,00 0,00 7.520,70 896,22 1.295,00 0,00 2.191,22 5.329,48 565,00 835,64 31/08/2012
569 195500 DANIELE CHAVES FONSECA ASSESSOR/OFICIAL ATIVO BELO HORIZONTE - COMARCA; ASSESSORIA ESPECIAL DO PGJ 0,00 1.424,83 7.124,13 0,00 0,00 0,00 8.548,96 775,92 1.381,06 0,00 2.156,98 6.391,98 330,00 0,00 31/08/2012
570 323400 DANIELE MEGALE SANTINI OFICIAL DO MP ATIVO BELO HORIZONTE - COMARCA; ASSESS TECNICO-JUR JUNTO AS PROC. DE JUST 4.769,54 476,95 0,00 0,00 0,00 0,00 5.246,49 577,11 527,55 0,00 1.104,66 4.141,83 565,00 0,00 31/08/2012
571 357900 DANIELE REJANE PINTO VERSIEUX OFICIAL DO MP ATIVO PEDRO LEOPOLDO - COMARCA; PEDRO LEOPOLDO-PJ-01PJ 4.332,50 433,25 0,00 0,00 0,00 0,00 4.765,75 787,56 765,09 0,00 1.552,65 3.213,10 427,05 2.460,59 31/08/2012
572 389500 DANIELE VASCONCELOS AMORIM OFICIAL DO MP ATIVO SÃO SEBASTIÃO DO PARAÍSO - COMARCA; SAO SEBASTIAO DO PARAISO-PJ-04PJ 3.935,44 236,13 0,00 0,00 0,00 0,00 4.171,57 458,87 283,21 0,00 742,08 3.429,49 330,00 0,00 31/08/2012
573 216201 DANIELLE BELGO DE FREITAS ANALISTA DO MP ATIVO BELO HORIZONTE - COMARCA; BH-12PJ JUIZO CRIMINAL-SECRETARIA 3.935,44 0,00 0,00 0,00 0,00 0,00 3.935,44 432,90 235,92 0,00 668,82 3.266,62 330,00 0,00 31/08/2012
574 265000 DANIELLE CASTANHEIRA SCALABRINI OFICIAL DO MP ATIVO BELO HORIZONTE - COMARCA; JUNTA RECURSAL DO PROCON ESTADUAL 4.619,20 461,92 0,00 0,00 0,00 0,00 5.081,12 755,33 788,33 0,00 1.543,66 3.537,46 330,00 1.785,55 31/08/2012
575 490100 DANIELLE DE AVILA SILVA LOPES ANALISTA DO MP ATIVO BELO HORIZONTE - COMARCA; PROC. JUSTICA DIR. DIFUSOS E COLETIVOS-SEC 4.924,85 492,49 0,00 0,00 0,00 0,00 5.417,34 633,49 652,99 0,00 1.286,48 4.130,86 500,84 357,34 31/08/2012
576 379900 DANIELLE GUIMARAES CARNEIRO PERES ANALISTA DO MP ATIVO BELO HORIZONTE - COMARCA; DIRETORIA DE ORCAMENTO-DIOR/SPC 6.069,59 364,18 0,00 0,00 0,00 0,00 6.433,77 707,71 818,14 0,00 1.525,85 4.907,92 565,00 0,00 31/08/2012
577 380800 DANILLO RIBEIRO ANTUNES ANALISTA DO MP ATIVO MONTES CLAROS - COMARCA; MONTES CLAROS-PJ-SECRETARIA 6.069,59 364,18 0,00 0,00 0,00 0,00 6.433,77 707,71 818,14 0,00 1.525,85 4.907,92 330,00 0,00 31/08/2012
578 453700 DANILO BOTELHO DE CARVALHO ANALISTA DO MP ATIVO BELO HORIZONTE - COMARCA; DIRETORIA DE ADMINISTRACAO FINANCEIRA 5.421,69 0,00 0,00 0,00 0,00 0,00 5.421,69 678,17 752,41 0,00 1.430,58 3.991,11 330,00 743,52 31/08/2012
579 391200 DANILO D'AVILA MENDES ANALISTA DO MP ATIVO JANAÚBA - COMARCA; JANAUBA-PJ-01PJ 6.069,59 364,18 0,00 0,00 0,00 0,00 6.433,77 829,02 1.088,05 0,00 1.917,07 4.516,70 330,00 1.102,80 31/08/2012
580 494900 DANILO GAVIAO AVELINO DE MELLO ANALISTA DO MP ATIVO POUSO ALEGRE - COMARCA; POUSO ALEGRE-PJ-08PJ 4.473,58 0,00 0,00 0,00 0,00 0,00 4.473,58 512,27 396,20 0,00 908,47 3.565,11 414,65 236,78 31/08/2012
581 298300 DANUZA MONICA DE SOUZA DINIZ ANALISTA DO MP ATIVO DIVINÓPOLIS - COMARCA; DIVINOPOLIS-PJ-02PJ 6.267,25 626,73 0,00 0,00 0,00 0,00 6.893,98 758,34 885,52 0,00 1.643,86 5.250,12 330,00 0,00 31/08/2012
582 398700 DARCY LUIZ MILEO GREGATTI OFICIAL DO MP ATIVO TRÊS CORACOES - COMARCA; TRES CORACOES-PJ-01PJ 3.300,91 198,05 0,00 0,00 0,00 0,00 3.498,96 384,89 160,31 0,00 545,20 2.953,76 330,00 0,00 31/08/2012
583 406200 DARIANA AUGUSTA DE TOLEDO PATROCINIO ASSESSOR/OFICIAL ATIVO BELO HORIZONTE - COMARCA; EXTINTA - DIRETORIA DE CONTRATOS E CONVÊNIOS 0,00 427,45 7.124,13 0,00 0,00 0,00 7.551,58 416,82 1.205,53 0,00 1.622,35 5.929,23 330,00 0,00 31/08/2012
584 305000 DARLI LEITE DE OLIVEIRA OFICIAL DO MP ATIVO ARAÇUAÍ - COMARCA; ARACUAI-PJ-02PJ 4.195,87 419,59 0,00 0,00 0,00 0,00 4.615,46 699,17 663,36 0,00 1.362,53 3.252,93 565,00 1.740,64 31/08/2012
585 122200 DAVID RIBEIRO DOS SANTOS ANALISTA DO MP ATIVO BORDA DA MATA - COMARCA; BORDA DA MATA-PJ-UNPJ 11.040,10 7.728,07 0,00 0,00 0,00 0,00 18.768,17 2.259,16 4.270,11 0,00 6.529,27 12.238,90 330,00 1.769,68 31/08/2012
586 389400 DAWSON CANEDO MARQUES OFICIAL DO MP ATIVO GOVERNADOR VALADARES - COMARCA; GOVERNADOR VALADARES-PJ-08PJ 4.332,50 259,95 0,00 0,00 0,00 0,00 4.592,45 690,36 772,84 0,00 1.463,20 3.129,25 750,88 1.855,38 31/08/2012
587 256100 DAYSE ROSALY BATISTA COSTA OFICIAL DO MP ATIVO BELO HORIZONTE - COMARCA; PROCON-MG-SECRETARIA DE FISCALIZACOES 4.195,87 839,17 0,00 0,00 0,00 0,00 5.035,04 553,85 345,04 0,00 898,89 4.136,15 330,00 0,00 31/08/2012
588 311901 DEBORA APARECIDA DA SILVA ASSESSOR ATIVO BELO HORIZONTE - COMARCA; BH-23PJ CIVEL-SETOR ATEND PUB 0,00 0,00 2.107,81 0,00 0,00 0,00 2.107,81 268,16 15,19 0,00 283,35 1.824,46 330,00 0,00 31/08/2012
589 194301 DEBORA APARECIDA DOS SANTOS ANALISTA DO MP ATIVO UBERLÂNDIA - COMARCA; UBERLANDIA-COORD CONJ-FAMÍLIA E JUIZ ESP CRIM 7.356,10 1.471,22 0,00 0,00 0,00 0,00 8.827,32 971,01 1.403,96 0,00 2.374,97 6.452,35 330,00 0,00 31/08/2012
590 518800 DEBORA CARVALHO FIORATTO OFICIAL DO MP ATIVO CONTAGEM - COMARCA; CONTAGEM-PJ-11PJ 2.812,27 0,00 0,00 0,00 0,00 0,00 2.812,27 309,35 68,64 0,00 377,99 2.434,28 330,00 0,00 31/08/2012
591 444900 DEBORA CLAUDIA PEREIRA ALVES ANALISTA DO MP ATIVO BELO HORIZONTE - COMARCA; BH-08PJ JUIZADO ESPECIAL-SECRETARIA 5.421,69 0,00 0,00 0,00 0,00 0,00 5.421,69 596,39 570,43 0,00 1.166,82 4.254,87 1.414,34 99,40 31/08/2012
592 513100 DEBORA CRISTINA PEREIRA DE OLIVEIRA ANALISTA DO MP ATIVO BELO HORIZONTE - COMARCA; BH-23PJ CIVEL-SETOR JURIDICO 4.332,50 0,00 0,00 0,00 0,00 0,00 4.332,50 533,77 431,11 0,00 964,88 3.367,62 330,00 519,96 31/08/2012
593 424100 DEBORA SANTOS E ALVES ANALISTA DO MP ATIVO JANUÁRIA - COMARCA; JANUARIA-PJ-01PJ 5.598,22 335,89 0,00 0,00 0,00 0,00 5.934,11 652,75 695,84 0,00 1.348,59 4.585,52 330,00 0,00 31/08/2012
594 426300 DEBORA SCUCATO MACHADO SOARES OFICIAL DO MP ATIVO ITABIRA - COMARCA; ITABIRA-PJ-03PJ 3.300,91 198,05 0,00 0,00 0,00 0,00 3.498,96 384,89 160,31 0,00 545,20 2.953,76 330,00 0,00 31/08/2012
595 438000 DEBORAH COSTA LAGE ANALISTA DO MP ATIVO BELO HORIZONTE - COMARCA; ASSESS TECNICO-JUR JUNTO AS PROC. DE JUST 5.421,69 325,30 0,00 0,00 0,00 0,00 5.746,99 667,95 729,66 0,00 1.397,61 4.349,38 330,00 325,30 31/08/2012
596 475700 DEBORAH LOBAO LACERDA OFICIAL DO MP ATIVO BELO HORIZONTE - COMARCA; BH-23PJ INFRACIONAL 2.637,71 0,00 0,00 0,00 0,00 0,00 2.637,71 290,15 53,29 0,00 343,44 2.294,27 330,00 0,00 31/08/2012
597 506200 DEBORAH RALEMADHA RODRIGUES MELO ANALISTA DO MP ATIVO BELO HORIZONTE - COMARCA; COMB CRIMES PRAT POR AG POL MUN-ASSESSORIA 4.769,54 0,00 0,00 0,00 0,00 0,00 4.769,54 524,65 410,81 0,00 935,46 3.834,08 330,00 0,00 31/08/2012
598 501900 DELI RAQUEL RODRIGUES ANALISTA DO MP ATIVO ITUIUTABA - COMARCA; ITUIUTABA-PJ-04PJ 4.332,50 0,00 0,00 0,00 0,00 0,00 4.332,50 476,58 315,43 0,00 792,01 3.540,49 330,00 0,00 31/08/2012
599 378600 DELIANE LOPES VIEIRA BREIJAO NEVES ANALISTA DO MP ATIVO SANTOS DUMONT - COMARCA; SANTOS DUMONT-PJ-03PJ 6.069,59 364,18 0,00 0,00 0,00 0,00 6.433,77 707,71 818,14 0,00 1.525,85 4.907,92 330,00 0,00 31/08/2012
600 522500 DELMINDA MARIA LEAO E SILVA OFICIAL DO MP ATIVO ITAGUARA - COMARCA; ITAGUARA-PJ-UNPJ 2.554,55 1.788,20 0,00 0,00 0,00 0,00 4.342,75 477,70 243,43 0,00 721,13 3.621,62 330,00 0,00 31/08/2012
601 393000 DENER LOPES MACHADO ANALISTA DO MP ATIVO PATOS DE MINAS - COMARCA; COORD REG BACIAS PARACATU,URUCUIA E ABAETE 5.085,23 305,11 0,00 0,00 0,00 0,00 5.390,34 592,94 562,76 0,00 1.155,70 4.234,64 330,00 0,00 31/08/2012
602 381600 DENER PIRES DE OLIVEIRA OFICIAL DO MP ATIVO BETIM - COMARCA; BETIM-PJ-05PJ 3.300,91 198,05 0,00 0,00 0,00 0,00 3.498,96 384,89 160,31 0,00 545,20 2.953,76 330,00 0,00 31/08/2012
603 487700 DENIA FERREIRA MAIA SILVA OFICIAL DO MP ATIVO TRÊS CORACOES - COMARCA; TRES CORACOES-PJ-01PJ 2.637,71 0,00 0,00 0,00 0,00 0,00 2.637,71 290,15 40,95 0,00 331,10 2.306,61 1.620,08 26,38 31/08/2012
604 424800 DENIS APARECIDO CAMPOS DELFINO ANALISTA DO MP ATIVO LUZ - COMARCA; LUZ-PJ-UNPJ 5.598,22 335,89 0,00 0,00 0,00 0,00 5.934,11 652,75 514,83 0,00 1.167,58 4.766,53 909,79 31,61 31/08/2012
605 381400 DENISE ANGELICA MELLO DE PAULA OFICIAL DO MP ATIVO BELO HORIZONTE - COMARCA; BH-18PJ DIREITOS HUMANOS-SECRETARIA 4.332,50 259,95 0,00 0,00 0,00 0,00 4.592,45 690,36 818,09 0,00 1.508,45 3.084,00 330,00 1.823,81 31/08/2012
606 196300 DENISE DE ALMEIDA VILELA FURTADO OFICIAL DO MP ATIVO PATOS DE MINAS - COMARCA; PATOS DE MINAS-PJ-02PJ 4.924,85 984,97 0,00 0,00 0,00 0,00 5.909,82 650,08 599,39 0,00 1.249,47 4.660,35 330,00 0,00 31/08/2012
607 336900 DENISE DE SOUSA MORAES SILVA OFICIAL DO MP ATIVO MATEUS LEME - COMARCA; MATEUS LEME-PJ-02PJ 3.811,39 381,14 0,00 0,00 0,00 0,00 4.192,53 490,27 340,37 0,00 830,64 3.361,89 330,00 264,48 31/08/2012
608 271100 DENISE ELOY PEIXOTO OFICIAL DO MP ATIVO BELO HORIZONTE - COMARCA; GAECO - SECRETARIA 5.250,75 525,08 0,00 0,00 0,00 0,00 5.775,83 635,34 657,10 0,00 1.292,44 4.483,39 330,00 0,00 31/08/2012
609 385400 DENISE FREITAS DE ASSIS OFICIAL DO MP ATIVO CARATINGA - COMARCA; CARATINGA-PJ-01PJ 3.574,80 214,49 0,00 0,00 0,00 0,00 3.789,29 416,82 149,70 0,00 566,52 3.222,77 330,00 0,00 31/08/2012
610 437100 DENISE NOGUEIRA MAGRI MENDES ANALISTA DO MP ATIVO BELO HORIZONTE - COMARCA; CAO-ORDEM ECONOMICA E TRIBUTARIA-SECRETARIA 5.421,69 1.084,34 0,00 0,00 0,00 0,00 6.506,03 715,66 700,06 0,00 1.415,72 5.090,31 565,00 0,00 31/08/2012
611 524700 DENISE RAMOS GUIMARAES OFICIAL DO MP ATIVO SANTA LUZIA - COMARCA; SANTA LUZIA-PJ-02PJ 2.812,27 0,00 0,00 0,00 0,00 0,00 2.812,27 309,35 68,64 0,00 377,99 2.434,28 330,00 0,00 31/08/2012
612 239100 DENISE RIBEIRO DOS SANTOS CAETANO OFICIAL DO MP ATIVO ITANHANDU - COMARCA; ITANHANDU-PJ-SECRETARIA 4.924,85 984,97 0,00 0,00 0,00 0,00 5.909,82 716,95 748,18 0,00 1.465,13 4.444,69 330,00 607,92 31/08/2012
613 325500 DENISE ROSA TORRES ASSESSOR/OFICIAL ATIVO BELO HORIZONTE - COMARCA; DIRETORIA DE PESSOAL ADMINISTRATIVO - DPAD 0,00 712,41 7.124,13 0,00 0,00 0,00 7.836,54 558,92 1.244,82 0,00 1.803,74 6.032,80 330,00 0,00 31/08/2012
614 437200 DENISE VIVIANE DOS SANTOS ANALISTA DO MP ATIVO BELO HORIZONTE - COMARCA; ASSESS TECNICA DA CORREGEDORIA-GERAL DO MP 4.924,85 295,49 0,00 0,00 0,00 0,00 5.220,34 606,74 593,47 0,00 1.200,21 4.020,13 330,00 295,49 31/08/2012
615 267900 DENISIA DE ALMEIDA SALES OFICIAL DO MP ATIVO BELO HORIZONTE - COMARCA; CAO-SAUDE- SECRETARIA 4.195,87 419,59 0,00 0,00 0,00 0,00 4.615,46 507,70 223,99 0,00 731,69 3.883,77 330,00 0,00 31/08/2012
616 480300 DESIREE ARANTES FERREIRA GOUVEA OFICIAL DO MP ATIVO PRATÁPOLIS - COMARCA; PRATAPOLIS-PJ-UNPJ 2.637,71 0,00 0,00 0,00 0,00 0,00 2.637,71 290,15 53,29 0,00 343,44 2.294,27 330,00 0,00 31/08/2012
617 355300 DEYSE CRISTINA MORAIS OFICIAL DO MP ATIVO PASSOS - COMARCA; PASSOS-PJ-02PJ 3.691,17 369,12 0,00 0,00 0,00 0,00 4.060,29 446,63 260,92 0,00 707,55 3.352,74 330,00 0,00 31/08/2012
618 523700 DIANA CAMPOS RESENDE OFICIAL DO MP ATIVO SÃO JOÃO DEL REI - COMARCA; SAO JOAO DEL REI-PJ-04PJ 2.812,27 0,00 0,00 0,00 0,00 0,00 2.812,27 309,35 68,64 0,00 377,99 2.434,28 330,00 0,00 31/08/2012
619 241900 DIANA CARDOSO MARTINS OFICIAL DO MP ATIVO BELO HORIZONTE - COMARCA; DIRETORIA DE PRODUCAO EDITORIAL 4.473,58 894,72 0,00 0,00 0,00 0,00 5.368,30 590,51 557,36 0,00 1.147,87 4.220,43 330,00 0,00 31/08/2012
620 410100 DIANA GORDILHO SILVEIRA SENA ANALISTA DO MP ATIVO BELO HORIZONTE - COMARCA; ASSESS TECNICO-JUR JUNTO AS PROC. DE JUST 5.598,22 335,89 0,00 0,00 0,00 0,00 5.934,11 652,75 695,84 0,00 1.348,59 4.585,52 330,00 0,00 31/08/2012
621 520000 DIARLE TOSTE DOS SANTOS ANALISTA DO MP ATIVO RIO POMBA - COMARCA; RIO POMBA-PJ-UNPJ 4.332,50 0,00 0,00 0,00 0,00 0,00 4.332,50 476,58 204,35 0,00 680,93 3.651,57 565,00 0,00 31/08/2012
622 388100 DIEGO CESAR DO NASCIMENTO PERONI OFICIAL DO MP ATIVO CASSIA - COMARCA; CASSIA-PJ-02PJ 3.300,91 198,05 0,00 0,00 0,00 0,00 3.498,96 384,89 160,31 0,00 545,20 2.953,76 330,00 0,00 31/08/2012
623 446900 DIEGO DE FREITAS OFICIAL DO MP ATIVO UBERABA - COMARCA; UBERABA-PJ-06PJ 2.903,86 0,00 0,00 0,00 0,00 0,00 2.903,86 319,42 80,87 0,00 400,29 2.503,57 330,00 0,00 31/08/2012
624 379800 DIEGO OSORIO DA SILVA CORDEIRO OFICIAL DO MP ATIVO CONSELHEIRO LAFAIETE - COMARCA; CONSELHEIRO LAFAIETE-PJ-05PJ 3.574,80 214,49 0,00 0,00 0,00 0,00 3.789,29 447,69 284,63 0,00 732,32 3.056,97 330,00 377,42 31/08/2012
625 288800 DILENE NEPOMUCENO ALVES OFICIAL DO MP ATIVO BELO HORIZONTE - COMARCA; DIRETORIA DE PESSOAL ADMINISTRATIVO - DPAD 5.085,23 508,52 0,00 0,00 0,00 0,00 5.593,75 615,31 612,54 0,00 1.227,85 4.365,90 330,00 0,00 31/08/2012
626 270100 DILSON DO AMARAL OFICIAL DO MP ATIVO RIO CASCA - COMARCA; RIO CASCA-PJ-SECRETARIA 4.332,50 433,25 0,00 0,00 0,00 0,00 4.765,75 590,36 570,80 0,00 1.161,16 3.604,59 330,00 651,26 31/08/2012
627 466000 DIMITRI GUDE MARCIAL ANALISTA DO MP ATIVO NANUQUE - COMARCA; NANUQUE-PJ-02PJ 3.935,44 0,00 0,00 0,00 0,00 0,00 3.935,44 514,55 347,54 0,00 862,09 3.073,35 330,00 742,28 31/08/2012
628 516300 DINORA APARECIDA MACEDO BRANDAO ANALISTA DO MP ATIVO BELO HORIZONTE - COMARCA; COMB CRIMES PRAT POR AG POL MUN-ASSESSORIA 3.935,44 0,00 0,00 0,00 0,00 0,00 3.935,44 432,90 235,92 0,00 668,82 3.266,62 330,00 0,00 31/08/2012
629 511700 DIOGENES HENRIQUES PEREIRA LOURENCO ANALISTA DO MP ATIVO CONTAGEM - COMARCA; CONTAGEM-PJ-22PJ 4.332,50 0,00 0,00 0,00 0,00 0,00 4.332,50 476,58 315,43 0,00 792,01 3.540,49 330,00 0,00 31/08/2012
630 387800 DIOGO FELIX DA SILVA OFICIAL DO MP ATIVO MANTENA - COMARCA; MANTENA-PJ-SECRETARIA 3.300,91 198,05 0,00 0,00 0,00 0,00 3.498,96 384,89 160,31 0,00 545,20 2.953,76 330,00 0,00 31/08/2012
631 259600 DIOGO MESQUITA MAIA ANALISTA DO MP ATIVO BELO HORIZONTE - COMARCA; DIRET DE APOIO AS PROCURADORIAS DE JUSTICA 7.595,56 5.316,90 0,00 0,00 0,00 0,00 12.912,46 1.420,37 2.268,03 0,00 3.688,40 9.224,06 565,00 0,00 31/08/2012
632 364100 DIOGO OLIVEIRA CANUTO OFICIAL DO MP ATIVO BELO HORIZONTE - COMARCA; EXTINTA-04ª PJ JUÍZO REG PÚBLICOS-SECRETARIA 3.691,17 369,12 0,00 0,00 0,00 0,00 4.060,29 446,63 260,92 0,00 707,55 3.352,74 330,00 0,00 31/08/2012
633 386700 DIRCIMAR FERNANDES CARNEIRO OFICIAL DO MP ATIVO ALTO RIO DOCE - COMARCA; ALTO RIO DOCE-PJ-UNPJ 3.574,80 1.429,92 0,00 0,00 0,00 0,00 5.004,72 592,99 562,87 0,00 1.155,86 3.848,86 483,60 386,10 31/08/2012
634 113800 DIRSON APARECIDO GUIMARAES ASSESSOR ATIVO BELO HORIZONTE - COMARCA; DIRETORIA DE MANUTENCAO PREDIAL 0,00 1.686,24 2.107,81 0,00 0,00 0,00 3.794,05 430,78 123,64 0,00 554,42 3.239,63 330,00 0,00 31/08/2012
635 216700 DOMICIO VALDETE PEREIRA OFICIAL DO MP ATIVO TEÓFILO OTONI - COMARCA; COORD REG PJ DEF EDU DIR CRIAN ADOL JEQUI MUC 6.069,59 1.213,92 0,00 0,00 0,00 0,00 7.283,51 938,53 1.195,94 0,00 2.134,47 5.149,04 330,00 1.248,60 31/08/2012
636 324400 DOMINGOS DE SOUZA FILHO OFICIAL DO MP ATIVO BELO HORIZONTE - COMARCA; GAECO - SECRETARIA 4.619,20 461,92 0,00 0,00 0,00 0,00 5.081,12 558,92 487,08 0,00 1.046,00 4.035,12 330,00 0,00 31/08/2012
637 85700 DONIZETTE PEREIRA DOS SANTOS OFICIAL DO MP ATIVO BELO HORIZONTE - COMARCA; EXTINTA - PROTOCOLO DA PGJ 14.488,11 10.141,67 0,00 0,00 0,00 0,00 24.629,78 2.652,94 5.010,50 512,16 8.175,60 16.454,18 3.545,68 294,77 31/08/2012
638 192701 DONIZETTI APARECIDO AMORIM ANALISTA DO MP ATIVO PRATÁPOLIS - COMARCA; PRATAPOLIS-PJ-UNPJ 4.063,61 812,72 0,00 0,00 0,00 0,00 4.876,33 536,40 436,95 0,00 973,35 3.902,98 3.255,80 268,20 31/08/2012
639 276700 DORALICE ROSA DE OLIVEIRA FREITAS OFICIAL DO MP ATIVO CARMO DA MATA - COMARCA; CARMO DA MATA-PJ-SECRETARIA 4.195,87 2.937,11 0,00 0,00 0,00 784,63 7.917,61 784,63 1.205,04 0,00 1.989,67 5.927,94 330,00 0,00 31/08/2012
640 265900 DOUGLAS GOMES MOREIRA ANALISTA DO MP ATIVO BELO HORIZONTE - COMARCA; CENTRAL DE APOIO TECNICO-SETOR DE ENGENHARIA 8.361,90 836,19 0,00 0,00 0,00 0,00 9.198,09 1.011,79 1.494,70 0,00 2.506,49 6.691,60 330,00 0,00 31/08/2012
641 241000 DOUGLAS MEIRELLES DE CASTRO OFICIAL DO MP ATIVO CONCEIÇÃO DO RIO VERDE - COMARCA; CONCEICAO DO RIO VERDE-PJ-UNPJ 5.598,22 1.119,64 0,00 0,00 0,00 0,00 6.717,86 738,96 797,16 0,00 1.536,12 5.181,74 565,00 0,00 31/08/2012
642 146800 DUCINALVA AMARAL LOPES REIS OFICIAL DO MP ATIVO PARAISÓPOLIS - COMARCA; PARAISOPOLIS-PJ-UNPJ 8.098,20 4.049,10 0,00 0,00 0,00 0,00 12.147,30 1.336,20 2.035,51 0,00 3.371,71 8.775,59 565,00 0,00 31/08/2012
643 122500 DUILIO CARLOS FERREIRA UTSCH OFICIAL DO MP ATIVO CONCEIÇÃO DO MATO DENTRO - COMARCA; CONCEICAO DO MATO DENTRO-PJ-UNPJ 6.681,94 4.677,35 0,00 0,00 0,00 0,00 11.359,29 1.417,47 2.492,77 0,00 3.910,24 7.449,05 330,00 1.873,81 31/08/2012
644 201800 DULCINEIA ANDRE DE SOUZA OFICIAL DO MP ATIVO JEQUITINHONHA - COMARCA; JEQUITINHONHA-PJ-SECRETARIA 6.069,59 1.213,92 0,00 0,00 0,00 0,00 7.283,51 835,52 966,75 0,00 1.802,27 5.481,24 565,00 312,15 31/08/2012
645 395800 DUVIDIER MEDIRCIO JUNIOR ANALISTA DO MP ATIVO BELO HORIZONTE - COMARCA; CENTRAL DE APOIO TECNICO-SETOR DE ENGENHARIA 5.598,22 335,89 0,00 0,00 0,00 0,00 5.934,11 652,75 695,84 0,00 1.348,59 4.585,52 330,00 0,00 31/08/2012
646 273000 EDELFINA APARECIDA GUIMARAES OFICIAL DO MP ATIVO BELO HORIZONTE - COMARCA; PROMOT ESTADUAL DE DEF PATRI CULT E TUR DE MG 4.619,20 1.847,68 0,00 0,00 0,00 0,00 6.466,88 801,06 935,32 0,00 1.736,38 4.730,50 330,00 815,48 31/08/2012
647 523300 EDER DOS SANTOS PATRICIO ANALISTA DO MP ATIVO NOVA SERRANA - COMARCA; NOVA SERRANA-PJ-03PJ 3.935,44 0,00 0,00 0,00 0,00 0,00 3.935,44 432,90 235,92 0,00 668,82 3.266,62 330,00 0,00 31/08/2012
648 356700 EDER JOSE PACHECO OFICIAL DO MP ATIVO CAMPO BELO - COMARCA; CAMPO BELO-PJ-SECRETARIA 4.473,58 447,36 0,00 0,00 0,00 0,00 4.920,94 541,30 402,62 0,00 943,92 3.977,02 37,76 0,00 31/08/2012
649 507900 EDERSON SILVA LOPES OFICIAL DO MP ATIVO BELO HORIZONTE - COMARCA; SERVICO MEDICO-DEPTO PERIC MEDICA SAUDE OCUP 2.554,55 0,00 0,00 0,00 0,00 0,00 2.554,55 281,00 47,74 0,00 328,74 2.225,81 1.862,73 38,32 31/08/2012
650 296200 EDGARD GOULART MATOSINHO DE LAET JUNIOR ANALISTA DO MP ATIVO GOVERNADOR VALADARES - COMARCA; GOVERNADOR VALADARES-PJ-SECRETARIA 7.595,56 759,56 0,00 0,00 0,00 0,00 8.355,12 919,06 1.152,62 0,00 2.071,68 6.283,44 565,00 0,00 31/08/2012
651 295000 EDILA MARIA DA SILVEIRA OFICIAL DO MP ATIVO FORMIGA - COMARCA; FORMIGA-PJ-SECRETARIA 4.195,87 419,59 0,00 0,00 0,00 0,00 4.615,46 507,70 373,10 0,00 880,80 3.734,66 330,00 0,00 31/08/2012
652 332300 EDILA MARILAC MIRANDA PRADO OFICIAL DO MP ATIVO DIAMANTINA - COMARCA; DIAMANTINA-PJ-03PJ 4.332,50 1.299,75 0,00 0,00 0,00 0,00 5.632,25 619,55 531,45 0,00 1.151,00 4.481,25 330,00 0,00 31/08/2012
653 376600 EDILANE CONSOLACAO ROSA NAZARETH ANALISTA DO MP ATIVO IGARAPÉ - COMARCA; IGARAPE-PJ-01PJ 6.069,59 364,18 0,00 0,00 0,00 0,00 6.433,77 707,71 818,14 0,00 1.525,85 4.907,92 330,00 0,00 31/08/2012
654 301500 EDILENE APARECIDA DE CARVALHO ANALISTA DO MP ATIVO BELO HORIZONTE - COMARCA; DIRETORIA DE ADMINISTRACAO FINANCEIRA 7.595,56 759,56 0,00 0,00 0,00 0,00 8.355,12 919,06 1.288,39 0,00 2.207,45 6.147,67 330,00 0,00 31/08/2012
655 309800 EDILZA DOS REIS OFICIAL DO MP ATIVO UBERLÂNDIA - COMARCA; UBERLANDIA-PJ-03PJ 4.924,85 492,49 0,00 0,00 0,00 0,00 5.417,34 595,91 524,11 0,00 1.120,02 4.297,32 330,00 0,00 31/08/2012
656 200500 EDINEIA MARIA DE OLIVEIRA ANTUNES OFICIAL DO MP ATIVO MONTES CLAROS - COMARCA; MONTES CLAROS-PJ-10PJ 7.124,13 2.137,24 0,00 0,00 0,00 0,00 9.261,37 1.508,88 2.600,74 0,00 4.109,62 5.151,75 330,00 4.455,76 31/08/2012
657 427700 EDISANGELA SOARES LOPES OFICIAL DO MP ATIVO PIRAPORA - COMARCA; PIRAPORA-PJ-03PJ 3.300,91 198,05 0,00 0,00 0,00 0,00 3.498,96 384,89 160,31 0,00 545,20 2.953,76 512,09 0,00 31/08/2012
658 517700 EDMILSON TADEU FERNANDES OFICIAL DO MP ATIVO POUSO ALEGRE - COMARCA; POUSO ALEGRE-PJ-04PJ 2.812,27 0,00 0,00 0,00 0,00 0,00 2.812,27 309,35 68,64 0,00 377,99 2.434,28 330,00 0,00 31/08/2012
659 358400 EDNA APARECIDA SILVA FERREIRA OFICIAL DO MP ATIVO CORONEL FABRICIANO - COMARCA; CORONEL FABRICIANO-PJ-02PJ 4.332,50 433,25 0,00 0,00 0,00 0,00 4.765,75 524,23 409,89 0,00 934,12 3.831,63 565,00 0,00 31/08/2012
660 331800 EDNA MARCIA CAMILO DA SILVA OFICIAL DO MP ATIVO SETE LAGOAS - COMARCA; SETE LAGOAS-PJ-07PJ 4.619,20 461,92 0,00 0,00 0,00 0,00 5.081,12 558,92 487,08 0,00 1.046,00 4.035,12 330,00 0,00 31/08/2012
661 87400 EDNA MARIA DE LIMA OFICIAL DO MP ATIVO BELO HORIZONTE - COMARCA; EXTINTA - DIVISÃO DE MATERIAL PERMANENTE 6.267,25 3.133,63 0,00 0,00 0,00 0,00 9.400,88 1.034,10 1.499,08 0,00 2.533,18 6.867,70 330,00 0,00 31/08/2012
662 422800 EDNILSON DE SOUZA FERREIRA ASSESSOR ATIVO BELO HORIZONTE - COMARCA; DIRETORIA DE SERVICO CRIMINAL 0,00 0,00 2.107,81 0,00 0,00 0,00 2.107,81 268,16 15,19 0,00 283,35 1.824,46 330,00 0,00 31/08/2012
663 327900 EDRIEL SANTANA PEREIRA OFICIAL DO MP ATIVO TUPACIGUARA - COMARCA; TUPACIGUARA-PJ-UNPJ 4.619,20 461,92 0,00 0,00 0,00 0,00 5.081,12 558,92 487,08 0,00 1.046,00 4.035,12 330,00 0,00 31/08/2012
664 482400 EDSON GARCIA OFICIAL DO MP ATIVO MACHADO - COMARCA; MACHADO-PJ-SECRETARIA 2.637,71 0,00 0,00 0,00 0,00 0,00 2.637,71 290,15 53,29 0,00 343,44 2.294,27 330,00 0,00 31/08/2012
665 225601 EDSON LABRE FILHO ANALISTA DO MP ATIVO VARGINHA - COMARCA; VARGINHA-PJ-01PJ 7.595,56 1.519,11 0,00 0,00 0,00 0,00 9.114,67 1.002,61 1.474,29 0,00 2.476,90 6.637,77 330,00 0,00 31/08/2012
666 414400 EDUARDO ABRANTES CAMPOS ANALISTA DO MP ATIVO OLIVEIRA - COMARCA; OLIVEIRA-PJ-02PJ 5.598,22 335,89 0,00 0,00 0,00 0,00 5.934,11 652,75 695,84 0,00 1.348,59 4.585,52 330,00 0,00 31/08/2012
667 476800 EDUARDO ALVES DE MOURA ANALISTA DO MP ATIVO UBERLÂNDIA - COMARCA; UBERLANDIA-PJ-19PJ 4.473,58 0,00 0,00 0,00 0,00 0,00 4.473,58 492,09 343,69 0,00 835,78 3.637,80 330,00 0,00 31/08/2012
668 390800 EDUARDO AMORIM PETTERSEN OFICIAL DO MP ATIVO CARANGOLA - COMARCA; CARANGOLA-PJ-03PJ 3.300,91 198,05 0,00 0,00 0,00 0,00 3.498,96 384,89 160,31 0,00 545,20 2.953,76 644,88 0,00 31/08/2012
669 461600 EDUARDO ANTONIO DE ASSIS FARIA ASSESSOR ATIVO BELO HORIZONTE - COMARCA; ASSESS EXECUTIVA DO CONSELHO SUPERIOR DO MP 0,00 0,00 3.519,31 0,00 0,00 0,00 3.519,31 423,42 157,58 0,00 581,00 2.938,31 330,00 0,00 31/08/2012
670 248800 EDUARDO DE CASTRO AMORIM ANALISTA DO MP ATIVO BELO HORIZONTE - COMARCA; BH-15PJ M AMB PAT HIST CULT 8.634,11 863,41 0,00 0,00 0,00 0,00 9.497,52 1.044,73 1.567,99 0,00 2.612,72 6.884,80 330,00 0,00 31/08/2012
671 209100 EDUARDO DE SOUZA MAIA ANALISTA DO MP ATIVO BELO HORIZONTE - COMARCA; CAO-TS-TERCEIRO SETOR-ASSESSORIA JURIDICA 10.134,20 2.026,84 0,00 0,00 0,00 0,00 12.161,04 1.337,71 2.084,12 0,00 3.421,83 8.739,21 330,00 0,00 31/08/2012
672 350500 EDUARDO GONCALVES RIBEIRO OFICIAL DO MP ATIVO VESPASIANO - COMARCA; VESPASIANO-PJ-04PJ 3.691,17 369,12 0,00 0,00 0,00 0,00 4.060,29 446,63 260,92 0,00 707,55 3.352,74 330,00 0,00 31/08/2012
673 115800 EDUARDO HENRIQUE DE CAMPOS MAIA OFICIAL DO MP ATIVO BELO HORIZONTE - COMARCA; EXTINTA - DIVISAO DE SERVICOS GERAIS 7.356,10 2.206,83 0,00 0,00 0,00 0,00 9.562,93 1.051,92 1.538,74 0,00 2.590,66 6.972,27 330,00 0,00 31/08/2012
674 392600 EDUARDO HENRIQUE DOS SANTOS COSTA ELIAZAR OFICIAL DO MP ATIVO MATOZINHOS - COMARCA; MATOZINHOS-PJ-02PJ 3.574,80 214,49 0,00 0,00 0,00 0,00 3.789,29 416,82 149,70 0,00 566,52 3.222,77 2.080,72 75,79 31/08/2012
675 122900 EDUARDO JOSE COSTA SILVA OFICIAL DO MP ATIVO SETE LAGOAS - COMARCA; SETE LAGOAS-PJ-04PJ 9.814,62 6.870,24 0,00 0,00 0,00 0,00 16.684,86 1.835,33 3.281,84 0,00 5.117,17 11.567,69 936,46 55,59 31/08/2012
676 418700 EDUARDO LEMOS SIMOES OFICIAL DO MP ATIVO CAXAMBU - COMARCA; CAXAMBU-PJ-SECRETARIA 2.998,37 179,90 0,00 0,00 0,00 0,00 3.178,27 349,61 117,50 0,00 467,11 2.711,16 330,00 0,00 31/08/2012
677 407500 EDUARDO MASCARENHAS CURI AZEVEDO ANALISTA DO MP ATIVO BELO HORIZONTE - COMARCA; SUPERINTENDENCIA DE COMUNICACAO INTEGRADA 5.085,23 305,11 0,00 0,00 0,00 0,00 5.390,34 592,94 562,76 0,00 1.155,70 4.234,64 330,00 0,00 31/08/2012
678 257600 EDUARDO VALADARES CABRAL ASSESSOR/ANALISTA ATIVO BELO HORIZONTE - COMARCA; EXTINTA - SECRETARIA ADMINISTRATIVA 0,00 784,28 7.842,84 0,00 0,00 0,00 8.627,12 834,84 1.386,35 0,00 2.221,19 6.405,93 330,00 0,00 31/08/2012
679 487400 EDVIN OTTO FILHO ANALISTA DO MP ATIVO VISCONDE DO RIO BRANCO - COMARCA; VISCONDE DO RIO BRANCO-PJ-01PJ 4.924,85 0,00 0,00 0,00 0,00 0,00 4.924,85 588,06 593,28 0,00 1.181,34 3.743,51 330,00 571,61 31/08/2012
680 401700 EDWANIA AMORIM DO CARMO OFICIAL DO MP ATIVO RIBEIRÃO DAS NEVES - COMARCA; RIBEIRAO DAS NEVES-PJ-10PJ 3.574,80 214,49 0,00 0,00 0,00 0,00 3.789,29 416,82 206,66 0,00 623,48 3.165,81 330,00 0,00 31/08/2012
681 303600 EFIGENIO SARAIVA LOPES ANALISTA DO MP ATIVO BELO HORIZONTE - COMARCA; DIRETORIA DE PAGAMENTO DE PESSOAL-DPAG 8.361,90 836,19 0,00 0,00 0,00 0,00 9.198,09 1.011,79 1.358,94 0,00 2.370,73 6.827,36 3.096,73 253,62 31/08/2012
682 312000 ELAINE APARECIDA DE ARAUJO RODRIGUES ASSESSOR/OFICIAL ATIVO DIVINÓPOLIS - COMARCA; DIVINOPOLIS-PJ-02PJ 0,00 2.799,11 5.598,22 0,00 0,00 0,00 8.397,33 738,14 1.304,49 0,00 2.042,63 6.354,70 565,00 0,00 31/08/2012
683 286000 ELAINE APARECIDA SILVA BERZOINI OFICIAL DO MP ATIVO JUIZ DE FORA - COMARCA; JUIZ DE FORA-PJ-07PJ 5.085,23 508,52 0,00 0,00 0,00 0,00 5.593,75 615,31 612,54 0,00 1.227,85 4.365,90 565,00 0,00 31/08/2012
684 509000 ELAINE CANDIDA PONTES OFICIAL DO MP ATIVO BELO HORIZONTE - COMARCA; BH-02PJ FAMILIA-SECRETARIA 2.554,55 0,00 0,00 0,00 851,52 0,00 3.406,07 281,00 161,96 0,00 442,96 2.963,11 330,00 0,00 31/08/2012
685 283601 ELAINE CRISTINA MEQUELINO DUARTE ANALISTA DO MP ATIVO ALFENAS - COMARCA; ALFENAS-PJ-04PJ 6.069,59 364,18 0,00 0,00 0,00 0,00 6.433,77 707,71 818,14 0,00 1.525,85 4.907,92 565,00 0,00 31/08/2012
686 455700 ELAINE DE OLIVEIRA CASTRO ANALISTA DO MP ATIVO POMPÉU - COMARCA; POMPEU-PJ-UNPJ 4.473,58 0,00 0,00 0,00 0,00 0,00 4.473,58 492,09 343,69 0,00 835,78 3.637,80 330,00 0,00 31/08/2012
687 400600 ELAINE GONCALVES PINHEIRO ANALISTA DO MP ATIVO BELO HORIZONTE - COMARCA; ASSESS JUR DO CONS SUPERIOR DO MINISTERIO PUB 6.069,59 1.213,92 0,00 0,00 0,00 0,00 7.283,51 867,95 1.174,66 0,00 2.042,61 5.240,90 330,00 606,96 31/08/2012
688 367200 ELAINE MUNIZ BARBOSA FIGUEIREDO ANALISTA DO MP ATIVO BELO HORIZONTE - COMARCA; DIRETORIA DE REDES E BANCOS DE DADOS 7.124,13 712,41 0,00 0,00 0,00 0,00 7.836,54 1.276,75 2.084,24 0,00 3.360,99 4.475,55 330,00 3.770,28 31/08/2012
689 176900 ELAINE RIBEIRO TAVEIRA OFICIAL DO MP ATIVO BELO HORIZONTE - COMARCA; DIRETORIA DE PESSOAL ADMINISTRATIVO - DPAD 4.924,85 984,97 0,00 0,00 0,00 0,00 5.909,82 650,08 689,90 0,00 1.339,98 4.569,84 330,00 0,00 31/08/2012
690 496200 ELAINE SABRINA DIAS MOREIRA ANALISTA DO MP ATIVO CORONEL FABRICIANO - COMARCA; CORONEL FABRICIANO-PJ-03PJ 4.332,50 0,00 0,00 0,00 0,00 0,00 4.332,50 476,58 315,43 0,00 792,01 3.540,49 330,00 0,00 31/08/2012
691 489200 ELAINE VICENTINO GARCIA ANALISTA DO MP ATIVO BELO HORIZONTE - COMARCA; CENTRAL DE APOIO TECNICO-SETOR CONTABIL 4.924,85 492,49 0,00 0,00 0,00 0,00 5.417,34 657,79 707,06 0,00 1.364,85 4.052,49 800,00 562,59 31/08/2012
692 244500 ELCI ALVES DE SOUZA ASSESSOR ATIVO BELO HORIZONTE - COMARCA; CAO-DH APOIO COMUNITARIO-SEC ADM 0,00 703,86 3.519,31 0,00 0,00 0,00 4.223,17 430,78 301,14 0,00 731,92 3.491,25 330,00 0,00 31/08/2012
693 472500 ELCI VAZ DE OLIVEIRA FILHO ANALISTA DO MP ATIVO PIUMHI - COMARCA; PIUMHI-PJ-02PJ 4.924,85 1.477,46 0,00 0,00 0,00 0,00 6.402,31 704,25 810,44 0,00 1.514,69 4.887,62 330,00 0,00 31/08/2012
694 385200 ELCI VIANA REIS OFICIAL DO MP ATIVO RIO PARDO DE MINAS - COMARCA; RIO PARDO DE MINAS-PJ-SECRETARIA 4.332,50 1.299,75 0,00 0,00 0,00 0,00 5.632,25 846,67 1.127,30 0,00 1.973,97 3.658,28 330,00 2.064,72 31/08/2012
695 289801 ELCIO JOSE DOS SANTOS ANALISTA DO MP ATIVO BELO HORIZONTE - COMARCA; EXTINTA - DIVISAO DE SERVICOS GERAIS 5.421,69 0,00 0,00 0,00 0,00 0,00 5.421,69 969,31 1.502,75 0,00 2.472,06 2.949,63 330,00 3.763,18 31/08/2012
696 123000 ELCIO VILHENA DE FARIA OFICIAL DO MP ATIVO BELO HORIZONTE - COMARCA; ARQUIVO DO MINISTERIO PUBLICO DO ESTADO DE MG 9.814,62 7.851,70 0,00 0,00 0,00 0,00 17.666,32 1.943,30 3.567,30 0,00 5.510,60 12.155,72 330,00 0,00 31/08/2012
697 503200 ELDER GOMES DUTRA ANALISTA DO MP ATIVO IGARAPÉ - COMARCA; IGARAPE-PJ-01PJ 4.769,54 0,00 0,00 0,00 0,00 0,00 4.769,54 524,65 410,81 0,00 935,46 3.834,08 330,00 0,00 31/08/2012
698 319600 ELEN TULER DE ALBERGARIA ANALISTA DO MP ATIVO BELO HORIZONTE - COMARCA; BH-19PJ SAUDE 5.878,19 1.175,64 0,00 0,00 0,00 0,00 7.053,83 775,92 969,90 0,00 1.745,82 5.308,01 565,00 0,00 31/08/2012
699 333100 ELENILDA ROCHA DE MORAES MELO OFICIAL DO MP ATIVO ALÉM PARAÍBA - COMARCA; ALEM PARAIBA-PJ-02PJ 3.811,39 381,14 0,00 0,00 0,00 0,00 4.192,53 461,18 213,35 0,00 674,53 3.518,00 330,00 0,00 31/08/2012
700 151000 ELI LOURENCO RIBEIRO AGENTE DO MP ATIVO BELO HORIZONTE - COMARCA; BH-17PJ PATRIMONIO PUBLICO-SECRETARIA 5.598,22 1.679,47 0,00 0,00 0,00 0,00 7.277,69 800,55 581,57 0,00 1.382,12 5.895,57 330,00 0,00 31/08/2012
701 205500 ELIANA ALVES DE SOUSA OFICIAL DO MP ATIVO GOVERNADOR VALADARES - COMARCA; GOVERNADOR VALADARES-PJ-07PJ 4.619,20 923,84 0,00 0,00 0,00 0,00 5.543,04 609,73 600,13 0,00 1.209,86 4.333,18 330,00 0,00 31/08/2012
702 301700 ELIANA DA SILVEIRA ANALISTA DO MP ATIVO BELO HORIZONTE - COMARCA; ASSESS TECNICO-JUR JUNTO AS PROC. DE JUST 7.124,13 712,41 0,00 0,00 0,00 0,00 7.836,54 862,02 1.116,21 0,00 1.978,23 5.858,31 330,00 0,00 31/08/2012
703 103400 ELIANA DE FARIA MORAIS JOTTA OFICIAL DO MP ATIVO BELO HORIZONTE - COMARCA; DIRET DE PESSOAL DO MINISTERIO PUBLICO - DPMP 16.922,34 6.768,93 0,00 0,00 0,00 0,00 23.691,27 2.606,04 4.906,15 0,00 7.512,19 16.179,08 3.545,68 294,77 31/08/2012
704 251500 ELIANA DE LIMA MILAGRES FONSECA ANALISTA DO MP ATIVO CONTAGEM - COMARCA; CONTAGEM-PJ-17PJ 7.124,13 712,41 0,00 0,00 0,00 0,00 7.836,54 974,07 1.320,28 0,00 2.294,35 5.542,19 330,00 1.018,68 31/08/2012
705 503900 ELIANA DIAS DUTRA FERREIRA OFICIAL DO MP ATIVO GOVERNADOR VALADARES - COMARCA; GOVERNADOR VALADARES-PJ-10PJ 3.095,99 0,00 0,00 0,00 0,00 0,00 3.095,99 340,56 46,85 0,00 387,41 2.708,58 565,00 0,00 31/08/2012
706 413900 ELIANA PINTO DE OLIVEIRA NEVES ANALISTA DO MP ATIVO CAMPO BELO - COMARCA; CAMPO BELO-PJ-03PJ 5.598,22 335,89 0,00 0,00 0,00 0,00 5.934,11 652,75 695,84 0,00 1.348,59 4.585,52 330,00 0,00 31/08/2012
707 228200 ELIANA RODRIGUES DA CUNHA PINHEIRO COORDENADOR/OFICIAL ATIVO BELO HORIZONTE - COMARCA; SUPERINTENDÊNCIA DE ENGENHARIA E ARQUITETURA 0,00 1.841,09 9.205,45 0,00 0,00 0,00 11.046,54 1.215,12 1.901,86 0,00 3.116,98 7.929,56 330,00 0,00 31/08/2012
708 386600 ELIANA SABINO CHAVES ANALISTA DO MP ATIVO CARATINGA - COMARCA; CARATINGA-PJ-03PJ 5.780,51 2.312,20 0,00 0,00 0,00 0,00 8.092,71 890,20 1.178,91 0,00 2.069,11 6.023,60 330,00 0,00 31/08/2012
709 297400 ELIANE AUGUSTA RIBEIRO COSTA ANALISTA DO MP ATIVO CONSELHEIRO LAFAIETE - COMARCA; CONSELHEIRO LAFAIETE-PJ-05PJ 7.595,56 759,56 0,00 0,00 0,00 0,00 8.355,12 919,06 1.152,62 0,00 2.071,68 6.283,44 565,00 0,00 31/08/2012
710 510600 ELIANE CAROLINA MAIA ANALISTA DO MP ATIVO IGARAPÉ - COMARCA; IGARAPE-PJ-02PJ 3.935,44 0,00 0,00 0,00 1.311,81 0,00 5.247,25 432,90 567,42 0,00 1.000,32 4.246,93 565,00 0,00 31/08/2012
711 269300 ELIANE EDLAMAR ROCHA OFICIAL DO MP ATIVO POÇOS DE CALDAS - COMARCA; POCOS DE CALDAS-PJ-05PJ 4.769,54 476,95 0,00 0,00 0,00 0,00 5.246,49 766,63 903,97 0,00 1.670,60 3.575,89 330,00 1.722,89 31/08/2012
712 359100 ELIANE FARIAS DE OLIVEIRA ASSESSOR ATIVO BELO HORIZONTE - COMARCA; EXTINTA-TUTELA DAS FUNDACOES-21 PJ- GABINETE 0,00 0,00 2.107,81 0,00 0,00 0,00 2.107,81 237,24 17,51 0,00 254,75 1.853,06 1.173,12 21,08 31/08/2012
713 262600 ELIANE FERREIRA SOARES ASSESSOR ATIVO BELO HORIZONTE - COMARCA; BH-18PJ DIREITOS HUMANOS 0,00 703,86 3.519,31 0,00 0,00 0,00 4.223,17 430,78 301,14 0,00 731,92 3.491,25 565,00 0,00 31/08/2012
714 204400 ELIANE GLAUCE DE QUEIROS OFICIAL DO MP ATIVO GUANHÃES - COMARCA; GUANHAES-PJ-01PJ 6.069,59 1.213,92 0,00 0,00 0,00 0,00 7.283,51 801,19 1.026,11 0,00 1.827,30 5.456,21 330,00 0,00 31/08/2012
715 91800 ELIANE KAPLER OFICIAL DO MP ATIVO BELO HORIZONTE - COMARCA; SUPERINTENDÊNCIA DE ENGENHARIA E ARQUITETURA 9.205,45 3.682,19 0,00 0,00 0,00 0,00 12.887,64 1.417,64 2.307,21 0,00 3.724,85 9.162,79 800,00 0,00 31/08/2012
716 334200 ELIANE MARCIA DE OLIVEIRA BRITO OFICIAL DO MP ATIVO BELO HORIZONTE - COMARCA; BH-09PJ AUDITORIA MILITAR 3.811,39 381,14 0,00 0,00 0,00 0,00 4.192,53 461,18 287,40 0,00 748,58 3.443,95 330,00 0,00 31/08/2012
717 365900 ELIANE MARIA DE OLIVEIRA FERREIRA OFICIAL DO MP ATIVO SETE LAGOAS - COMARCA; SETE LAGOAS-PJ-10PJ 4.473,58 1.342,07 0,00 0,00 0,00 0,00 5.815,65 639,72 666,85 0,00 1.306,57 4.509,08 330,00 0,00 31/08/2012
718 320600 ELIANE STADLER DE SOUZA OFICIAL DO MP ATIVO PIRAPORA - COMARCA; PIRAPORA-PJ-04PJ 4.473,58 447,36 0,00 0,00 0,00 0,00 4.920,94 541,30 402,62 0,00 943,92 3.977,02 330,00 0,00 31/08/2012
719 448900 ELIAS PEREIRA OTONI ASSESSOR ATIVO BELO HORIZONTE - COMARCA; EXTINTA - DIVISAO DE TRANSPORTES 0,00 0,00 2.107,81 0,00 0,00 0,00 2.107,81 268,16 15,19 0,00 283,35 1.824,46 330,00 0,00 31/08/2012
720 495400 ELICA SOUZA GASPARONI MATTOS OFICIAL DO MP ATIVO UBÁ - COMARCA; UBA-PJ-SECRETARIA 2.637,71 0,00 0,00 0,00 0,00 0,00 2.637,71 299,60 61,10 0,00 360,70 2.277,01 330,00 113,65 31/08/2012
721 86600 ELIENE FERREIRA DA SILVA OFICIAL DO MP ATIVO BELO HORIZONTE - COMARCA; BH-22PJ PES COM DEF E IDOSOS 14.488,11 7.244,05 0,00 0,00 0,00 0,00 21.732,16 2.390,54 4.517,16 0,00 6.907,70 14.824,46 4.015,68 294,77 31/08/2012
722 183800 ELIENE MARIA CUNHA OFICIAL DO MP ATIVO BELO HORIZONTE - COMARCA; DIRETORIA DE PESSOAL ADMINISTRATIVO - DPAD 7.124,13 1.424,83 0,00 0,00 0,00 0,00 8.548,96 940,39 1.290,57 0,00 2.230,96 6.318,00 330,00 0,00 31/08/2012
723 172300 ELINA APARECIDA SILVA ASSESSOR ATIVO BELO HORIZONTE - COMARCA; BH-19PJ SAUDE 0,00 421,56 2.107,81 0,00 0,00 0,00 2.529,37 314,53 18,65 0,00 333,18 2.196,19 565,00 0,00 31/08/2012
724 492500 ELINE CAMPOS DA FONSECA CUNHA ANALISTA DO MP ATIVO CAPELINHA - COMARCA; CAPELINHA-PJ-02PJ 4.063,61 0,00 0,00 0,00 0,00 0,00 4.063,61 470,97 314,83 0,00 785,80 3.277,81 565,00 260,61 31/08/2012
725 256500 ELISABETE NOGUEIRA ANALISTA DO MP ATIVO BELO HORIZONTE - COMARCA; BH-21PJ TUTELA DAS FUNDACOES-ASS CURADORES 6.899,47 2.069,84 0,00 0,00 0,00 0,00 8.969,31 986,62 1.348,20 0,00 2.334,82 6.634,49 565,00 0,00 31/08/2012
726 355000 ELISANGELA DARLANTONI RIBEIRO OFICIAL DO MP ATIVO ARAXÁ - COMARCA; ARAXA-PJ-05PJ 3.691,17 369,12 0,00 0,00 0,00 0,00 4.060,29 446,63 260,92 0,00 707,55 3.352,74 565,00 0,00 31/08/2012
727 323800 ELISANGELA GONCALVES DE JESUS OFICIAL DO MP ATIVO BELO HORIZONTE - COMARCA; CAO-TS-TERCEIRO SETOR-SECRETARIA 3.811,39 381,14 0,00 0,00 0,00 0,00 4.192,53 461,18 287,40 0,00 748,58 3.443,95 330,00 0,00 31/08/2012
728 261400 ELISANGELA MENDES OFICIAL DO MP ATIVO POUSO ALEGRE - COMARCA; POUSO ALEGRE-PJ-05PJ 4.769,54 476,95 0,00 0,00 0,00 0,00 5.246,49 577,11 527,55 0,00 1.104,66 4.141,83 330,00 0,00 31/08/2012
729 507400 ELISANGELA MIGUEL DA ROCHA ASSESSOR ATIVO BELO HORIZONTE - COMARCA; CGMP-DIVIS DE APOIO FISC ORIENTACAO FUNCIONAL 0,00 0,00 2.107,81 0,00 0,00 0,00 2.107,81 268,16 15,19 0,00 283,35 1.824,46 330,00 0,00 31/08/2012
730 461700 ELIZABETH ALEIXO DA PAZ ANALISTA DO MP ATIVO JUIZ DE FORA - COMARCA; JUIZ DE FORA-PJ-24PJ 4.473,58 0,00 0,00 0,00 0,00 0,00 4.473,58 492,09 343,69 0,00 835,78 3.637,80 330,00 0,00 31/08/2012
731 198100 ELIZABETH CARDOSO CAMPOS OFICIAL DO MP ATIVO PIUMHI - COMARCA; PIUMHI-PJ-02PJ 5.598,22 4.478,58 0,00 0,00 0,00 1.108,45 11.185,25 1.108,45 2.014,59 0,00 3.123,04 8.062,21 330,00 0,00 31/08/2012
732 227300 ELIZABETH COIMBRA FELIX ASSESSOR/OFICIAL ATIVO BELO HORIZONTE - COMARCA; DIRETORIA DE PAGAMENTO DE PESSOAL-DPAG 0,00 2.352,85 7.842,84 0,00 0,00 0,00 10.195,69 727,19 1.711,55 0,00 2.438,74 7.756,95 565,00 0,00 31/08/2012
733 354800 ELIZABETH DOS REIS OFICIAL DO MP ATIVO BELO HORIZONTE - COMARCA; EXTINTA - DIVISÃO DE MATERIAL PERMANENTE 4.473,58 447,36 0,00 0,00 0,00 0,00 4.920,94 541,30 402,62 0,00 943,92 3.977,02 330,00 0,00 31/08/2012
734 452800 ELIZANGELA MARIA DAVI OFICIAL DO MP ATIVO ARCOS - COMARCA; ARCOS-PJ-01PJ 2.903,86 0,00 0,00 0,00 0,00 0,00 2.903,86 319,42 80,87 0,00 400,29 2.503,57 565,00 0,00 31/08/2012
735 496300 ELIZANGELA MARQUES PINTO COELHO OFICIAL DO MP ATIVO BELO HORIZONTE - COMARCA; DIRETORIA DE PESSOAL ADMINISTRATIVO - DPAD 2.812,27 0,00 0,00 0,00 0,00 0,00 2.812,27 340,53 119,37 0,00 459,90 2.352,37 330,00 369,40 31/08/2012
736 422500 ELIZETE FORTES DA CUNHA ANALISTA DO MP ATIVO RIBEIRÃO DAS NEVES - COMARCA; RIBEIRAO DAS NEVES-PJ-01PJ 5.085,23 305,11 0,00 0,00 0,00 0,00 5.390,34 592,94 562,76 0,00 1.155,70 4.234,64 565,00 0,00 31/08/2012
737 506100 ELLEM CRISTINA ROCHA FONSECA BOWEN ANALISTA DO MP ATIVO GOVERNADOR VALADARES - COMARCA; COORD REG PJ DEF EDU DIR CRIANCA ADOL RIODOCE 3.935,44 0,00 0,00 0,00 1.311,81 0,00 5.247,25 432,90 567,42 0,00 1.000,32 4.246,93 800,00 0,00 31/08/2012
738 468200 ELLEN CRISTINA BERNARDES DARE ANALISTA DO MP ATIVO TRÊS PONTAS - COMARCA; TRES PONTAS-PJ-02PJ 4.473,58 0,00 0,00 0,00 0,00 0,00 4.473,58 580,66 535,44 0,00 1.116,10 3.357,48 330,00 805,14 31/08/2012
739 418800 ELLEN CRISTINA DE QUEIROZ FERREIRA ANALISTA DO MP ATIVO BELO HORIZONTE - COMARCA; CENTRAL DE APOIO TECNICO-SETOR CONTABIL 5.598,22 335,89 0,00 0,00 0,00 0,00 5.934,11 681,90 768,72 0,00 1.450,62 4.483,49 330,00 294,15 31/08/2012
740 328401 ELLEN CRISTINA FERREIRA MORAIS MONTEIRO ANALISTA DO MP ATIVO CAMANDUCAIA - COMARCA; CAMANDUCAIA-PJ-UNPJ 5.598,22 335,89 0,00 0,00 0,00 0,00 5.934,11 652,75 605,34 0,00 1.258,09 4.676,02 800,00 0,00 31/08/2012
741 447100 ELLEN ROSANA DE MACEDO BORGES OFICIAL DO MP ATIVO UBERLÂNDIA - COMARCA; UBERLANDIA-PJ-17PJ 3.519,31 0,00 0,00 0,00 0,00 0,00 3.519,31 387,12 163,03 0,00 550,15 2.969,16 330,00 0,00 31/08/2012
742 477700 ELMA JACOB OFICIAL DO MP ATIVO BELO HORIZONTE - COMARCA; CAO-CRIANCAS E ADOLESCENTES 2.637,71 1.318,85 0,00 0,00 0,00 0,00 3.956,56 435,22 240,15 0,00 675,37 3.281,19 330,00 0,00 31/08/2012
743 123300 ELMA PAULA DOS SANTOS COELHO OFICIAL DO MP ATIVO BELO HORIZONTE - COMARCA; BH-19PJ SAUDE 8.361,90 6.689,52 0,00 0,00 0,00 1.655,66 16.707,08 1.655,66 3.292,10 0,00 4.947,76 11.759,32 330,00 0,00 31/08/2012
744 356500 ELOISA CARDOSO SILVA FRANCA OFICIAL DO MP ATIVO PEÇANHA - COMARCA; PECANHA-PJ-SECRETARIA 3.691,17 369,12 0,00 0,00 0,00 0,00 4.060,29 484,27 329,45 0,00 813,72 3.246,57 330,00 342,18 31/08/2012
745 251901 ELOISA COSTA E SILVA ANALISTA DO MP ATIVO SANTOS DUMONT - COMARCA; SANTOS DUMONT-PJ-02PJ 4.769,54 953,91 0,00 0,00 0,00 0,00 5.723,45 736,02 924,84 0,00 1.660,86 4.062,59 330,00 1.126,63 31/08/2012
746 400400 ELOIZA MARIA FERRI PIRES DA SILVA OFICIAL DO MP ATIVO BELO HORIZONTE - COMARCA; EXTINTA - DIRETORIA DE COMPRAS E LICITAÇÕES 3.574,80 214,49 0,00 0,00 0,00 0,00 3.789,29 602,72 539,26 0,00 1.141,98 2.647,31 2.603,57 1.803,64 31/08/2012
747 258000 ELSO CECIANO PALMEIRA ASSESSOR/OFICIAL ATIVO BELO HORIZONTE - COMARCA; DIRET DE PESSOAL DO MINISTERIO PUBLICO - DPMP 0,00 2.849,66 7.124,13 0,00 0,00 0,00 9.973,79 947,51 1.975,36 0,00 2.922,87 7.050,92 330,00 1.401,56 31/08/2012
748 206900 ELVIRA RITA DOS SANTOS ANALISTA DO MP ATIVO BELO HORIZONTE - COMARCA; CENTRAL DE APOIO TECNICO-SETOR CONTABIL 10.464,02 2.092,80 0,00 0,00 0,00 0,00 12.556,82 1.381,25 2.316,75 0,00 3.698,00 8.858,82 330,00 0,00 31/08/2012
749 506800 ELVIS FERREIRA DA SILVA ANALISTA DO MP ATIVO BELO HORIZONTE - COMARCA; DIRETORIA DE SISTEMAS DE INFORMACAO 4.769,54 0,00 0,00 0,00 1.589,85 0,00 6.359,39 575,93 916,87 0,00 1.492,80 4.866,59 330,00 466,18 31/08/2012
750 154300 ELZA MARIA DA SILVA OFICIAL DO MP ATIVO ERVÁLIA - COMARCA; ERVALIA-PJ-SECRETARIA 6.267,25 4.387,09 0,00 0,00 0,00 1.171,98 11.826,32 1.171,98 2.082,91 0,00 3.254,89 8.571,43 330,00 0,00 31/08/2012
751 206600 ELZA MARIA GONTIJO DE MAGALHAES GOMES ANALISTA DO MP ATIVO BELO HORIZONTE - COMARCA; DIVISAO DE ACERVOS BIBLIOGRAFICOS 8.098,20 1.619,64 0,00 0,00 0,00 1.068,96 10.786,80 1.068,96 1.915,88 0,00 2.984,84 7.801,96 330,00 0,00 31/08/2012
752 368401 ELZIRA SIMOES DOS SANTOS ASSESSOR ATIVO BELO HORIZONTE - COMARCA; DIRETORIA DE RELACOES PUBLICAS E CERIMONIAL 0,00 0,00 7.124,13 0,00 0,00 0,00 7.124,13 430,78 1.084,14 0,00 1.514,92 5.609,21 330,00 0,00 31/08/2012
753 437400 EMANOELLE DA SILVA RODRIGUES OFICIAL DO MP ATIVO UNAÍ - COMARCA; UNAI-PJ-03PJ 3.519,31 211,16 0,00 0,00 0,00 0,00 3.730,47 433,58 200,14 0,00 633,72 3.096,75 330,00 211,16 31/08/2012
754 458900 EMANUELLE CONRAD SILVA FREDERICO ANALISTA DO MP ATIVO DIVINÓPOLIS - COMARCA; DIVINOPOLIS-PJ-08PJ 4.924,85 0,00 0,00 0,00 0,00 0,00 4.924,85 541,73 448,83 0,00 990,56 3.934,29 330,00 0,00 31/08/2012
755 284100 EMERSON MAGNO ALMEIDA PEDROSA DA FONSECA ANALISTA DO MP ATIVO BELO HORIZONTE - COMARCA; CENTRAL DE APOIO TECNICO-SETOR CONTABIL 7.595,56 759,56 0,00 0,00 0,00 0,00 8.355,12 919,06 1.107,37 0,00 2.026,43 6.328,69 800,00 0,00 31/08/2012
756 179900 EMERSON MORAIS DIAS OFICIAL DO MP ATIVO BELO HORIZONTE - COMARCA; EXTINTA - DIVISÃO DE APOIO À LICITAÇÃO 7.356,10 1.471,22 0,00 0,00 0,00 0,00 8.827,32 971,01 1.403,96 0,00 2.374,97 6.452,35 851,56 47,81 31/08/2012
757 488700 EMERSON SIQUEIRA DE SOUSA TEIXEIRA ANALISTA DO MP ATIVO TARUMIRIM - COMARCA; TARUMIRIM-PJ-UNPJ 4.924,85 0,00 0,00 0,00 0,00 0,00 4.924,85 541,73 360,00 0,00 901,73 4.023,12 800,00 0,00 31/08/2012
758 194200 EMILIA ALVES FERREIRA RAMOS OFICIAL DO MP ATIVO UBERLÂNDIA - COMARCA; UBERLANDIA-PJ-04PJ 4.195,87 839,17 0,00 0,00 0,00 0,00 5.035,04 553,85 385,29 0,00 939,14 4.095,90 330,00 0,00 31/08/2012
759 123400 EMILIO CARLOS MARTINS OFICIAL DO MP ATIVO AREADO - COMARCA; AREADO-PJ-UNPJ 8.361,90 5.853,33 0,00 0,00 0,00 0,00 14.215,23 1.563,68 2.677,39 0,00 4.241,07 9.974,16 3.545,68 294,77 31/08/2012
760 297000 ENEIDA SOARES COSTA MELO ANALISTA DO MP ATIVO PIUMHI - COMARCA; PIUMHI-PJ-01PJ 7.595,56 759,56 0,00 0,00 0,00 0,00 8.355,12 919,06 1.288,39 0,00 2.207,45 6.147,67 330,00 0,00 31/08/2012
761 387700 ENI MARIA DOS REIS OFICIAL DO MP ATIVO POUSO ALEGRE - COMARCA; POUSO ALEGRE-PJ-03PJ 3.574,80 214,49 0,00 0,00 0,00 0,00 3.789,29 416,82 174,39 0,00 591,21 3.198,08 330,00 0,00 31/08/2012
762 417300 ERIC BARATTI DA SILVA ANALISTA DO MP ATIVO PRATA - COMARCA; PRATA-PJ-UNPJ 5.598,22 335,89 0,00 0,00 0,00 0,00 5.934,11 652,75 1.832,35 0,00 2.485,10 3.449,01 3.545,68 4.427,51 31/08/2012
763 398900 ERIC TEIXEIRA SILVA OFICIAL DO MP ATIVO UBERLÂNDIA - COMARCA; UBERLANDIA-PJ-08PJ 3.574,80 214,49 0,00 0,00 0,00 0,00 3.789,29 416,82 206,66 0,00 623,48 3.165,81 330,00 0,00 31/08/2012
764 274200 ERICA DE SOUZA ANDRADE OFICIAL DO MP ATIVO BELO HORIZONTE - COMARCA; BH-18PJ DIREITOS HUMANOS 5.085,23 508,52 0,00 0,00 0,00 0,00 5.593,75 615,31 612,54 0,00 1.227,85 4.365,90 330,00 0,00 31/08/2012
765 225700 ERICA GOMES DO COUTO OFICIAL DO MP ATIVO BELO HORIZONTE - COMARCA; BH-18PJ VIOLENCIA DOMESTICA 5.780,51 1.156,10 0,00 0,00 0,00 0,00 6.936,61 763,03 941,20 0,00 1.704,23 5.232,38 330,00 0,00 31/08/2012
766 524800 ERICA MACHADO DA COSTA E SOUZA ANALISTA DO MP ATIVO BELO HORIZONTE - COMARCA; BH-02PJ FAMILIA 4.332,50 0,00 0,00 0,00 0,00 0,00 4.332,50 476,58 315,43 0,00 792,01 3.540,49 330,00 0,00 31/08/2012
767 249500 ERICA RODRIGUES ANDRADE OFICIAL DO MP ATIVO SÃO FRANCISCO - COMARCA; SAO FRANCISCO-PJ-02PJ 4.195,87 419,59 0,00 0,00 0,00 0,00 4.615,46 507,70 373,10 0,00 880,80 3.734,66 565,00 0,00 31/08/2012
768 260800 ERICA VIANA GIARDINI DE OLIVEIRA OFICIAL DO MP ATIVO BELO HORIZONTE - COMARCA; EXTINTA - DIVISÃO DE COMPRAS 5.085,23 508,52 0,00 0,00 0,00 0,00 5.593,75 615,31 612,54 0,00 1.227,85 4.365,90 330,00 0,00 31/08/2012
769 299800 ERICH DOUGLAS RIBEIRO GARCIA ANALISTA DO MP ATIVO BELO HORIZONTE - COMARCA; CENTRAL DE APOIO TECNICO-SETOR CONTABIL 7.595,56 759,56 0,00 0,00 0,00 0,00 8.355,12 919,06 1.288,39 0,00 2.207,45 6.147,67 330,00 0,00 31/08/2012
770 365000 ERICK EDUARDO JOSE DA SILVA OFICIAL DO MP ATIVO ALÉM PARAÍBA - COMARCA; ALEM PARAIBA-PJ-01PJ 3.408,38 340,84 0,00 0,00 0,00 0,00 3.749,22 557,32 483,51 0,00 1.040,83 2.708,39 330,00 1.317,33 31/08/2012
771 123500 ERICO SEGISMUNDO LIMA VILASBOAS ANALISTA DO MP ATIVO MONTES CLAROS - COMARCA; COORD REG PJ DEF EDUC DIR CRIANCA ADOL NORTE 11.931,59 9.545,28 0,00 0,00 0,00 0,00 21.476,87 2.362,46 4.273,66 0,00 6.636,12 14.840,75 2.512,79 200,09 31/08/2012
772 227400 ERIKA DE LAET GOULART BOECHAT ASSESSOR/OFICIAL ATIVO BELO HORIZONTE - COMARCA; NUCLEO DE APOIO A ATIVIDADE-FIM 0,00 1.424,83 7.124,13 0,00 0,00 0,00 8.548,96 763,03 1.384,60 0,00 2.147,63 6.401,33 330,00 0,00 31/08/2012
773 451800 ERIKA DELLARETTI GUIMARAES OFICIAL DO MP ATIVO LAVRAS - COMARCA; LAVRAS-PJ-04PJ 2.903,86 0,00 0,00 0,00 0,00 0,00 2.903,86 319,42 80,87 0,00 400,29 2.503,57 330,00 0,00 31/08/2012
774 285100 ERIKA FERREIRA DA SILVA OFICIAL DO MP ATIVO JUIZ DE FORA - COMARCA; JUIZ DE FORA-PJ-14PJ 5.085,23 508,52 0,00 0,00 0,00 0,00 5.593,75 615,31 612,54 0,00 1.227,85 4.365,90 330,00 0,00 31/08/2012
775 420100 ERIKA JEANINE VERSIANI DE CASTRO ANALISTA DO MP ATIVO MONTES CLAROS - COMARCA; COORD REG PJ DEF EDUC DIR CRIANCA ADOL NORTE 5.598,22 335,89 0,00 0,00 0,00 0,00 5.934,11 764,67 944,85 0,00 1.709,52 4.224,59 330,00 1.017,40 31/08/2012
776 283201 ERIKA STEHLING ASSESSOR/ANALISTA ATIVO BELO HORIZONTE - COMARCA; CENTRAL DE APOIO TECNICO-SETOR DE ENGENHARIA 0,00 0,00 7.124,13 0,00 0,00 0,00 7.124,13 574,76 1.044,55 0,00 1.619,31 5.504,82 330,00 0,00 31/08/2012
777 383500 ERIKO RODRIGUES VELOSO ANALISTA DO MP ATIVO BOCAIÚVA - COMARCA; BOCAIUVA-PJ-01PJ 5.085,23 305,11 0,00 0,00 0,00 0,00 5.390,34 634,45 655,12 0,00 1.289,57 4.100,77 330,00 377,37 31/08/2012
778 254000 ERLANDIA DA SILVA MENDES OFICIAL DO MP ATIVO IPATINGA - COMARCA; IPATINGA-PJ-03PJ 5.250,75 1.575,23 0,00 0,00 0,00 0,00 6.825,98 750,86 778,37 0,00 1.529,23 5.296,75 800,00 0,00 31/08/2012
779 208600 ERNANE JOSE DA COSTA ANALISTA DO MP ATIVO BELO HORIZONTE - COMARCA; CENTRAL DE APOIO TECNICO-SETOR MEDICO 10.464,02 5.232,01 0,00 0,00 0,00 0,00 15.696,03 1.726,56 3.085,07 0,00 4.811,63 10.884,40 330,00 0,00 31/08/2012
780 260600 ERNANI CALDEIRA DE ANDRADE ANALISTA DO MP ATIVO BELO HORIZONTE - COMARCA; CENTRAL DE APOIO TECNICO-SETOR CONTABIL 8.361,90 1.672,38 0,00 0,00 0,00 0,00 10.034,28 1.103,77 1.654,11 0,00 2.757,88 7.276,40 330,00 0,00 31/08/2012
781 348500 ERNILANDIA OLIVEIRA DIAS OFICIAL DO MP ATIVO BELO HORIZONTE - COMARCA; EXTINTA - JUIZO DE FAMILIA-02 PJ-02 VARA 4.063,61 406,36 0,00 0,00 0,00 0,00 4.469,97 491,70 342,96 0,00 834,66 3.635,31 330,00 0,00 31/08/2012
782 199300 ERTON PORTINARI DE ANDRADE OFICIAL DO MP ATIVO SETE LAGOAS - COMARCA; SETE LAGOAS-PJ-01PJ 6.069,59 1.820,88 0,00 0,00 0,00 0,00 7.890,47 1.053,96 1.498,03 0,00 2.551,99 5.338,48 565,00 1.691,00 31/08/2012
783 430400 ESDRAS SOARES VILAS BOAS RIBEIRO OFICIAL DO MP ATIVO BELO HORIZONTE - COMARCA; BH-17PJ PATRIMONIO PUBLICO-SECRETARIA 2.998,37 179,90 0,00 0,00 0,00 0,00 3.178,27 349,61 117,50 0,00 467,11 2.711,16 330,00 0,00 31/08/2012
784 326900 ESTER ALICE PIMENTA OFICIAL DO MP ATIVO BELO HORIZONTE - COMARCA; BH-14PJ DEFESA CONSUMIDOR-SECRETARIA 3.811,39 381,14 0,00 0,00 0,00 0,00 4.192,53 461,18 250,38 0,00 711,56 3.480,97 330,00 0,00 31/08/2012
785 503700 ESTHER GONCALVES FONSECA ANALISTA DO MP ATIVO BELO HORIZONTE - COMARCA; DIRETORIA DE PUBLICIDADE INSTITUCIONAL 3.935,44 0,00 0,00 0,00 0,00 0,00 3.935,44 432,90 235,92 0,00 668,82 3.266,62 330,00 0,00 31/08/2012
786 475600 ETIENE DE FATIMA OLIVEIRA PEREIRA ANALISTA DO MP ATIVO PATROCÍNIO - COMARCA; PATROCINIO-PJ-04PJ 4.063,61 0,00 0,00 0,00 0,00 0,00 4.063,61 447,00 261,59 0,00 708,59 3.355,02 330,00 0,00 31/08/2012
787 428800 EUGENIA RODRIGUES TRAJANO BORGES ANALISTA DO MP ATIVO UBERABA - COMARCA; UBERABA-PJ-08PJ 5.085,23 305,11 0,00 0,00 0,00 0,00 5.390,34 592,94 562,76 0,00 1.155,70 4.234,64 330,00 0,00 31/08/2012
788 272700 EUGENIO DE BARCELOS FILHO OFICIAL DO MP ATIVO FRUTAL - COMARCA; FRUTAL-PJ-02PJ 4.195,87 419,59 0,00 0,00 0,00 0,00 4.615,46 586,03 502,13 0,00 1.088,16 3.527,30 330,00 712,08 31/08/2012
789 254100 EULALIA ALVES MIRANDA LUCAS OFICIAL DO MP ATIVO ALMENARA - COMARCA; ALMENARA-PJ-SECRETARIA 5.085,23 508,52 0,00 0,00 0,00 0,00 5.593,75 615,31 476,78 0,00 1.092,09 4.501,66 330,00 0,00 31/08/2012
790 225800 EURO CESAR VIEIRA BARBOSA ANALISTA DO MP ATIVO BELO HORIZONTE - COMARCA; AUDITORIA INTERNA 9.505,17 1.901,03 0,00 0,00 0,00 0,00 11.406,20 1.254,68 1.989,88 0,00 3.244,56 8.161,64 565,00 0,00 31/08/2012
791 199400 EUSTAQUIO ADAILTON LIMA E SILVA OFICIAL DO MP ATIVO MANGA - COMARCA; MANGA-PJ-01PJ 7.124,13 2.849,65 0,00 0,00 0,00 0,00 9.973,78 1.499,27 2.527,37 0,00 4.026,64 5.947,14 565,00 3.960,63 31/08/2012
792 249000 EUSTAQUIO GOMES DE OLIVEIRA OFICIAL DO MP ATIVO BELO HORIZONTE - COMARCA; CAO-TS-CONTROLADORIA E APOIO AS ENTIDADES  5.085,23 2.034,09 0,00 0,00 0,00 0,00 7.119,32 839,06 1.019,88 0,00 1.858,94 5.260,38 330,00 508,52 31/08/2012
793 67100 EVA DAS DORES BARROS VALGAS ANALISTA DO MP ATIVO FERROS - COMARCA; FERROS-PJ-SECRETARIA 11.477,24 5.738,62 0,00 0,00 0,00 0,00 17.215,86 1.893,74 3.321,29 0,00 5.215,03 12.000,83 330,00 0,00 31/08/2012
794 517000 EVALDO SENA COSTA FILHO ANALISTA DO MP ATIVO CONTAGEM - COMARCA; CONTAGEM-PJ-21PJ 3.935,44 787,09 0,00 0,00 0,00 0,00 4.722,53 519,48 399,31 0,00 918,79 3.803,74 565,00 0,00 31/08/2012
795 217500 EVELANGE LEAO RABELO ASSESSOR ATIVO BELO HORIZONTE - COMARCA; COORD EST DEF DIR FAMILIA PESSOA DEFICI IDOSO 0,00 421,56 2.107,81 0,00 0,00 0,00 2.529,37 314,53 43,33 0,00 357,86 2.171,51 330,00 0,00 31/08/2012
796 469000 EWERTON CARDOSO DE SA RODRIGUES ANALISTA DO MP ATIVO CAMPO BELO - COMARCA; CAMPO BELO-PJ-01PJ 4.473,58 0,00 0,00 0,00 1.491,19 0,00 5.964,77 492,09 748,46 0,00 1.240,55 4.724,22 330,00 0,00 31/08/2012
797 368900 FABIANA BARBOSA SIQUEIRA OFICIAL DO MP ATIVO BELO HORIZONTE - COMARCA; CAO-ORDEM ECONOMICA E TRIBUTARIA-SECRETARIA 4.473,58 447,36 0,00 0,00 0,00 0,00 4.920,94 569,14 509,81 0,00 1.078,95 3.841,99 2.270,26 409,40 31/08/2012
798 273800 FABIANA CARNEIRO AMORIM COORDENADOR/OFICIAL ATIVO BELO HORIZONTE - COMARCA; BH-23PJ INFRACIONAL-COORD ADM INFRACIONAL 0,00 809,82 8.098,20 0,00 0,00 0,00 8.908,02 577,11 1.443,96 0,00 2.021,07 6.886,95 330,00 0,00 31/08/2012
799 519300 FABIANA DE OLIVEIRA LOUREIRO ANALISTA DO MP ATIVO BELO HORIZONTE - COMARCA; BH-09PJ AUDITORIA MILITAR 4.332,50 0,00 0,00 0,00 0,00 0,00 4.332,50 476,58 315,43 0,00 792,01 3.540,49 330,00 0,00 31/08/2012
800 363400 FABIANA DOURADO DUPIN VIEGAS ANALISTA DO MP ATIVO BELO HORIZONTE - COMARCA; PROC. JUSTICA DE HABEAS CORPUS 7.124,13 712,41 0,00 0,00 0,00 0,00 7.836,54 862,02 1.161,46 0,00 2.023,48 5.813,06 565,00 0,00 31/08/2012
801 410800 FABIANA DUARTE QUITITE ANALISTA DO MP ATIVO BELO HORIZONTE - COMARCA; COORD ESTADUAL COMBATE CRIMES CIBERNETICOS 5.598,22 335,89 0,00 0,00 0,00 0,00 5.934,11 652,75 695,84 0,00 1.348,59 4.585,52 330,00 0,00 31/08/2012
802 419500 FABIANA EULALIA DOS SANTOS ANALISTA DO MP ATIVO SÃO JOÃO DEL REI - COMARCA; SAO JOAO DEL REI-PJ-01PJ 5.598,22 335,89 0,00 0,00 0,00 0,00 5.934,11 759,07 932,40 0,00 1.691,47 4.242,64 330,00 966,53 31/08/2012
803 376300 FABIANA MATTOSO LEMOS ANALISTA DO MP ATIVO BELO HORIZONTE - COMARCA; COORD REG BACIAS RIO VELHAS E PARAOPEBA 6.069,59 364,18 0,00 0,00 0,00 0,00 6.433,77 707,71 818,14 0,00 1.525,85 4.907,92 330,00 0,00 31/08/2012
804 331500 FABIANA PACHECO OFICIAL DO MP ATIVO GUAXUPÉ - COMARCA; GUAXUPE-PJ-01PJ 4.473,58 447,36 0,00 0,00 0,00 0,00 4.920,94 541,30 447,87 0,00 989,17 3.931,77 330,00 0,00 31/08/2012
805 510700 FABIANA PEREIRA SANTOS BORGES ANALISTA DO MP ATIVO BELO HORIZONTE - COMARCA; DIRETORIA DE SISTEMAS DE INFORMACAO 3.935,44 0,00 0,00 0,00 0,00 0,00 3.935,44 432,90 235,92 0,00 668,82 3.266,62 565,00 0,00 31/08/2012
806 181700 FABIANA SOUZA FERREIRA OFICIAL DO MP ATIVO BELO HORIZONTE - COMARCA; BH-23PJ CIVEL-SETOR ATEND PUB 3.935,44 787,09 0,00 0,00 0,00 0,00 4.722,53 519,48 319,48 0,00 838,96 3.883,57 565,00 0,00 31/08/2012
807 272900 FABIANA STOCKLER LEITE OFICIAL DO MP ATIVO LAJINHA - COMARCA; LAJINHA-PJ-SECRETARIA 4.924,85 1.477,46 0,00 0,00 0,00 0,00 6.402,31 704,25 719,93 0,00 1.424,18 4.978,13 565,00 0,00 31/08/2012
808 225500 FABIANE DE FATIMA PORTELLA ANALISTA DO MP ATIVO BELO HORIZONTE - COMARCA; SERVICO MEDICO-DEPTO PERIC MEDICA SAUDE OCUP 9.205,45 1.841,09 0,00 0,00 0,00 0,00 11.046,54 1.215,12 1.947,11 0,00 3.162,23 7.884,31 330,00 0,00 31/08/2012
809 433800 FABIANE DINIZ MATTOS ANALISTA DO MP ATIVO BELO HORIZONTE - COMARCA; BH-23PJ INFRACIONAL-ASS JURIDICA 5.598,22 335,89 0,00 0,00 0,00 0,00 5.934,11 725,43 857,56 0,00 1.582,99 4.351,12 330,00 660,75 31/08/2012
810 455000 FABIANO CARVALHO DA SILVA ANALISTA DO MP ATIVO LAVRAS - COMARCA; COORD REG DO MA DA BACIA DO RIO GRANDE 5.421,69 0,00 0,00 0,00 0,00 0,00 5.421,69 665,61 724,46 0,00 1.390,07 4.031,62 330,00 629,33 31/08/2012
811 498800 FABIANO FURTADO PESSOA COELHO ANALISTA DO MP ATIVO BELO HORIZONTE - COMARCA; DIRETORIA DE REDES E BANCOS DE DADOS 4.332,50 0,00 0,00 0,00 1.444,17 0,00 5.776,67 611,39 955,71 0,00 1.567,10 4.209,57 565,00 1.225,62 31/08/2012
812 394600 FABIANO PALHARES SILVA ANALISTA DO MP ATIVO BELO HORIZONTE - COMARCA; CENTRAL DE APOIO TECN-SETOR DE MEIO AMBIENTE 6.069,59 364,18 0,00 0,00 0,00 0,00 6.433,77 707,71 818,14 0,00 1.525,85 4.907,92 565,00 0,00 31/08/2012
813 444400 FABIANO SARAIVA MEDEIROS ANALISTA DO MP ATIVO BETIM - COMARCA; BETIM-PJ-11PJ 5.421,69 0,00 0,00 0,00 0,00 0,00 5.421,69 596,39 479,92 0,00 1.076,31 4.345,38 565,00 0,00 31/08/2012
814 408700 FABIANO SOARES PORTILHO ANALISTA DO MP ATIVO VIÇOSA - COMARCA; VICOSA-PJ-SECRETARIA 5.085,23 305,11 0,00 0,00 0,00 0,00 5.390,34 592,94 562,76 0,00 1.155,70 4.234,64 330,00 0,00 31/08/2012
815 384301 FABIO BRUNO DA SILVA ANALISTA DO MP ATIVO BONFIM - COMARCA; BONFIM-PJ-UNPJ 5.085,23 305,11 0,00 0,00 0,00 0,00 5.390,34 592,94 562,76 0,00 1.155,70 4.234,64 330,00 0,00 31/08/2012
816 442600 FABIO CARVALHO ANALISTA DO MP ATIVO BELO HORIZONTE - COMARCA; BH-09PJ AUDITORIA MILITAR 4.473,58 0,00 0,00 0,00 0,00 0,00 4.473,58 492,09 343,69 0,00 835,78 3.637,80 330,00 0,00 31/08/2012
817 123700 FABIO JOSE ANDRADE NOGUEIRA OFICIAL DO MP ATIVO FORMIGA - COMARCA; FORMIGA-PJ-SECRETARIA 6.069,59 4.248,72 0,00 0,00 0,00 0,00 10.318,31 1.135,01 852,83 0,00 1.987,84 8.330,47 330,00 0,00 31/08/2012
818 240101 FABIO JUNQUEIRA DE ASSIS FONSECA OFICIAL DO MP ATIVO BELO HORIZONTE - COMARCA; BH-17PJ PATRIMONIO PUBLICO 3.408,38 340,84 0,00 0,00 0,00 0,00 3.749,22 412,41 198,63 0,00 611,04 3.138,18 330,00 0,00 31/08/2012
819 271500 FABIO LUIZ VIEIRA OFICIAL DO MP ATIVO SANTA VITÓRIA - COMARCA; SANTA VITORIA-PJ-UNPJ 4.332,50 433,25 0,00 0,00 0,00 0,00 4.765,75 675,25 655,40 0,00 1.330,65 3.435,10 416,40 1.372,90 31/08/2012
820 213100 FABIO PRATES GONCALVES ASSESSOR ATIVO BELO HORIZONTE - COMARCA; DIRETORIA DE RELACOES PUBLICAS E CERIMONIAL 0,00 703,86 3.519,31 0,00 0,00 0,00 4.223,17 430,78 227,09 0,00 657,87 3.565,30 565,00 0,00 31/08/2012
821 436700 FABIO SANTIAGO DE CARVALHO OFICIAL DO MP ATIVO POÇO FUNDO - COMARCA; POCO FUNDO-PJ-UNPJ 3.574,80 214,49 0,00 0,00 0,00 0,00 3.789,29 502,32 362,31 0,00 864,63 2.924,66 330,00 777,30 31/08/2012
822 208400 FABIOLA DE SOUSA CARDOSO ASSESSOR/ANALISTA ATIVO BELO HORIZONTE - COMARCA; ASSESS TECNICA DA CORREGEDORIA-GERAL DO MP 10.464,02 3.819,62 0,00 0,00 0,00 0,00 14.283,64 1.381,25 2.791,63 0,00 4.172,88 10.110,76 330,00 0,00 31/08/2012
823 392200 FABIOLA LEROY COSTA ANALISTA DO MP ATIVO ESMERALDAS - COMARCA; ESMERALDAS-PJ-01PJ 5.085,23 305,11 0,00 0,00 0,00 0,00 5.390,34 592,94 562,76 0,00 1.155,70 4.234,64 330,00 0,00 31/08/2012
824 409000 FABIOLA MONTEIRO DE CARVALHO CASTRO ANALISTA DO MP ATIVO BOM SUCESSO - COMARCA; BOM SUCESSO-PJ-UNPJ 5.598,22 335,89 0,00 0,00 0,00 0,00 5.934,11 652,75 695,84 0,00 1.348,59 4.585,52 330,00 0,00 31/08/2012
825 227900 FABIOLA PIMENTA DE CARVALHO OFICIAL DO MP ATIVO MONTES CLAROS - COMARCA; COORD REG BACIA RIOS VERDE GRANDE E PARDO 4.473,58 894,72 0,00 0,00 0,00 0,00 5.368,30 590,51 512,11 0,00 1.102,62 4.265,68 330,00 0,00 31/08/2012
826 525800 FABRICIA ALVES DANTAS OFICIAL DO MP ATIVO MONTES CLAROS - COMARCA; MONTES CLAROS-PJ-02PJ 3.095,99 0,00 0,00 0,00 0,00 0,00 3.095,99 340,56 106,51 0,00 447,07 2.648,92 565,00 0,00 31/08/2012
827 263400 FABRICIA PINTO TEIXEIRA SANTIAGO OFICIAL DO MP ATIVO BELO HORIZONTE - COMARCA; CAO-TS-TERCEIRO SETOR-SECRETARIA 5.085,23 508,52 0,00 0,00 0,00 0,00 5.593,75 615,31 522,03 0,00 1.137,34 4.456,41 800,00 0,00 31/08/2012
828 420800 FABRICIO BERNARDES DE OLIVEIRA OFICIAL DO MP ATIVO ITURAMA - COMARCA; ITURAMA-PJ-02PJ 3.300,91 198,05 0,00 0,00 0,00 0,00 3.498,96 493,19 345,69 0,00 838,88 2.660,08 452,50 984,63 31/08/2012
829 474000 FABRICIO DE FREITAS SALES ANALISTA DO MP ATIVO BUENÓPOLIS - COMARCA; BUENOPOLIS-PJ-UNPJ 4.924,85 0,00 0,00 0,00 0,00 0,00 4.924,85 629,95 645,11 0,00 1.275,06 3.649,79 2.039,17 958,66 31/08/2012
830 510100 FABRICIO FURTADO ASSIS DO CARMO ANALISTA DO MP ATIVO BELO HORIZONTE - COMARCA; SERVICO MEDICO-DEPTO PERIC MEDICA SAUDE OCUP 4.332,50 0,00 0,00 0,00 0,00 0,00 4.332,50 476,58 315,43 0,00 792,01 3.540,49 330,00 0,00 31/08/2012
831 519600 FABRICIO GONTIJO SALVATI ANALISTA DO MP ATIVO JUIZ DE FORA - COMARCA; JUIZ DE FORA-PJ-13PJ 4.332,50 0,00 0,00 0,00 0,00 0,00 4.332,50 476,58 315,43 0,00 792,01 3.540,49 330,00 0,00 31/08/2012
832 428200 FABRICIO ORZIL VIANA ANALISTA DO MP ATIVO SANTA LUZIA - COMARCA; SANTA LUZIA-PJ-04PJ 5.085,23 305,11 0,00 0,00 0,00 0,00 5.390,34 592,94 562,76 0,00 1.155,70 4.234,64 330,00 0,00 31/08/2012
833 455600 FABRICIO PAIVA DA ROCHA ANALISTA DO MP ATIVO ANDRELÂNDIA - COMARCA; ANDRELANDIA-PJ-UNPJ 4.063,61 0,00 0,00 0,00 1.354,54 0,00 5.418,15 447,00 610,54 0,00 1.057,54 4.360,61 330,00 0,00 31/08/2012
834 511500 FABRICIO RENE CARDOSO DE PADUA ANALISTA DO MP ATIVO SÃO SEBASTIÃO DO PARAÍSO - COMARCA; SAO SEBASTIAO DO PARAISO-PJ-03PJ 4.332,50 0,00 0,00 0,00 0,00 0,00 4.332,50 607,31 594,73 0,00 1.202,04 3.130,46 330,00 1.188,48 31/08/2012
835 496100 FABRICIO RESENDE GONCALVES OFICIAL DO MP ATIVO ENTRE-RIOS DE MINAS - COMARCA; ENTRE RIOS DE MINAS-PJ-UNPJ 2.554,55 0,00 0,00 0,00 0,00 0,00 2.554,55 281,00 47,74 0,00 328,74 2.225,81 330,00 0,00 31/08/2012
836 514900 FADUA MARIA DRUMOND CHEQUER MAGNO ANALISTA DO MP ATIVO CARLOS CHAGAS - COMARCA; CARLOS CHAGAS-PJ-UNPJ 4.769,54 0,00 0,00 0,00 0,00 0,00 4.769,54 524,65 410,81 0,00 935,46 3.834,08 330,00 0,00 31/08/2012
837 282500 FANNY FERREIRA MELO FAVERO DE FRAVET OFICIAL DO MP ATIVO ARAXÁ - COMARCA; ARAXA-PJ-03PJ 4.195,87 419,59 0,00 0,00 0,00 0,00 4.615,46 624,49 632,95 0,00 1.257,44 3.358,02 800,00 1.061,68 31/08/2012
838 382800 FATIMA DE OLIVEIRA COELHO E SILVA OFICIAL DO MP ATIVO NOVA LIMA - COMARCA; NOVA LIMA-PJ-04PJ 2.998,37 299,84 0,00 0,00 0,00 0,00 3.298,21 362,80 133,51 0,00 496,31 2.801,90 330,00 0,00 31/08/2012
839 398600 FELIPE ANTONIO HORTA DE PAULA OFICIAL DO MP ATIVO BELO HORIZONTE - COMARCA; PROC. JUSTICA DIR. DIFUSOS E COLETIVOS-SEC 3.574,80 214,49 0,00 0,00 0,00 0,00 3.789,29 416,82 206,66 0,00 623,48 3.165,81 330,00 0,00 31/08/2012
840 529200 FELIPE AUGUSTO NASCIMENTO PEREIRA ASSESSOR ATIVO UBERABA - COMARCA; COORD REG PP TRIANGULO MINEIRO UBERABA 0,00 0,00 3.519,31 0,00 0,00 0,00 3.519,31 423,42 157,58 0,00 581,00 2.938,31 330,00 0,00 31/08/2012
841 430900 FELIPE BOY VIEIRA ANALISTA DO MP ATIVO BELO HORIZONTE - COMARCA; CAO-DH APOIO COMUNITARIO-SEC ADM 5.598,22 335,89 0,00 0,00 0,00 0,00 5.934,11 652,75 695,84 0,00 1.348,59 4.585,52 330,00 0,00 31/08/2012
842 487300 FELIPE FERNANDES SILVEIRA ASSESSOR ATIVO BELO HORIZONTE - COMARCA; DIRETORIA DE MANUTENCAO PREDIAL 0,00 0,00 2.107,81 0,00 0,00 0,00 2.107,81 268,16 15,19 0,00 283,35 1.824,46 330,00 0,00 31/08/2012
843 508400 FERNANDA AGANETTI MATTOS DE OLIVEIRA ANALISTA DO MP ATIVO BELO HORIZONTE - COMARCA; BH-19PJ SAUDE 4.769,54 0,00 0,00 0,00 1.589,85 0,00 6.359,39 524,65 848,02 0,00 1.372,67 4.986,72 330,00 0,00 31/08/2012
844 453600 FERNANDA ALBERNAZ RABELO ANALISTA DO MP ATIVO BELO HORIZONTE - COMARCA; ASSESS TECNICO-JUR JUNTO AS PROC. DE JUST 5.421,69 0,00 0,00 0,00 0,00 0,00 5.421,69 705,69 813,63 0,00 1.519,32 3.902,37 330,00 993,68 31/08/2012
845 255600 FERNANDA ALINA DE ALMEIDA ANDRADE OFICIAL DO MP ATIVO BELO HORIZONTE - COMARCA; DIR ESTRUTURA E PROCESSOS ORGANIZACIONAIS 4.619,20 461,92 0,00 0,00 0,00 0,00 5.081,12 558,92 487,08 0,00 1.046,00 4.035,12 330,00 0,00 31/08/2012
846 443200 FERNANDA ALMEIDA LOPES ANALISTA DO MP ATIVO CONTAGEM - COMARCA; CONTAGEM-PJ-23PJ 5.421,69 0,00 0,00 0,00 0,00 0,00 5.421,69 811,08 1.048,12 0,00 1.859,20 3.562,49 330,00 1.951,74 31/08/2012
847 281100 FERNANDA ANANIAS MEIRA ANALISTA DO MP ATIVO BELO HORIZONTE - COMARCA; BH-23PJ INFRACIONAL-ASS JURIDICA 7.595,56 759,56 0,00 0,00 0,00 0,00 8.355,12 1.045,39 1.571,94 0,00 2.617,33 5.737,79 330,00 1.157,42 31/08/2012
848 451200 FERNANDA BLOISE PRADO OFICIAL DO MP ATIVO BELO HORIZONTE - COMARCA; CAO-MEIO AMBIENTE-SECRETARIA 3.196,81 0,00 0,00 0,00 0,00 0,00 3.196,81 412,88 221,44 0,00 634,32 2.562,49 330,00 654,26 31/08/2012
849 427900 FERNANDA BRAGA CARNEIRO BICALHO ANALISTA DO MP ATIVO PEÇANHA - COMARCA; PECANHA-PJ-SECRETARIA 5.085,23 305,11 0,00 0,00 0,00 0,00 5.390,34 592,94 517,50 0,00 1.110,44 4.279,90 330,00 0,00 31/08/2012
850 507100 FERNANDA CABRINI VAZ MOTA ANALISTA DO MP ATIVO BELO HORIZONTE - COMARCA; ASSESSORIA JURIDICO-ADMINISTRATIVA 4.332,50 0,00 0,00 0,00 0,00 0,00 4.332,50 526,08 450,38 0,00 976,46 3.356,04 2.929,50 777,31 31/08/2012
851 259800 FERNANDA CALZAVARA DE SOUSA ASSESSOR/OFICIAL ATIVO BELO HORIZONTE - COMARCA; DIRET DE FORMACAO E APERF DE SERVIDORES DO MP 0,00 784,28 7.842,84 0,00 0,00 0,00 8.627,12 899,19 2.100,83 0,00 3.000,02 5.627,10 330,00 2.662,46 31/08/2012
852 494400 FERNANDA CAMPOS BARATA OFICIAL DO MP ATIVO JUIZ DE FORA - COMARCA; JUIZ DE FORA-PJ-08PJ 2.637,71 0,00 0,00 0,00 0,00 0,00 2.637,71 302,34 64,30 0,00 366,64 2.271,07 565,00 138,60 31/08/2012
853 471600 FERNANDA CAMPOS DE CERQUEIRA LANA ANALISTA DO MP ATIVO BELO HORIZONTE - COMARCA; PROC JUST RECURSOS ESP E EXTRAORD CRIMINAIS 4.473,58 0,00 0,00 0,00 0,00 0,00 4.473,58 492,09 343,69 0,00 835,78 3.637,80 330,00 0,00 31/08/2012
854 294500 FERNANDA COSTA FLORES OFICIAL DO MP ATIVO PARÁ DE MINAS - COMARCA; PARA DE MINAS-PJ-04PJ 5.085,23 508,52 0,00 0,00 0,00 0,00 5.593,75 615,31 567,29 0,00 1.182,60 4.411,15 330,00 0,00 31/08/2012
855 344500 FERNANDA CRISTINA DE SOUZA PAZ ASSESSOR ATIVO BELO HORIZONTE - COMARCA; CENTRAL DE APOIO TECN-SETOR DE MEIO AMBIENTE 0,00 0,00 3.519,31 0,00 0,00 0,00 3.519,31 423,42 157,58 0,00 581,00 2.938,31 800,00 0,00 31/08/2012
856 337800 FERNANDA CRISTINA REIS ROLAND CLIMACO DA SILVA ASSESSOR/OFICIAL ATIVO BELO HORIZONTE - COMARCA; DIRETORIA-GERAL 0,00 712,41 7.124,13 0,00 0,00 0,00 7.836,54 577,11 1.239,81 0,00 1.816,92 6.019,62 330,00 0,00 31/08/2012
857 429801 FERNANDA CUNHA PINHEIRO DA SILVA ANALISTA DO MP ATIVO BELO HORIZONTE - COMARCA; DIRETORIA DE PRODUCAO EDITORIAL 4.332,50 0,00 0,00 0,00 0,00 0,00 4.332,50 476,58 315,43 0,00 792,01 3.540,49 330,00 0,00 31/08/2012
858 408000 FERNANDA DAS NEVES RAMOS ANALISTA DO MP ATIVO BELO HORIZONTE - COMARCA; CENTRAL DE APOIO TECNICO-SETOR CONTABIL 5.598,22 335,89 0,00 0,00 0,00 0,00 5.934,11 652,75 695,84 0,00 1.348,59 4.585,52 330,00 0,00 31/08/2012
859 496000 FERNANDA DE ALMEIDA VIANA ANALISTA DO MP ATIVO BELO HORIZONTE - COMARCA; PROC JUST RECURSOS ESP E EXTRAORD CRIMINAIS 4.332,50 0,00 0,00 0,00 0,00 0,00 4.332,50 476,58 315,43 0,00 792,01 3.540,49 330,00 0,00 31/08/2012
860 521600 FERNANDA DE ANDRADE ROCHA ANALISTA DO MP ATIVO SETE LAGOAS - COMARCA; SETE LAGOAS-PJ-05PJ 4.332,50 0,00 0,00 0,00 0,00 0,00 4.332,50 476,58 315,43 0,00 792,01 3.540,49 330,00 0,00 31/08/2012
861 266700 FERNANDA DE CASTRO LUCAS OFICIAL DO MP ATIVO BELO HORIZONTE - COMARCA; DIRET DE DESENV DE RECURSOS HUMANOS-DDRH 5.085,23 508,52 0,00 0,00 0,00 0,00 5.593,75 710,23 823,74 0,00 1.533,97 4.059,78 330,00 862,92 31/08/2012
862 433200 FERNANDA DE FIGUEIREDO NORTE ANALISTA DO MP ATIVO BELO HORIZONTE - COMARCA; ASSESS JUR DO CONS SUPERIOR DO MINISTERIO PUB 5.598,22 335,89 0,00 0,00 0,00 0,00 5.934,11 924,12 1.299,63 0,00 2.223,75 3.710,36 330,00 2.466,97 31/08/2012
863 419200 FERNANDA DE MIRANDA MARTINS SIMOES ANALISTA DO MP ATIVO UBERLÂNDIA - COMARCA; UBERLANDIA-PJ-19PJ 5.598,22 335,89 0,00 0,00 0,00 0,00 5.934,11 652,75 695,84 0,00 1.348,59 4.585,52 330,00 0,00 31/08/2012
864 441400 FERNANDA DE MORAIS PINTO ANALISTA DO MP ATIVO BELO HORIZONTE - COMARCA; PROC. JUSTICA DIR. DIFUSOS E COLETIVOS-SEC 5.421,69 0,00 0,00 0,00 0,00 0,00 5.421,69 596,39 570,43 0,00 1.166,82 4.254,87 330,00 0,00 31/08/2012
865 432200 FERNANDA DE MOURA GUIMARAES ANALISTA DO MP ATIVO BELO HORIZONTE - COMARCA; CAO-CRIMINAL-SECRETARIA 5.598,22 335,89 0,00 0,00 0,00 0,00 5.934,11 765,48 946,67 0,00 1.712,15 4.221,96 330,00 1.024,84 31/08/2012
866 461800 FERNANDA DE OLIVEIRA SANTOS ANALISTA DO MP ATIVO JUIZ DE FORA - COMARCA; JUIZ DE FORA-PJ-21PJ 4.924,85 0,00 0,00 0,00 0,00 0,00 4.924,85 541,73 448,83 0,00 990,56 3.934,29 330,00 0,00 31/08/2012
867 432500 FERNANDA DE PAULA PINTO ANALISTA DO MP ATIVO BELO HORIZONTE - COMARCA; BH-12PJ JUIZO CRIMINAL-GAB 091PJ 5.598,22 335,89 0,00 0,00 0,00 0,00 5.934,11 684,31 783,22 0,00 1.467,53 4.466,58 330,00 349,29 31/08/2012
868 431600 FERNANDA DIAS BARBOSA MENEZES ANALISTA DO MP ATIVO OURO BRANCO - COMARCA; OURO BRANCO-PJ-UNPJ 5.598,22 335,89 0,00 0,00 0,00 0,00 5.934,11 693,92 759,34 0,00 1.453,26 4.480,85 3.620,53 738,24 31/08/2012
869 162200 FERNANDA FERNANDES MONTEIRO ASSESSOR ATIVO BELO HORIZONTE - COMARCA; PROCON-MG-SECRETARIA DE FISCALIZACOES 0,00 1.055,79 3.519,31 0,00 0,00 0,00 4.575,10 430,78 269,24 0,00 700,02 3.875,08 565,00 0,00 31/08/2012
870 512800 FERNANDA FERREIRA BARBOSA MOREIRA ANALISTA DO MP ATIVO CARATINGA - COMARCA; CARATINGA-PJ-02PJ 4.332,50 0,00 0,00 0,00 0,00 0,00 4.332,50 476,58 315,43 0,00 792,01 3.540,49 330,00 0,00 31/08/2012
871 329200 FERNANDA GABRIEL GUZELLA OFICIAL DO MP ATIVO BELO HORIZONTE - COMARCA; DIRET DE PLANOS PROJETOS E PROGRAMAS INST 4.332,50 433,25 0,00 0,00 0,00 0,00 4.765,75 909,88 1.365,33 0,00 2.275,21 2.490,54 330,00 3.859,99 31/08/2012
872 324200 FERNANDA GEORGIA NEVES ZAHAN OFICIAL DO MP ATIVO IPANEMA - COMARCA; IPANEMA-PJ-SECRETARIA 3.811,39 1.905,70 0,00 0,00 0,00 0,00 5.717,09 628,88 597,47 0,00 1.226,35 4.490,74 330,00 0,00 31/08/2012
873 355400 FERNANDA HELENA BASQUES OFICIAL DO MP ATIVO SABARÁ - COMARCA; SABARA-PJ-01PJ 4.473,58 447,36 0,00 0,00 0,00 0,00 4.920,94 541,30 447,87 0,00 989,17 3.931,77 330,00 0,00 31/08/2012
874 454800 FERNANDA IATAROLA BARBOSA DIAS ANALISTA DO MP ATIVO BARBACENA - COMARCA; BARBACENA-PJ-01PJ 5.421,69 0,00 0,00 0,00 0,00 0,00 5.421,69 786,74 993,97 0,00 1.780,71 3.640,98 330,00 1.730,50 31/08/2012
875 515500 FERNANDA LILIANE MARUGEIRO ANALISTA DO MP ATIVO VESPASIANO - COMARCA; VESPASIANO-PJ-02PJ 4.332,50 0,00 0,00 0,00 0,00 0,00 4.332,50 476,58 315,43 0,00 792,01 3.540,49 330,00 0,00 31/08/2012
876 392900 FERNANDA MAGALHAES SILVA ANALISTA DO MP ATIVO BELO HORIZONTE - COMARCA; SUPERINTENDENCIA DE COMUNICACAO INTEGRADA 6.069,59 364,18 0,00 0,00 0,00 0,00 6.433,77 707,71 818,14 0,00 1.525,85 4.907,92 330,00 0,00 31/08/2012
877 409200 FERNANDA MAIA SANTIAGO ANALISTA DO MP ATIVO PIRAPORA - COMARCA; PIRAPORA-PJ-02PJ 4.619,20 277,15 0,00 0,00 0,00 0,00 4.896,35 538,60 441,85 0,00 980,45 3.915,90 330,00 0,00 31/08/2012
878 412900 FERNANDA PORTELA ROSA ANALISTA DO MP ATIVO BELO HORIZONTE - COMARCA; BH-08PJ JUIZADO ESPECIAL-SECRETARIA 5.598,22 335,89 0,00 0,00 0,00 0,00 5.934,11 775,86 969,75 0,00 1.745,61 4.188,50 330,00 1.119,14 31/08/2012
879 274301 FERNANDA QUEIROZ PARREIRA ANALISTA DO MP ATIVO PATOS DE MINAS - COMARCA; COORD REG PJ DEF EDU DIR CRI ADO AL PAR NOROE 4.769,54 0,00 0,00 0,00 0,00 0,00 4.769,54 624,00 671,94 0,00 1.295,94 3.473,60 504,82 1.064,93 31/08/2012
880 467900 FERNANDA QUEIROZ SIMOES GANNAM ANALISTA DO MP ATIVO SÃO LOURENÇO - COMARCA; SAO LOURENCO-PJ-04PJ 4.924,85 0,00 0,00 0,00 0,00 0,00 4.924,85 541,73 448,83 0,00 990,56 3.934,29 330,00 0,00 31/08/2012
881 255500 FERNANDA SIMOES LOPES MENDES ANALISTA DO MP ATIVO BELO HORIZONTE - COMARCA; BH-17PJ PATRIMONIO PUBLICO-SECRETARIA 8.361,90 836,19 0,00 0,00 0,00 0,00 9.198,09 1.011,79 1.449,45 0,00 2.461,24 6.736,85 565,00 0,00 31/08/2012
882 481700 FERNANDA VIANA FROES DA SILVA OFICIAL DO MP ATIVO GOVERNADOR VALADARES - COMARCA; GOVERNADOR VALADARES-PJ-09PJ 3.196,81 0,00 0,00 0,00 0,00 0,00 3.196,81 351,65 119,97 0,00 471,62 2.725,19 565,00 0,00 31/08/2012
883 123900 FERNANDO ANTONIO FARIA ABREU DIRETOR/ANALISTA ATIVO BELO HORIZONTE - COMARCA; DIRETORIA-GERAL 18.137,48 19.248,24 0,00 0,00 0,00 0,00 37.385,72 2.652,94 3.023,91 13.268,10 18.944,95 18.440,77 1.937,86 147,39 31/08/2012
884 416900 FERNANDO APARECIDO DA SILVA ANALISTA DO MP ATIVO BOM DESPACHO - COMARCA; BOM DESPACHO-PJ-01PJ 5.598,22 2.239,29 0,00 0,00 0,00 0,00 7.837,51 862,13 1.116,45 0,00 1.978,58 5.858,93 565,00 0,00 31/08/2012
885 395900 FERNANDO AUGUSTO ETO LAGES ANALISTA DO MP ATIVO BELO HORIZONTE - COMARCA; CENTRAL DE APOIO TECN-SETOR DE MEIO AMBIENTE 5.598,22 335,89 0,00 0,00 0,00 0,00 5.934,11 652,75 695,84 0,00 1.348,59 4.585,52 330,00 0,00 31/08/2012
886 380500 FERNANDO BONES COSTA OFICIAL DO MP ATIVO BELO HORIZONTE - COMARCA; EXTINTA - DIVISÃO DE MATERIAL PERMANENTE 3.300,91 198,05 0,00 0,00 0,00 0,00 3.498,96 384,89 160,31 0,00 545,20 2.953,76 330,00 0,00 31/08/2012
887 500100 FERNANDO CEZAR PINTO OFICIAL DO MP ATIVO BELO HORIZONTE - COMARCA; EXTINTA - DIVISÃO DE MATERIAL PERMANENTE 2.812,27 0,00 0,00 0,00 0,00 0,00 2.812,27 309,35 52,60 0,00 361,95 2.450,32 565,00 0,00 31/08/2012
888 346100 FERNANDO EUSTAQUIO CAMPOS UTSCH MOREIRA ANALISTA DO MP ATIVO BELO HORIZONTE - COMARCA; DIRETORIA DE REDES E BANCOS DE DADOS 7.356,10 735,61 0,00 0,00 2.697,24 0,00 10.788,95 1.042,68 2.169,41 0,00 3.212,09 7.576,86 565,00 1.387,20 31/08/2012
889 103500 FERNANDO LUIZ DA SILVA JUNIOR OFICIAL DO MP ATIVO BELO HORIZONTE - COMARCA; DIVISAO DE ATENDIMENTO E CONSULTA JURIDICA 9.814,62 3.925,85 0,00 0,00 0,00 0,00 13.740,47 1.511,45 2.606,45 0,00 4.117,90 9.622,57 330,00 0,00 31/08/2012
890 287300 FERNANDO MARCIO ALVES MARTINS OFICIAL DO MP ATIVO LEOPOLDINA - COMARCA; LEOPOLDINA-PJ-01PJ 4.195,87 419,59 0,00 0,00 0,00 0,00 4.615,46 507,70 261,02 0,00 768,72 3.846,74 330,00 0,00 31/08/2012
891 262200 FERNANDO MARCIO RESENDE PEREIRA COORDENADOR/OFICIAL ATIVO BELO HORIZONTE - COMARCA; BH-12PJ JUIZO CRIMINAL-SECRETARIA 0,00 809,82 8.098,20 0,00 0,00 0,00 8.908,02 590,35 1.530,83 0,00 2.121,18 6.786,84 330,00 0,00 31/08/2012
892 472900 FERNANDO RODRIGUES DE FREITAS ANALISTA DO MP ATIVO SANTA BÁRBARA - COMARCA; SANTA BARBARA-PJ-UNPJ 4.063,61 0,00 0,00 0,00 0,00 0,00 4.063,61 447,00 224,56 0,00 671,56 3.392,05 330,00 0,00 31/08/2012
893 219600 FERNANDO SOARES MIRANDA COORDENADOR/ANALISTA ATIVO BELO HORIZONTE - COMARCA; PROCON-MG-GAB DO COORDENADOR DO PROCON-MG 10.134,20 12.700,26 0,00 0,00 0,00 2.118,05 24.952,51 2.118,05 5.432,44 0,00 7.550,49 17.402,02 3.545,68 294,77 31/08/2012
894 421400 FERNANDO TEODORO MACIEL ANALISTA DO MP ATIVO SANTA VITÓRIA - COMARCA; SANTA VITORIA-PJ-UNPJ 5.085,23 305,11 0,00 0,00 0,00 0,00 5.390,34 694,58 743,65 0,00 1.438,23 3.952,11 628,36 924,00 31/08/2012
895 446300 FERNANDO VITOR DE OLIVEIRA ANALISTA DO MP ATIVO MONTES CLAROS - COMARCA; COORD REG BACIA RIOS VERDE GRANDE E PARDO 5.421,69 0,00 0,00 0,00 0,00 0,00 5.421,69 851,97 1.139,11 0,00 1.991,08 3.430,61 330,00 2.323,50 31/08/2012
896 398400 FLAVIA ALVARES GUIMARAES OFICIAL DO MP ATIVO RIBEIRÃO DAS NEVES - COMARCA; RIBEIRAO DAS NEVES-PJ-01PJ 3.300,91 198,05 0,00 0,00 0,00 0,00 3.498,96 384,89 160,31 0,00 545,20 2.953,76 330,00 0,00 31/08/2012
897 398200 FLAVIA ALVES DE ASSUNCAO RODRIGUES ANALISTA DO MP ATIVO DIVINÓPOLIS - COMARCA; EXTINTA-DIVINÓPOLIS-COORD BACIA ALTO SÃO FRAN 5.598,22 335,89 0,00 0,00 0,00 0,00 5.934,11 652,75 695,84 0,00 1.348,59 4.585,52 330,00 0,00 31/08/2012
898 318500 FLAVIA BEATRIZ NUNES CRUZ VIEIRA ANALISTA DO MP ATIVO BARBACENA - COMARCA; BARBACENA-PJ-SECRETARIA 7.356,10 735,61 0,00 0,00 0,00 0,00 8.091,71 890,09 1.178,66 0,00 2.068,75 6.022,96 565,00 0,00 31/08/2012
899 496500 FLAVIA CARAM BORLIDO ANALISTA DO MP ATIVO BELO HORIZONTE - COMARCA; EXTINTA - DIVISAO DE SERVICOS GERAIS 4.332,50 0,00 0,00 0,00 0,00 0,00 4.332,50 476,58 315,43 0,00 792,01 3.540,49 2.063,00 129,98 31/08/2012
900 219500 FLAVIA CRISTINA ANCELMO OFICIAL DO MP ATIVO BELO HORIZONTE - COMARCA; BH-17PJ PATRIMONIO PUBLICO-SECRETARIA 4.195,87 839,17 0,00 0,00 0,00 0,00 5.035,04 553,85 475,80 0,00 1.029,65 4.005,39 330,00 0,00 31/08/2012
901 329600 FLAVIA CRISTINA DE MATOS XAVIER ANALISTA DO MP ATIVO UBERABA - COMARCA; UBERABA-PJ-15PJ 7.356,10 1.471,22 0,00 0,00 0,00 0,00 8.827,32 971,01 1.313,45 0,00 2.284,46 6.542,86 2.960,96 219,63 31/08/2012
902 207600 FLAVIA DE ANDRADE MANCINI ANALISTA DO MP ATIVO BELO HORIZONTE - COMARCA; ASSESSORIA JURIDICO-ADMINISTRATIVA 9.505,17 1.901,03 0,00 0,00 0,00 0,00 11.406,20 1.254,68 1.989,88 0,00 3.244,56 8.161,64 565,00 0,00 31/08/2012
903 402801 FLAVIA MARIA DE RESENDE NASCIMENTO ANALISTA DO MP ATIVO SÃO JOÃO DEL REI - COMARCA; SAO JOAO DEL REI-PJ-04PJ 4.769,54 0,00 0,00 0,00 0,00 0,00 4.769,54 524,65 410,81 0,00 935,46 3.834,08 330,00 0,00 31/08/2012
904 437500 FLAVIA MARIA TORRES MARCHETTI ANALISTA DO MP ATIVO BELO HORIZONTE - COMARCA; BH-13ª PJ JUÍXO DE TÓXICOS 5.421,69 325,30 0,00 0,00 0,00 0,00 5.746,99 667,95 729,66 0,00 1.397,61 4.349,38 330,00 325,30 31/08/2012
905 386000 FLAVIA NEVES BRIGIDO OFICIAL DO MP ATIVO OURO PRETO - COMARCA; OURO PRETO-PJ-04PJ 3.300,91 198,05 0,00 0,00 0,00 0,00 3.498,96 384,89 160,31 0,00 545,20 2.953,76 330,00 0,00 31/08/2012
906 488600 FLAVIA PEREIRA COSTA ANALISTA DO MP ATIVO BELO HORIZONTE - COMARCA; SERVICO MEDICO-DEPTO PERIC MEDICA SAUDE OCUP 4.924,85 0,00 0,00 0,00 0,00 0,00 4.924,85 575,90 539,09 0,00 1.114,99 3.809,86 330,00 362,39 31/08/2012
907 365400 FLAVIA PEREIRA DA SILVA OFICIAL DO MP ATIVO BELO HORIZONTE - COMARCA; BH-15PJ M AMB 16PJ HAB URB-SECRETARIA 3.691,17 369,12 0,00 0,00 0,00 0,00 4.060,29 446,63 260,92 0,00 707,55 3.352,74 330,00 0,00 31/08/2012
908 515400 FLAVIA RODRIGUES DE OLIVEIRA E SILVA PAIVA ANALISTA DO MP ATIVO CARATINGA - COMARCA; CARATINGA-PJ-01PJ 4.332,50 0,00 0,00 0,00 0,00 0,00 4.332,50 476,58 172,85 0,00 649,43 3.683,07 330,00 0,00 31/08/2012
909 515300 FLAVIA VIEIRA OLIVEIRA ANALISTA DO MP ATIVO BELO HORIZONTE - COMARCA; CAO-CRIMINAL-SECRETARIA 4.769,54 0,00 0,00 0,00 0,00 0,00 4.769,54 524,65 410,81 0,00 935,46 3.834,08 330,00 0,00 31/08/2012
910 377500 FLAVIANA GONCALVES DE OLIVEIRA ANALISTA DO MP ATIVO AÇUCENA - COMARCA; ACUCENA-PJ-UNPJ 6.069,59 364,18 0,00 0,00 0,00 0,00 6.433,77 707,71 818,14 0,00 1.525,85 4.907,92 330,00 0,00 31/08/2012
911 273100 FLAVIANE DOS SANTOS CASTRO OFICIAL DO MP ATIVO NATÉRCIA - COMARCA 4.332,50 433,25 0,00 0,00 0,00 0,00 4.765,75 590,36 435,04 0,00 1.025,40 3.740,35 800,00 651,26 31/08/2012
912 310600 FLAVIANE NAVES ALCANTARA ASSESSOR/OFICIAL ATIVO BELO HORIZONTE - COMARCA; COMB CRIMES PRAT POR AG POL MUN-SECRETARIA 0,00 712,41 7.124,13 0,00 0,00 0,00 7.836,54 595,91 1.234,64 0,00 1.830,55 6.005,99 330,00 0,00 31/08/2012
913 378200 FLAVIANE RIBEIRO BORGES OFICIAL DO MP ATIVO SÃO GONÇALO DO SAPUCAÍ - COMARCA; SAO GONCALO DO SAPUCAI-PJ-02PJ 3.300,91 198,05 0,00 0,00 0,00 0,00 3.498,96 384,89 160,31 0,00 545,20 2.953,76 330,00 0,00 31/08/2012
914 455800 FLAVIO ANTONIO RIBEIRO OFICIAL DO MP ATIVO PASSA TEMPO - COMARCA; PASSA TEMPO-PJ-SECRETARIA 2.637,71 0,00 0,00 0,00 0,00 0,00 2.637,71 290,15 53,29 0,00 343,44 2.294,27 330,00 0,00 31/08/2012
915 458200 FLAVIO AUGUSTO BRAGA SOARES ANALISTA DO MP ATIVO BELO HORIZONTE - COMARCA; DIRETORIA DE MANUTENCAO PREDIAL 4.924,85 0,00 0,00 0,00 0,00 0,00 4.924,85 541,73 448,83 0,00 990,56 3.934,29 330,00 0,00 31/08/2012
916 516500 FLAVIO AUGUSTO RODRIGUES CORREA ANALISTA DO MP ATIVO BELO HORIZONTE - COMARCA; COORD-GERAL DAS PJS POR BACIA HIDRO. DE MG 4.332,50 0,00 0,00 0,00 0,00 0,00 4.332,50 476,58 315,43 0,00 792,01 3.540,49 330,00 0,00 31/08/2012
917 84300 FLAVIO DE FARIA BELTRAO OFICIAL DO MP ATIVO BELO HORIZONTE - COMARCA; DIRETORIA DE ADMINISTRACAO FINANCEIRA 16.277,88 8.138,94 0,00 0,00 0,00 0,00 24.416,82 2.652,94 5.101,00 299,20 8.053,14 16.363,68 330,00 0,00 31/08/2012
918 266600 FLAVIO GUIMARAES LANA ANALISTA DO MP ATIVO BELO HORIZONTE - COMARCA; CENTRAL DE APOIO TECN-SETOR DE MEIO AMBIENTE 6.471,28 647,13 0,00 0,00 0,00 0,00 7.118,41 783,03 985,70 0,00 1.768,73 5.349,68 330,00 0,00 31/08/2012
919 241500 FLAVIO HENRIQUE SILVA MARTINS LAGE OFICIAL DO MP ATIVO BELO HORIZONTE - COMARCA; CAO-DIREITOS HUMANOS E APOIO COMUNITARIO 4.619,20 923,84 0,00 0,00 0,00 0,00 5.543,04 609,73 600,13 0,00 1.209,86 4.333,18 3.545,68 294,77 31/08/2012
920 86700 FLAVIO LUCAS TOMAZ AGENTE DO MP ATIVO BELO HORIZONTE - COMARCA; BH-06PJ JUIZO CIVEL-SECRETARIA 4.332,50 2.166,25 0,00 0,00 0,00 0,00 6.498,75 714,86 495,55 0,00 1.210,41 5.288,34 330,00 0,00 31/08/2012
921 407200 FLAVIO LUCIO MONTEIRO PENA ANALISTA DO MP ATIVO BELO HORIZONTE - COMARCA; DIRETORIA DE IMPRENSA 4.619,20 277,15 0,00 0,00 0,00 0,00 4.896,35 538,60 441,85 0,00 980,45 3.915,90 330,00 0,00 31/08/2012
922 451700 FLAVIO MAGALHAES PEREIRA ANALISTA DO MP ATIVO BELO HORIZONTE - COMARCA; BH-12PJ JUIZO CRIMINAL-GAB 098PJ 5.421,69 0,00 0,00 0,00 0,00 0,00 5.421,69 596,39 570,43 0,00 1.166,82 4.254,87 2.498,68 198,80 31/08/2012
923 481500 FLAVIO NEVES GUELBER DE MACEDO OFICIAL DO MP ATIVO SÃO JOÃO NEPOMUCENO - COMARCA; SAO JOAO NEPOMUCENO-PJ-02PJ 2.903,86 0,00 0,00 0,00 0,00 0,00 2.903,86 375,05 161,68 0,00 536,73 2.367,13 330,00 594,41 31/08/2012
924 278100 FRANCIANE MARY DE SOUZA DOMENICI DE BRITO E CASTRO ANALISTA DO MP ATIVO BELO HORIZONTE - COMARCA; BH-12PJ JUIZO CRIMINAL 8.098,20 809,82 0,00 0,00 0,00 0,00 8.908,02 979,88 1.378,45 0,00 2.358,33 6.549,69 330,00 0,00 31/08/2012
925 192501 FRANCIELLE REIS DE OLIVEIRA ANALISTA DO MP ATIVO PASSOS - COMARCA; PASSOS-PJ-04PJ 7.595,56 759,56 0,00 0,00 0,00 0,00 8.355,12 919,06 1.152,62 0,00 2.071,68 6.283,44 565,00 0,00 31/08/2012
926 523600 FRANCINE MOURA LIMIRIO OFICIAL DO MP ATIVO UBERABA - COMARCA; UBERABA-PJ-02PJ 2.554,55 0,00 0,00 0,00 0,00 0,00 2.554,55 281,00 47,74 0,00 328,74 2.225,81 330,00 0,00 31/08/2012
927 467200 FRANCINI RENNO ANALISTA DO MP ATIVO SILVIANÓPOLIS - COMARCA; SILVIANOPOLIS-PJ-UNPJ 4.473,58 0,00 0,00 0,00 0,00 0,00 4.473,58 492,09 343,69 0,00 835,78 3.637,80 330,00 0,00 31/08/2012
928 189300 FRANCIS BERNARDO DO NASCIMENTO OFICIAL DO MP ATIVO VARGINHA - COMARCA; VARGINHA-PJ-05PJ 7.124,13 1.424,83 0,00 0,00 0,00 0,00 8.548,96 940,39 1.335,83 0,00 2.276,22 6.272,74 330,00 0,00 31/08/2012
929 207800 FRANCISCO CAMPOS PIRES DE MORAIS ANALISTA DO MP ATIVO BELO HORIZONTE - COMARCA; CENTRAL DE APOIO TECN-SETOR DE MEIO AMBIENTE 10.464,02 2.092,80 0,00 0,00 0,00 0,00 12.556,82 1.381,25 2.316,75 0,00 3.698,00 8.858,82 3.239,78 266,73 31/08/2012
930 424200 FRANCISCO DE FREITAS JUNIOR ANALISTA DO MP ATIVO MONTE AZUL - COMARCA; MONTE AZUL-PJ-UNPJ 4.619,20 277,15 0,00 0,00 0,00 0,00 4.896,35 538,60 441,85 0,00 980,45 3.915,90 488,72 0,00 31/08/2012
931 204600 FRANCISCO FERREIRA NOVAIS OFICIAL DO MP ATIVO IPATINGA - COMARCA; IPATINGA-PJ-08PJ 5.421,69 1.626,51 0,00 0,00 0,00 0,00 7.048,20 775,30 878,01 0,00 1.653,31 5.394,89 565,00 0,00 31/08/2012
932 124100 FRANCISCO MARCOS DE CARVALHO RIBEIRO OFICIAL DO MP ATIVO BELO HORIZONTE - COMARCA; COMB CRIMES PRAT POR AG POL MUN-SECRETARIA 10.464,02 9.417,62 0,00 0,00 0,00 2.302,08 22.183,72 2.302,08 4.908,17 0,00 7.210,25 14.973,47 330,00 1.046,40 31/08/2012
933 60500 FRANCISCO OLIMPIO TEIXEIRA AGENTE DO MP ATIVO BELO HORIZONTE - COMARCA; EXTINTA - DIVISAO DE TRANSPORTES 4.195,87 3.356,70 0,00 0,00 0,00 0,00 7.552,57 1.186,85 1.748,46 0,00 2.935,31 4.617,26 565,00 3.237,00 31/08/2012
934 411600 FRANCISCO PAIVA BRITO ANALISTA DO MP ATIVO BELO HORIZONTE - COMARCA; TRIBUNAL DO JURI-07 PJ-02 TRIBUNAL 5.085,23 305,11 0,00 0,00 0,00 0,00 5.390,34 592,94 562,76 0,00 1.155,70 4.234,64 330,00 0,00 31/08/2012
935 515800 FRANCISCO RAFAEL DA SILVA NETO ANALISTA DO MP ATIVO SACRAMENTO - COMARCA; SACRAMENTO-PJ-01PJ 3.935,44 0,00 0,00 0,00 0,00 0,00 3.935,44 432,90 144,53 0,00 577,43 3.358,01 330,00 0,00 31/08/2012
936 515200 FRANCISLEI ELIAS GONCALVES OFICIAL DO MP ATIVO PASSOS - COMARCA; PASSOS-PJ-01PJ 2.554,55 510,91 0,00 0,00 0,00 0,00 3.065,46 337,20 44,81 0,00 382,01 2.683,45 330,00 0,00 31/08/2012
937 443600 FRANCISLEI MARTINS SOUSA ANALISTA DO MP ATIVO TIMÓTEO - COMARCA; TIMOTEO-PJ-01PJ 5.421,69 0,00 0,00 0,00 0,00 0,00 5.421,69 596,39 570,43 0,00 1.166,82 4.254,87 330,00 0,00 31/08/2012
938 424500 FREDERICO AUGUSTO COBRA MULLER ANALISTA DO MP ATIVO POUSO ALEGRE - COMARCA; POUSO ALEGRE-PJ-03PJ 5.598,22 335,89 0,00 0,00 0,00 0,00 5.934,11 652,75 695,84 0,00 1.348,59 4.585,52 330,00 0,00 31/08/2012
939 473100 FREDERICO AUGUSTO LIMA FELICIO ANALISTA DO MP ATIVO CONCEIÇÃO DO MATO DENTRO - COMARCA; CONCEICAO DO MATO DENTRO-PJ-UNPJ 4.473,58 0,00 0,00 0,00 0,00 0,00 4.473,58 492,09 343,69 0,00 835,78 3.637,80 330,00 0,00 31/08/2012
940 318100 FREDERICO BIANCHINI JOVIANO DOS SANTOS ASSESSOR/OFICIAL ATIVO BELO HORIZONTE - COMARCA; PROMOT ESTADUAL DE DEF PATRI CULT E TUR DE MG 0,00 712,41 7.124,13 0,00 0,00 0,00 7.836,54 507,70 1.258,90 0,00 1.766,60 6.069,94 330,00 0,00 31/08/2012
941 124200 FREDERICO DE SOUZA ROCHA OFICIAL DO MP ATIVO ESPINOSA - COMARCA; ESPINOSA-PJ-SECRETARIA 7.842,84 5.489,98 0,00 0,00 0,00 0,00 13.332,82 1.642,62 2.762,53 0,00 4.405,15 8.927,67 597,00 1.600,06 31/08/2012
942 177100 FREDERICO FERNANDES DE ANDRADE ASSESSOR/OFICIAL ATIVO BELO HORIZONTE - COMARCA; DIRETORIA DE SUPORTE E MANUTENCAO 0,00 1.424,83 7.124,13 0,00 0,00 0,00 8.548,96 738,96 1.391,22 0,00 2.130,18 6.418,78 330,00 0,00 31/08/2012
943 456200 FREDERICO FERNANDES PASSOS ANALISTA DO MP ATIVO BELO HORIZONTE - COMARCA; DIRETORIA DE REDES E BANCOS DE DADOS 4.924,85 0,00 0,00 0,00 0,00 0,00 4.924,85 592,81 517,21 0,00 1.110,02 3.814,83 330,00 464,31 31/08/2012
944 400900 FREDERICO LUCIANO BORGES REIS ANALISTA DO MP ATIVO BELO HORIZONTE - COMARCA; DIRETORIA DE SISTEMAS DE INFORMACAO 6.069,59 364,18 0,00 0,00 2.144,59 0,00 8.578,36 852,07 1.729,10 0,00 2.581,17 5.997,19 330,00 1.312,36 31/08/2012
945 466200 FREDERICO LUIS FERNANDES ANALISTA DO MP ATIVO BELO HORIZONTE - COMARCA; BH-12PJ JUIZO CRIMINAL 4.063,61 0,00 0,00 0,00 1.354,54 0,00 5.418,15 447,00 610,54 0,00 1.057,54 4.360,61 330,00 0,00 31/08/2012
946 419700 FREDERICO MECKLER SANTOS ANALISTA DO MP ATIVO CLÁUDIO - COMARCA; CLAUDIO-PJ-UNPJ 5.085,23 305,11 0,00 0,00 0,00 0,00 5.390,34 592,94 562,76 0,00 1.155,70 4.234,64 330,00 0,00 31/08/2012
947 257100 FULVIA HERONVILLE DA SILVA OFICIAL DO MP ATIVO BELO HORIZONTE - COMARCA; DIVISAO DE MEMORIA INSTITUCIONAL 5.250,75 525,08 0,00 0,00 0,00 0,00 5.775,83 635,34 611,85 0,00 1.247,19 4.528,64 2.413,27 169,42 31/08/2012
948 405500 GABRIEL CARVALHO DE ASSIS OFICIAL DO MP ATIVO JUIZ DE FORA - COMARCA; COORD REG PJ ORDEM ECON TRIB ZONA DA MATA-SEC 2.998,37 179,90 0,00 0,00 0,00 0,00 3.178,27 349,61 117,50 0,00 467,11 2.711,16 330,00 0,00 31/08/2012
949 397200 GABRIEL DEIVID MARTINS LEITE OFICIAL DO MP ATIVO MONTE CARMELO - COMARCA; MONTE CARMELO-PJ-02PJ 3.574,80 214,49 0,00 0,00 0,00 0,00 3.789,29 416,82 206,66 0,00 623,48 3.165,81 369,76 0,00 31/08/2012
950 386800 GABRIELA SIMOES CHAVES ANALISTA DO MP ATIVO BELO HORIZONTE - COMARCA; EXTINTA - DIVISÃO DE COMPRAS 6.069,59 364,18 0,00 0,00 0,00 0,00 6.433,77 707,71 818,14 0,00 1.525,85 4.907,92 330,00 0,00 31/08/2012
951 248600 GABRIELA TERESA DIAS DE MORAIS ANALISTA DO MP ATIVO BELO HORIZONTE - COMARCA; PROC. JUSTICA DE HABEAS CORPUS 9.205,45 1.841,09 0,00 0,00 0,00 0,00 11.046,54 1.316,38 2.172,42 0,00 3.488,80 7.557,74 565,00 920,55 31/08/2012
952 449700 GABRIELE COSTA FERREIRA OFICIAL DO MP ATIVO BELO HORIZONTE - COMARCA; DIRETORIA DE ORCAMENTO-DIOR/SPC 2.903,86 0,00 0,00 0,00 0,00 0,00 2.903,86 319,42 80,87 0,00 400,29 2.503,57 330,00 0,00 31/08/2012
953 357600 GABRIELLA CRUZ EMRICH OFICIAL DO MP ATIVO BELO HORIZONTE - COMARCA; BH-12PJ JUIZO CRIMINAL 3.408,38 340,84 0,00 0,00 0,00 0,00 3.749,22 412,41 198,63 0,00 611,04 3.138,18 330,00 0,00 31/08/2012
954 470600 GABRIELLA SPIRANDELLI COIMBRA ANALISTA DO MP ATIVO UBERLÂNDIA - COMARCA; UBERLANDIA-PJ-19PJ 4.924,85 0,00 0,00 0,00 0,00 0,00 4.924,85 541,73 448,83 0,00 990,56 3.934,29 330,00 0,00 31/08/2012
955 86000 GASPAR GOMES DE SOUSA AGENTE DO MP ATIVO BELO HORIZONTE - COMARCA; BH-15PJ M AMB PAT HIST CULT-RECEPCAO 16.277,88 11.394,51 0,00 0,00 0,00 0,00 27.672,39 2.652,94 5.146,26 3.554,77 11.353,97 16.318,42 1.937,86 147,39 31/08/2012
956 183100 GECIELLE FERNANDA SILVA OFICIAL DO MP ATIVO PITANGUI - COMARCA; PITANGUI-PJ-02PJ 7.124,13 1.424,83 0,00 0,00 0,00 0,00 8.548,96 940,39 1.245,32 0,00 2.185,71 6.363,25 330,00 0,00 31/08/2012
957 387300 GEOFFREY GIULLIANO OLIVEIRA ALMEIDA ANALISTA DO MP ATIVO JANAÚBA - COMARCA; JANAUBA-PJ-03PJ 5.598,22 335,89 0,00 0,00 0,00 0,00 5.934,11 652,75 695,84 0,00 1.348,59 4.585,52 330,00 0,00 31/08/2012
958 277700 GEORGIA CRISTINA BASILIO MEDRADO ANALISTA DO MP ATIVO BELO HORIZONTE - COMARCA; SERVICO MEDICO-DEPTO PERIC MEDICA SAUDE OCUP 7.595,56 759,56 0,00 0,00 0,00 0,00 8.355,12 919,06 1.243,13 0,00 2.162,19 6.192,93 330,00 0,00 31/08/2012
959 512100 GEOVANI VICENTIN ANALISTA DO MP ATIVO SANTA RITA DE CALDAS - COMARCA; SANTA RITA DE CALDAS-PJ-UNPJ 4.332,50 0,00 0,00 0,00 0,00 0,00 4.332,50 476,58 315,43 0,00 792,01 3.540,49 330,00 0,00 31/08/2012
960 116300 GEOVANNA DAS GRACAS ROSA REQUEIJO AGENTE DO MP ATIVO SANTA LUZIA - COMARCA; SANTA LUZIA-PJ-06PJ 10.619,67 3.185,90 0,00 0,00 0,00 0,00 13.805,57 1.518,61 2.486,62 0,00 4.005,23 9.800,34 565,00 0,00 31/08/2012
961 207200 GERALDO AFONSO DE MOURA CALDEIRA ANALISTA DO MP ATIVO BELO HORIZONTE - COMARCA; BH-17PJ PATRIMONIO PUBLICO 10.464,02 2.092,80 0,00 0,00 0,00 1.381,25 13.938,07 1.381,25 2.696,60 0,00 4.077,85 9.860,22 330,00 0,00 31/08/2012
962 274901 GERALDO ANDRE DE OLIVEIRA ANALISTA DO MP ATIVO CONTAGEM - COMARCA; CONTAGEM-PJ-18PJ 4.063,61 406,36 0,00 0,00 0,00 0,00 4.469,97 512,37 396,43 0,00 908,80 3.561,17 414,59 241,32 31/08/2012
963 270900 GERALDO BATISTA BRITES OFICIAL DO MP ATIVO BOM DESPACHO - COMARCA; BOM DESPACHO-PJ-01PJ 5.085,23 1.017,05 0,00 0,00 0,00 0,00 6.102,28 671,25 646,50 0,00 1.317,75 4.784,53 565,00 0,00 31/08/2012
964 204200 GERALDO CELIO ARAUJO SOARES OFICIAL DO MP ATIVO GOVERNADOR VALADARES - COMARCA; GOVERNADOR VALADARES-PJ-12PJ 7.124,13 1.424,83 0,00 0,00 0,00 0,00 8.548,96 940,39 1.290,57 0,00 2.230,96 6.318,00 565,00 0,00 31/08/2012
965 66900 GERALDO DIAS CYRINO OFICIAL DO MP ATIVO BELO HORIZONTE - COMARCA; BH-14PJ DEFESA CONSUMIDOR-SECRETARIA 10.464,02 5.232,01 0,00 0,00 0,00 0,00 15.696,03 1.726,56 3.039,82 0,00 4.766,38 10.929,65 330,00 0,00 31/08/2012
966 366500 GERALDO LEVY ROMUALDO DA SILVA OFICIAL DO MP ATIVO RIO POMBA - COMARCA; RIO POMBA-PJ-SECRETARIA 3.408,38 340,84 0,00 0,00 0,00 0,00 3.749,22 412,41 198,63 0,00 611,04 3.138,18 330,00 0,00 31/08/2012
967 278400 GERALDO MAGELA RAMALHO OFICIAL DO MP ATIVO VISCONDE DO RIO BRANCO - COMARCA; VISCONDE DO RIO BRANCO-PJ-03PJ 3.691,17 369,12 0,00 0,00 1.353,43 0,00 5.413,72 446,63 609,42 0,00 1.056,05 4.357,67 370,96 0,00 31/08/2012
968 124300 GERALDO MARCIO GOMES DA SILVA COORDENADOR/ANALISTA ATIVO BELO HORIZONTE - COMARCA; EXTINTA - DIRETORIA SERVIÇOS GERAIS E TRANS 15.658,01 15.103,93 0,00 0,00 0,00 0,00 30.761,94 2.652,94 4.919,99 6.644,32 14.217,25 16.544,69 3.545,68 294,77 31/08/2012
969 124400 GERALDO MAURICIO DE FARIA ROCHA OFICIAL DO MP ATIVO BELO HORIZONTE - COMARCA; CAO-CONFLITOS AGRARIOS 6.471,28 3.235,64 0,00 0,00 0,00 0,00 9.706,92 1.211,29 1.848,08 0,00 3.059,37 6.647,55 330,00 1.304,81 31/08/2012
970 472800 GERALDO MONTEIRO CAMARGO JUNIOR ANALISTA DO MP ATIVO ESPINOSA - COMARCA; ESPINOSA-PJ-UNPJ 4.063,61 812,72 0,00 0,00 0,00 0,00 4.876,33 581,10 536,41 0,00 1.117,51 3.758,82 3.255,80 674,56 31/08/2012
971 124500 GERALDO ROGERIO GOMES SILVEIRA COORDENADOR/OFICIAL ATIVO BELO HORIZONTE - COMARCA; DIRETORIA DE PESSOAL ADMINISTRATIVO - DPAD 8.098,20 8.062,16 0,00 0,00 0,00 0,00 16.160,36 1.514,36 3.225,87 0,00 4.740,23 11.420,13 330,00 0,00 31/08/2012
972 445900 GERALDO TAVARES FERREIRA ANALISTA DO MP ATIVO FORMIGA - COMARCA; FORMIGA-PJ-SECRETARIA 4.924,85 0,00 0,00 0,00 0,00 0,00 4.924,85 541,73 448,83 0,00 990,56 3.934,29 330,00 0,00 31/08/2012
973 521000 GERALDO VINICIUS IRENO ANALISTA DO MP ATIVO CURVELO - COMARCA; CURVELO-PJ-01PJ 4.332,50 0,00 0,00 0,00 0,00 0,00 4.332,50 476,58 315,43 0,00 792,01 3.540,49 330,00 0,00 31/08/2012
974 325400 GERSONI FERREIRA LUCENA OFICIAL DO MP ATIVO POÇOS DE CALDAS - COMARCA; POCOS DE CALDAS-PJ-01PJ 4.195,87 419,59 0,00 0,00 0,00 0,00 4.615,46 603,85 496,52 0,00 1.100,37 3.515,09 565,00 874,05 31/08/2012
975 445600 GERUSA E SILVA CASTRO LOPEZ ANALISTA DO MP ATIVO BELO HORIZONTE - COMARCA; ASSESSORIA JURIDICO-ADMINISTRATIVA 4.924,85 0,00 0,00 0,00 1.641,62 0,00 6.566,47 541,73 900,27 0,00 1.442,00 5.124,47 330,00 0,00 31/08/2012
976 522600 GEYZIMAR RIBEIRO FERREIRA OFICIAL DO MP ATIVO ITABIRA - COMARCA; ITABIRA-PJ-01PJ 2.554,55 0,00 0,00 0,00 0,00 0,00 2.554,55 281,00 34,96 0,00 315,96 2.238,59 565,00 0,00 31/08/2012
977 468600 GILDA MARIA SANTOS DE FILIPPO OFICIAL DO MP ATIVO UBÁ - COMARCA; COORD REG BACIA DO RIO PARAIBA DO SUL 3.196,81 0,00 0,00 0,00 0,00 0,00 3.196,81 351,65 119,97 0,00 471,62 2.725,19 330,00 0,00 31/08/2012
978 508300 GILMAR ALVES FERREIRA OFICIAL DO MP ATIVO BELO HORIZONTE - COMARCA; BH-13ª PJ JUÍXO DE TÓXICOS 2.554,55 0,00 0,00 0,00 0,00 0,00 2.554,55 281,00 47,74 0,00 328,74 2.225,81 330,00 0,00 31/08/2012
979 455400 GILMAR DIAS NASCIMENTO OFICIAL DO MP ATIVO SÃO FRANCISCO - COMARCA; SAO FRANCISCO-PJ-01PJ 2.637,71 0,00 0,00 0,00 0,00 0,00 2.637,71 290,15 53,29 0,00 343,44 2.294,27 562,96 0,00 31/08/2012
980 213000 GILMAR JOSE DA SILVA OFICIAL DO MP ATIVO DIVINÓPOLIS - COMARCA; DIVINOPOLIS-PJ-SECRETARIA 7.124,13 1.424,83 0,00 0,00 0,00 0,00 8.548,96 940,39 1.335,83 0,00 2.276,22 6.272,74 330,00 0,00 31/08/2012
981 496900 GILSON NOGUEIRA GUIMARAES ANALISTA DO MP ATIVO MANHUMIRIM - COMARCA; MANHUMIRIM-PJ-01PJ 4.769,54 0,00 0,00 0,00 0,00 0,00 4.769,54 524,65 410,81 0,00 935,46 3.834,08 3.545,68 294,77 31/08/2012
982 476600 GIMENNI JULIANA VILELA MACHADO MOREIRA OFICIAL DO MP ATIVO CONTAGEM - COMARCA; CONTAGEM-PJ-12PJ 2.903,86 0,00 0,00 0,00 0,00 0,00 2.903,86 319,42 58,71 0,00 378,13 2.525,73 565,00 0,00 31/08/2012
983 391700 GIORDANI LOPES TAVARES ANALISTA DO MP ATIVO BELO HORIZONTE - COMARCA; DIRETORIA DE FISCALIZACAO DE OBRAS 6.069,59 364,18 0,00 0,00 0,00 0,00 6.433,77 707,71 818,14 0,00 1.525,85 4.907,92 330,00 0,00 31/08/2012
984 251300 GIOVANE SOUZA PEREIRA OFICIAL DO MP ATIVO PARAGUAÇU - COMARCA; PARAGUACU-PJ-SECRETARIA 4.332,50 433,25 0,00 0,00 1.588,58 0,00 6.354,33 695,07 1.226,86 0,00 1.921,93 4.432,40 480,29 1.566,83 31/08/2012
985 438800 GIOVANNA BRANDAO DE ARAUJO ANALISTA DO MP ATIVO ALMENARA - COMARCA; ALMENARA-PJ-01PJ 4.924,85 0,00 0,00 0,00 0,00 0,00 4.924,85 541,73 448,83 0,00 990,56 3.934,29 330,00 0,00 31/08/2012
986 243400 GIOVANNA FRANCA BISTENE ASSESSOR/OFICIAL ATIVO BELO HORIZONTE - COMARCA; ASSESS EXECUTIVA DO CONSELHO SUPERIOR DO MP 0,00 1.119,64 5.598,22 0,00 0,00 0,00 6.717,86 738,96 797,16 0,00 1.536,12 5.181,74 800,00 0,00 31/08/2012
987 124600 GIOVANNI ANANIAS CAMILO DO VALLE ANALISTA DO MP ATIVO OLIVEIRA - COMARCA; OLIVEIRA-PJ-01PJ 11.931,59 5.965,80 0,00 0,00 0,00 0,00 17.897,39 1.968,71 3.623,86 0,00 5.592,57 12.304,82 354,00 0,00 31/08/2012
988 366700 GIOVANNI DE SOUZA ANDRADE OFICIAL DO MP ATIVO PASSOS - COMARCA; PASSOS-PJ-01PJ 3.408,38 340,84 0,00 0,00 0,00 0,00 3.749,22 412,41 119,67 0,00 532,08 3.217,14 330,00 0,00 31/08/2012
989 124700 GIOVANNI REIS CONDE OFICIAL DO MP ATIVO MERCÊS - COMARCA; MERCES-PJ-SECRETARIA 4.619,20 3.233,44 0,00 0,00 0,00 0,00 7.852,64 863,79 619,95 0,00 1.483,74 6.368,90 330,00 0,00 31/08/2012
990 219000 GIRLEI DE FATIMA SOUSA ASSESSOR ATIVO BELO HORIZONTE - COMARCA; BH-17PJ PATRIMONIO PUBLICO 0,00 1.568,57 7.842,84 0,00 0,00 0,00 9.411,41 430,78 1.713,14 0,00 2.143,92 7.267,49 330,00 0,00 31/08/2012
991 444600 GISELE ADRIANE FONSECA ANALISTA DO MP ATIVO BETIM - COMARCA; BETIM-PJ-03PJ 5.421,69 0,00 0,00 0,00 0,00 0,00 5.421,69 596,39 570,43 0,00 1.166,82 4.254,87 330,00 0,00 31/08/2012
992 445100 GISELE DE CAMPOS VERSIANI ASSESSOR/OFICIAL ATIVO BELO HORIZONTE - COMARCA; DIRET DE INFORMACAO E EXPEDICAO DE PROCESSOS 0,00 0,00 7.124,13 0,00 0,00 0,00 7.124,13 351,65 1.105,90 0,00 1.457,55 5.666,58 330,00 0,00 31/08/2012
993 423000 GISELE MEGALE SANTINI ANALISTA DO MP ATIVO BELO HORIZONTE - COMARCA; BH-09PJ AUDITORIA MILITAR-SECRETARIA 5.598,22 335,89 0,00 0,00 0,00 0,00 5.934,11 652,75 695,84 0,00 1.348,59 4.585,52 330,00 0,00 31/08/2012
994 425300 GISELE MENEZES RIBEIRO DE OLIVEIRA ANALISTA DO MP ATIVO SANTA LUZIA - COMARCA; SANTA LUZIA-PJ-01PJ 5.085,23 305,11 0,00 0,00 0,00 0,00 5.390,34 592,94 517,50 0,00 1.110,44 4.279,90 330,00 0,00 31/08/2012
995 116500 GISELIA MARIA GABRIEL DE PAULA OFICIAL DO MP ATIVO BELO HORIZONTE - COMARCA; EXTINTA - SECRETARIA ADMINISTRATIVA 7.595,56 5.316,90 0,00 0,00 0,00 1.587,47 14.499,93 1.587,47 3.384,48 0,00 4.971,95 9.527,98 330,00 2.145,76 31/08/2012
996 478200 GISELLE BRESCIA SOARES DE SOUZA CUNHA ANALISTA DO MP ATIVO ITAÚNA - COMARCA; ITAUNA-PJ-04PJ 4.473,58 0,00 0,00 0,00 0,00 0,00 4.473,58 492,09 306,66 0,00 798,75 3.674,83 565,00 0,00 31/08/2012
997 289300 GISELLE CASTRO MACHADO ANALISTA DO MP ATIVO BELO HORIZONTE - COMARCA; EXTINTA - SECRETARIA ADMINISTRATIVA 5.421,69 542,17 0,00 0,00 0,00 0,00 5.963,86 656,02 703,13 0,00 1.359,15 4.604,71 330,00 0,00 31/08/2012
998 345400 GISELLE CORREIA BORGES ANALISTA DO MP ATIVO BELO HORIZONTE - COMARCA; SUPERINTENDENCIA DE COMUNICACAO INTEGRADA 7.356,10 735,61 0,00 0,00 0,00 0,00 8.091,71 890,09 1.223,92 0,00 2.114,01 5.977,70 330,00 0,00 31/08/2012
999 399100 GISELLE DE VIVEIROS LEITAO OFICIAL DO MP ATIVO MATIAS BARBOSA - COMARCA; MATIAS BARBOSA-PJ-SECRETARIA 3.300,91 198,05 0,00 0,00 0,00 0,00 3.498,96 384,89 160,31 0,00 545,20 2.953,76 330,00 0,00 31/08/2012
1000 357401 GISELLE GUIMARAES DE OLIVEIRA REZENDE ANALISTA DO MP ATIVO BELO HORIZONTE - COMARCA; COMB CRIMES PRAT POR AG POL MUN-ASSESSORIA 6.069,59 364,18 0,00 0,00 0,00 0,00 6.433,77 707,71 818,14 0,00 1.525,85 4.907,92 3.545,68 294,77 31/08/2012
1001 492200 GISELLE MUNIZ DE AGUIAR ANALISTA DO MP ATIVO BRASÍLIA DE MINAS - COMARCA; BRASILIA DE MINAS-PJ-02PJ 4.473,58 0,00 0,00 0,00 0,00 0,00 4.473,58 519,51 412,31 0,00 931,82 3.541,76 330,00 296,27 31/08/2012
1002 520300 GISELLE NORMANDIA GONCALVES ANALISTA DO MP ATIVO SANTO ANTÔNIO DO MONTE - COMARCA; SANTO ANTONIO DO MONTE-PJ-UNPJ 4.332,50 0,00 0,00 0,00 0,00 0,00 4.332,50 476,58 315,43 0,00 792,01 3.540,49 330,00 0,00 31/08/2012
1003 112300 GISELLE VILELA RIBEIRO AGENTE DO MP ATIVO BELO HORIZONTE - COMARCA; BH-07PJ 01 TRIBUNAL DO JURI 7.595,56 3.797,78 0,00 0,00 0,00 0,00 11.393,34 1.253,27 2.031,99 0,00 3.285,26 8.108,08 330,00 0,00 31/08/2012
1004 459800 GISELLI FERNANDES COSTA ANALISTA DO MP ATIVO GOVERNADOR VALADARES - COMARCA; GOVERNADOR VALADARES-PJ-08PJ 4.924,85 984,97 0,00 0,00 0,00 0,00 5.909,82 650,08 689,90 0,00 1.339,98 4.569,84 330,00 0,00 31/08/2012
1005 149600 GISLAINE FERNANDES MAGNO OFICIAL DO MP ATIVO BELO HORIZONTE - COMARCA; SUPRIN DE FORMACAO E APERFEICOAMENTO-SFA/CEAF 7.595,56 2.278,67 0,00 0,00 0,00 0,00 9.874,23 1.086,17 1.569,68 0,00 2.655,85 7.218,38 330,00 0,00 31/08/2012
1006 85800 GISLANDIA MARTINS ABREU E SILVA OFICIAL DO MP ATIVO BELO HORIZONTE - COMARCA; JUNTA RECURSAL DO PROCON ESTADUAL 18.757,35 7.502,95 0,00 0,00 0,00 0,00 26.260,30 2.652,94 5.055,75 2.142,68 9.851,37 16.408,93 1.937,86 147,39 31/08/2012
1007 112700 GISLEIA MARTINS DA SILVA OFICIAL DO MP ATIVO BELO HORIZONTE - COMARCA; ASSESSORIA ESPECIAL DO PGJ 7.595,56 3.038,23 0,00 0,00 0,00 0,00 10.633,79 1.169,72 1.710,33 0,00 2.880,05 7.753,74 565,00 0,00 31/08/2012
1008 250100 GISLEIDE GONALVES DE OLIVEIRA OFICIAL DO MP ATIVO JANAÚBA - COMARCA; JANAUBA-PJ-01PJ 4.924,85 492,49 0,00 0,00 0,00 0,00 5.417,34 595,91 569,36 0,00 1.165,27 4.252,07 330,00 0,00 31/08/2012
1009 335300 GISLENE FAUSTINO DIAS DE ALMEIDA OFICIAL DO MP ATIVO UBERLÂNDIA - COMARCA; UBERLANDIA-COORD CONJ-FAMÍLIA E JUIZ ESP CRIM 4.619,20 461,92 0,00 0,00 0,00 0,00 5.081,12 558,92 487,08 0,00 1.046,00 4.035,12 330,00 0,00 31/08/2012
1010 492400 GISLENE GOMIDE GUIMARAES CREPALDE ANALISTA DO MP ATIVO CARATINGA - COMARCA; CARATINGA-PJ-05PJ 4.924,85 0,00 0,00 0,00 0,00 0,00 4.924,85 632,65 705,41 0,00 1.338,06 3.586,79 330,00 1.023,94 31/08/2012
1011 329800 GISLENE MENDES MARTINS OFICIAL DO MP ATIVO BELO HORIZONTE - COMARCA; BH-17PJ PATRIMONIO PUBLICO-SECRETARIA 4.769,54 476,95 0,00 0,00 0,00 0,00 5.246,49 763,66 969,74 0,00 1.733,40 3.513,09 330,00 1.794,50 31/08/2012
1012 327200 GISLEY CERQUEIRA SCAPOLATEMPORE BERNIS ASSESSOR/OFICIAL ATIVO BELO HORIZONTE - COMARCA; CGMP-DIVIS DE APOIO FISC ORIENTACAO FUNCIONAL 0,00 784,28 7.842,84 0,00 0,00 0,00 8.627,12 590,23 1.453,61 0,00 2.043,84 6.583,28 330,00 0,00 31/08/2012
1013 525300 GIULIANO LOMBARDI ASSUMPCAO OFICIAL DO MP ATIVO CONTAGEM - COMARCA; CONTAGEM-PJ-01PJ 2.554,55 0,00 0,00 0,00 0,00 0,00 2.554,55 281,00 47,74 0,00 328,74 2.225,81 330,00 0,00 31/08/2012
1014 503100 GIULLIANA MATTIOLI OFICIAL DO MP ATIVO ITAJUBA - COMARCA; ITAJUBA-PJ-02PJ 2.812,27 0,00 0,00 0,00 0,00 0,00 2.812,27 309,35 52,60 0,00 361,95 2.450,32 1.719,91 28,12 31/08/2012
1015 459300 GLADSON LIMA DE SOUZA OFICIAL DO MP ATIVO PATOS DE MINAS - COMARCA; PATOS DE MINAS-PJ-05PJ 2.637,71 0,00 0,00 0,00 0,00 0,00 2.637,71 290,15 53,29 0,00 343,44 2.294,27 330,00 0,00 31/08/2012
1016 148300 GLADSTON ALMEIDA CAJA AGENTE DO MP ATIVO BELO HORIZONTE - COMARCA; PROCON-MG-SECRETARIA DE FISCALIZACOES 5.085,23 2.034,09 0,00 0,00 0,00 0,00 7.119,32 930,79 1.223,98 0,00 2.154,77 4.964,55 330,00 1.342,44 31/08/2012
1017 333800 GLADSTON CIRILO TAVARES GOMES OFICIAL DO MP ATIVO JUIZ DE FORA - COMARCA; JUIZ DE FORA-PJ-24PJ 4.195,87 419,59 0,00 0,00 0,00 0,00 4.615,46 507,70 373,10 0,00 880,80 3.734,66 330,00 0,00 31/08/2012
1018 391600 GLAUBER COELHO CARVALHO ANALISTA DO MP ATIVO JANUÁRIA - COMARCA; JANUARIA-PJ-02PJ 6.069,59 364,18 0,00 0,00 0,00 0,00 6.433,77 707,71 818,14 0,00 1.525,85 4.907,92 330,00 0,00 31/08/2012
1019 478700 GLAUCIA TAVARES ANALISTA DO MP ATIVO RIBEIRÃO DAS NEVES - COMARCA; RIBEIRAO DAS NEVES-PJ-03PJ 4.063,61 0,00 0,00 0,00 0,00 0,00 4.063,61 447,00 261,59 0,00 708,59 3.355,02 330,00 0,00 31/08/2012
1020 263800 GLAUDITON FERREIRA DE MATOS ASSESSOR ATIVO BELO HORIZONTE - COMARCA; DIRETORIA DE SUPORTE E MANUTENCAO 0,00 351,93 3.519,31 0,00 0,00 0,00 3.871,24 405,36 227,67 0,00 633,03 3.238,21 1.878,50 116,14 31/08/2012
1021 444500 GLAYSSON PEREIRA DA COSTA ANALISTA DO MP ATIVO CONTAGEM - COMARCA; CONTAGEM-PJ-APO TECNICO 5.421,69 1.084,34 0,00 0,00 0,00 0,00 6.506,03 715,66 835,82 0,00 1.551,48 4.954,55 330,00 0,00 31/08/2012
1022 238900 GLEICE LUCIA FRANCO OFICIAL DO MP ATIVO BELO HORIZONTE - COMARCA; BH-13ª PJ JUÍXO DE TÓXICOS 5.598,22 1.119,64 0,00 0,00 0,00 0,00 6.717,86 738,96 887,67 0,00 1.626,63 5.091,23 330,00 0,00 31/08/2012
1023 276400 GLEICE RENATA DE AMORIM FREITAS OFICIAL DO MP ATIVO BELO HORIZONTE - COMARCA; CGMP-DIVISAO DE APOIO ADMINISTRATIVO 5.085,23 508,52 0,00 0,00 0,00 0,00 5.593,75 646,95 682,94 0,00 1.329,89 4.263,86 330,00 287,64 31/08/2012
1024 410900 GLEICIANE GARCIA LAGARES RESENDE ANALISTA DO MP ATIVO IPATINGA - COMARCA; IPATINGA-PJ-03PJ 4.619,20 277,15 0,00 0,00 0,00 0,00 4.896,35 538,60 441,85 0,00 980,45 3.915,90 565,00 0,00 31/08/2012
1025 423200 GLEISON SOUZA CREPALDE ANALISTA DO MP ATIVO RAUL SOARES - COMARCA; RAUL SOARES-PJ-UNPJ 5.598,22 335,89 0,00 0,00 0,00 0,00 5.934,11 652,75 695,84 0,00 1.348,59 4.585,52 330,00 0,00 31/08/2012
1026 452200 GLEISY ANDRADE MORAIS ANALISTA DO MP ATIVO BELO HORIZONTE - COMARCA; COMB CRIMES PRAT POR AG POL MUN-ASSESSORIA 5.421,69 0,00 0,00 0,00 0,00 0,00 5.421,69 596,39 570,43 0,00 1.166,82 4.254,87 330,00 0,00 31/08/2012
1027 476500 GRACIELLY MARTINS PARREIRA PORTO ANALISTA DO MP ATIVO PASSOS - COMARCA; PASSOS-PJ-03PJ 4.924,85 0,00 0,00 0,00 0,00 0,00 4.924,85 541,73 403,57 0,00 945,30 3.979,55 330,00 0,00 31/08/2012
1028 491700 GRAZIELA COLARES LUZ SUSKI ANALISTA DO MP ATIVO BELO HORIZONTE - COMARCA; BH-18PJ VIOLENCIA DOMESTICA-SECRETARIA 4.924,85 0,00 0,00 0,00 0,00 0,00 4.924,85 560,53 504,88 0,00 1.065,41 3.859,44 330,00 222,61 31/08/2012
1029 421700 GRAZIELI DE SOUSA OLIVEIRA ANALISTA DO MP ATIVO RIBEIRÃO DAS NEVES - COMARCA; RIBEIRAO DAS NEVES-PJ-02PJ 5.598,22 335,89 0,00 0,00 0,00 0,00 5.934,11 652,75 695,84 0,00 1.348,59 4.585,52 330,00 0,00 31/08/2012
1030 401800 GRAZIELLA CRISTINA DE SOUZA COUTO ANALISTA DO MP ATIVO ALÉM PARAÍBA - COMARCA; ALEM PARAIBA-PJ-01PJ 6.069,59 364,18 0,00 0,00 0,00 0,00 6.433,77 1.031,39 1.538,30 0,00 2.569,69 3.864,08 330,00 2.942,46 31/08/2012
1031 518000 GRAZIELLA LEDO DE PAULA OFICIAL DO MP ATIVO PALMA - COMARCA; PALMA-PJ-UNPJ 2.554,55 0,00 0,00 0,00 0,00 0,00 2.554,55 281,00 47,74 0,00 328,74 2.225,81 550,16 0,00 31/08/2012
1032 489100 GRAZIELLE HELEN FERREIRA BRANDAO OFICIAL DO MP ATIVO BELO HORIZONTE - COMARCA; EXTINTA - PROTOCOLO DA PGJ 3.196,81 0,00 0,00 0,00 0,00 0,00 3.196,81 351,65 119,97 0,00 471,62 2.725,19 330,00 0,00 31/08/2012
1033 465400 GRAZZIELA DE OLIVEIRA E SOUSA LACERDA ANALISTA DO MP ATIVO ALMENARA - COMARCA; ALMENARA-PJ-03PJ 4.473,58 0,00 0,00 0,00 0,00 0,00 4.473,58 492,09 343,69 0,00 835,78 3.637,80 330,00 0,00 31/08/2012
1034 124800 GUARACI BARBOZA RIBEIRO OFICIAL DO MP ATIVO UBERLÂNDIA - COMARCA; UBERLANDIA-PJ-13PJ 7.595,56 5.316,90 0,00 0,00 0,00 0,00 12.912,46 1.420,37 2.268,03 0,00 3.688,40 9.224,06 330,00 0,00 31/08/2012
1035 116100 GUILHERME ANTONIO FURTADO OLIVEIRA OFICIAL DO MP ATIVO BELO HORIZONTE - COMARCA; DIRET DE INFORMACAO E EXPEDICAO DE PROCESSOS 10.134,20 4.053,68 0,00 0,00 0,00 0,00 14.187,88 1.560,67 2.715,95 0,00 4.276,62 9.911,26 330,00 0,00 31/08/2012
1036 422900 GUILHERME CORREA LAGROTTA ANALISTA DO MP ATIVO LAMBARI - COMARCA; LAMBARI-PJ-UNPJ 5.085,23 305,11 0,00 0,00 0,00 0,00 5.390,34 592,94 562,76 0,00 1.155,70 4.234,64 3.545,68 294,77 31/08/2012
1037 502300 GUILHERME DAHER DE ALMEIDA JUNQUEIRA ANALISTA DO MP ATIVO LAVRAS - COMARCA; COORD REG DO MA DA BACIA DO RIO GRANDE 3.935,44 0,00 0,00 0,00 1.311,81 0,00 5.247,25 432,90 567,42 0,00 1.000,32 4.246,93 565,00 0,00 31/08/2012
1038 476100 GUILHERME FIDELIS MARQUES ANALISTA DO MP ATIVO JABOTICATUBAS - COMARCA; JABOTICATUBAS-PJ-UNPJ 4.332,50 0,00 0,00 0,00 0,00 0,00 4.332,50 476,58 315,43 0,00 792,01 3.540,49 330,00 0,00 31/08/2012
1039 448000 GUILHERME LACERDA RIBEIRO ANALISTA DO MP ATIVO BELO HORIZONTE - COMARCA; DIRETORIA DE SISTEMAS DE INFORMACAO 5.421,69 0,00 0,00 0,00 0,00 0,00 5.421,69 596,39 570,43 0,00 1.166,82 4.254,87 330,00 0,00 31/08/2012
1040 380600 GUILHERME RIBEIRO JOAQUIM OFICIAL DO MP ATIVO CACHOEIRA DE MINAS - COMARCA; CACHOEIRA DE MINAS-PJ-SECRETARIA 2.998,37 179,90 0,00 0,00 0,00 0,00 3.178,27 349,61 117,50 0,00 467,11 2.711,16 330,00 0,00 31/08/2012
1041 490900 GUSTAVO DE CARVALHO HERZOG ANALISTA DO MP ATIVO BELO HORIZONTE - COMARCA; BH-18PJ VIOLENCIA DOMESTICA-SECRETARIA 4.473,58 0,00 0,00 0,00 0,00 0,00 4.473,58 513,30 398,50 0,00 911,80 3.561,78 330,00 239,84 31/08/2012
1042 431100 GUSTAVO DE SOUZA RIBEIRO ANALISTA DO MP ATIVO UBERLÂNDIA - COMARCA; UBERLANDIA-PJ-19PJ 5.085,23 305,11 0,00 0,00 0,00 0,00 5.390,34 592,94 562,76 0,00 1.155,70 4.234,64 330,00 0,00 31/08/2012
1043 506300 GUSTAVO GOMES FREIRE OFICIAL DO MP ATIVO OURO PRETO - COMARCA; OURO PRETO-PJ-02PJ 2.554,55 0,00 0,00 0,00 0,00 0,00 2.554,55 281,00 47,74 0,00 328,74 2.225,81 330,00 0,00 31/08/2012
1044 368200 GUSTAVO MESQUITA PEREIRA VARGAS ANALISTA DO MP ATIVO BELO HORIZONTE - COMARCA; ASSESS TECNICO-JUR JUNTO AS PROC. DE JUST 4.769,54 476,95 0,00 0,00 0,00 0,00 5.246,49 831,07 1.092,60 0,00 1.923,67 3.322,82 330,00 2.308,68 31/08/2012
1045 523100 GUSTAVO PORTO DINIZ REIS OFICIAL DO MP ATIVO BELO HORIZONTE - COMARCA; DIRETORIA DE SERVICO CRIMINAL 2.812,27 0,00 0,00 0,00 0,00 0,00 2.812,27 366,99 138,60 0,00 505,59 2.306,68 330,00 524,03 31/08/2012
1046 475400 GUSTAVO RICCIARDI CRUVINEL ANALISTA DO MP ATIVO GUAXUPÉ - COMARCA; GUAXUPE-PJ-03PJ 4.473,58 0,00 0,00 0,00 0,00 0,00 4.473,58 492,09 269,63 0,00 761,72 3.711,86 330,00 0,00 31/08/2012
1047 386200 GUSTHAVO CARVALHO NAVARRO OFICIAL DO MP ATIVO LAGOA SANTA - COMARCA; LAGOA SANTA-PJ-01PJ 4.332,50 259,95 0,00 0,00 0,00 0,00 4.592,45 690,36 779,51 0,00 1.469,87 3.122,58 330,00 1.683,52 31/08/2012
1048 275500 HEBER SOUZA FRANCA OFICIAL DO MP ATIVO BELO HORIZONTE - COMARCA; DIRET DE INFORMACAO E EXPEDICAO DE PROCESSOS 4.195,87 839,17 0,00 0,00 0,00 0,00 5.035,04 553,85 430,54 0,00 984,39 4.050,65 330,00 0,00 31/08/2012
1049 251701 HEBIA LUIZA MACHADO ASSIS ANALISTA DO MP ATIVO ITAÚNA - COMARCA; ITAUNA-PJ-03PJ 4.769,54 476,95 0,00 0,00 0,00 0,00 5.246,49 577,11 527,55 0,00 1.104,66 4.141,83 330,00 0,00 31/08/2012
1050 242000 HELAINE GUARNIERI AGOSTINHO OFICIAL DO MP ATIVO JUIZ DE FORA - COMARCA; JUIZ DE FORA-PJ-13PJ 5.598,22 1.119,64 0,00 0,00 0,00 0,00 6.717,86 738,96 842,41 0,00 1.581,37 5.136,49 565,00 0,00 31/08/2012
1051 511900 HELBERTH ELIAS CUNHA ANALISTA DO MP ATIVO CONTAGEM - COMARCA; CONTAGEM-PJ-04PJ 3.935,44 787,09 0,00 0,00 0,00 0,00 4.722,53 519,48 399,31 0,00 918,79 3.803,74 565,00 0,00 31/08/2012
1052 524900 HELDER DA COSTA RODRIGUES ANALISTA DO MP ATIVO BELO HORIZONTE - COMARCA; CAO-MEIO AMBIENTE-SECRETARIA 4.332,50 0,00 0,00 0,00 0,00 0,00 4.332,50 476,58 315,43 0,00 792,01 3.540,49 330,00 0,00 31/08/2012
1053 397000 HELEN CRISTINA TABELINI DE ANDRADE ASSESSOR ATIVO BELO HORIZONTE - COMARCA; CENT DE ATENDIMENTO AS PROMOTORIAS DE JUSTICA 0,00 0,00 3.519,31 0,00 0,00 0,00 3.519,31 423,42 157,58 0,00 581,00 2.938,31 565,00 0,00 31/08/2012
1054 465300 HELEN GOULART MAGALHAES DA FONSECA OFICIAL DO MP ATIVO CONTAGEM - COMARCA; CONTAGEM-PJ-10PJ 2.903,86 0,00 0,00 0,00 0,00 0,00 2.903,86 319,42 80,87 0,00 400,29 2.503,57 330,00 0,00 31/08/2012
1055 310801 HELEN ROCHA DO VALLE ANALISTA DO MP ATIVO BELO HORIZONTE - COMARCA; DIRETORIA DE CONTABILIDADE 7.124,13 712,41 0,00 0,00 0,00 0,00 7.836,54 862,02 1.161,46 0,00 2.023,48 5.813,06 330,00 0,00 31/08/2012
1056 498600 HELENA CARVALHO MOYSES OFICIAL DO MP ATIVO BELO HORIZONTE - COMARCA; DIRETORIA DE PRODUCAO EDITORIAL 2.812,27 0,00 0,00 0,00 937,42 0,00 3.749,69 309,35 221,93 0,00 531,28 3.218,41 800,00 0,00 31/08/2012
1057 324000 HELENA DO CARMO FERREIRA RAMOS OFICIAL DO MP ATIVO BURITIS - COMARCA; BURITIS-PJ-SECRETARIA 4.619,20 3.233,44 0,00 0,00 0,00 0,00 7.852,64 863,79 1.029,64 0,00 1.893,43 5.959,21 330,00 0,00 31/08/2012
1058 327800 HELENO TADEU TUCCI DE ALMEIDA OFICIAL DO MP ATIVO ITAJUBA - COMARCA; ITAJUBA-PJ-01PJ 3.811,39 381,14 0,00 0,00 0,00 0,00 4.192,53 461,18 213,35 0,00 674,53 3.518,00 565,00 0,00 31/08/2012
1059 204300 HELIANE DAS GRAAS MACHADO SANTOS VIEIRA OFICIAL DO MP ATIVO GOVERNADOR VALADARES - COMARCA; GOVERNADOR VALADARES-PJ-11PJ 5.780,51 1.156,10 0,00 0,00 0,00 0,00 6.936,61 763,03 895,95 0,00 1.658,98 5.277,63 330,00 0,00 31/08/2012
1060 374500 HELIONARDO FEITOZA GONCALVES ANALISTA DO MP ATIVO JEQUITINHONHA - COMARCA; JEQUITINHONHA-PJ-SECRETARIA 5.598,22 335,89 0,00 0,00 0,00 0,00 5.934,11 652,75 695,84 0,00 1.348,59 4.585,52 330,00 0,00 31/08/2012
1061 488500 HELLEN QUEIROZ ARAUJO ANALISTA DO MP ATIVO MONTES CLAROS - COMARCA; COORD REG PATRI PUB ORD TRIB-NORTE MINAS 4.473,58 0,00 0,00 0,00 0,00 0,00 4.473,58 492,09 343,69 0,00 835,78 3.637,80 565,00 0,00 31/08/2012
1062 374000 HELOISA HELENA RODRIGUES OFICIAL DO MP ATIVO CAMPOS ALTOS - COMARCA; CAMPOS ALTOS-PJ-SECRETARIA 3.574,80 214,49 0,00 0,00 0,00 0,00 3.789,29 416,82 149,70 0,00 566,52 3.222,77 903,61 28,68 31/08/2012
1063 497700 HELOISA MARIA FERREIRA DURAES ANALISTA DO MP ATIVO BELO HORIZONTE - COMARCA; ASSESS TECNICO-JUR JUNTO AS PROC. DE JUST 4.769,54 0,00 0,00 0,00 0,00 0,00 4.769,54 524,65 410,81 0,00 935,46 3.834,08 330,00 0,00 31/08/2012
1064 444300 HELVES RODRIGUES DA SILVA ANALISTA DO MP ATIVO SETE LAGOAS - COMARCA; SETE LAGOAS-PJ-08PJ 5.421,69 0,00 0,00 0,00 0,00 0,00 5.421,69 698,62 752,65 0,00 1.451,27 3.970,42 3.545,68 1.224,17 31/08/2012
1065 521400 HENRIQUE EDUARDO BRUZZI OFICIAL DO MP ATIVO BELO HORIZONTE - COMARCA; DIRETORIA DE ADMINISTRACAO FINANCEIRA 2.554,55 0,00 0,00 0,00 0,00 0,00 2.554,55 281,00 47,74 0,00 328,74 2.225,81 330,00 0,00 31/08/2012
1066 515700 HENRIQUE FLORES MENDES ANALISTA DO MP ATIVO PARÁ DE MINAS - COMARCA; PARA DE MINAS-PJ-02PJ 4.332,50 0,00 0,00 0,00 0,00 0,00 4.332,50 476,58 315,43 0,00 792,01 3.540,49 330,00 0,00 31/08/2012
1067 445500 HENRIQUE MATHEUS LONDERO DOS SANTOS ANALISTA DO MP ATIVO UBERLÂNDIA - COMARCA; UBERLANDIA-PJ-21PJ 5.421,69 0,00 0,00 0,00 0,00 0,00 5.421,69 596,39 570,43 0,00 1.166,82 4.254,87 565,00 0,00 31/08/2012
1068 504500 HENRIQUE MOREIRA DE MELO SILVA ANALISTA DO MP ATIVO DIAMANTINA - COMARCA; COORD REG BACIAS RIOS JEQUITINHONHA E MUCURI 3.935,44 0,00 0,00 0,00 0,00 0,00 3.935,44 432,90 235,92 0,00 668,82 3.266,62 565,00 0,00 31/08/2012
1069 310700 HENRIQUE RODRIGUES VALLE OFICIAL DO MP ATIVO BELO HORIZONTE - COMARCA; DIRETORIA DE SISTEMAS DE INFORMACAO 4.195,87 1.258,76 0,00 0,00 0,00 0,00 5.454,63 600,01 578,49 0,00 1.178,50 4.276,13 330,00 0,00 31/08/2012
1070 493100 HENRIQUE YUKIO PEREIRA DE SOUZA ANALISTA DO MP ATIVO BELO HORIZONTE - COMARCA; BH-07PJ TRIBUNAL DO JURI 4.924,85 0,00 0,00 0,00 0,00 0,00 4.924,85 570,78 527,68 0,00 1.098,46 3.826,39 330,00 315,80 31/08/2012
1071 478300 HERNANE LOPES SOUZA ANALISTA DO MP ATIVO MONTES CLAROS - COMARCA; MONTES CLAROS-PJ-12PJ 4.473,58 0,00 0,00 0,00 0,00 0,00 4.473,58 492,09 343,69 0,00 835,78 3.637,80 330,00 0,00 31/08/2012
1072 490000 HERNANI GANDRA DE ALMEIDA ANALISTA DO MP ATIVO VIRGINÓPOLIS - COMARCA; VIRGINOPOLIS-PJ-UNPJ 4.473,58 0,00 0,00 0,00 0,00 0,00 4.473,58 553,36 524,03 0,00 1.077,39 3.396,19 330,00 736,36 31/08/2012
1073 124900 HILARINO NOGUEIRA DE CARVALHO OFICIAL DO MP ATIVO SÃO JOÃO DEL REI - COMARCA; SAO JOAO DEL REI-PJ-03PJ 7.356,10 5.149,27 0,00 0,00 0,00 0,00 12.505,37 1.375,59 2.258,91 0,00 3.634,50 8.870,87 330,00 0,00 31/08/2012
1074 474700 HORTELIA MARIA DE MIRANDA GONCALVES ANALISTA DO MP ATIVO ARCOS - COMARCA; ARCOS-PJ-02PJ 4.063,61 0,00 0,00 0,00 0,00 0,00 4.063,61 447,00 261,59 0,00 708,59 3.355,02 330,00 0,00 31/08/2012
1075 504200 HUGO CESAR ROCHA DE PAIVA OFICIAL DO MP ATIVO BELO HORIZONTE - COMARCA; BH-19PJ SAUDE-ASS TECNICA 2.554,55 0,00 0,00 0,00 0,00 0,00 2.554,55 295,45 56,51 0,00 351,96 2.202,59 330,00 131,40 31/08/2012
1076 412000 HUMBERTO AUGUSTO DA SILVA GOMES ANALISTA DO MP ATIVO CONCEICAO DAS ALAGOAS - COMARCA; CONCEICAO DAS ALAGOAS-PJ-01PJ 5.085,23 305,11 0,00 0,00 0,00 0,00 5.390,34 592,94 517,50 0,00 1.110,44 4.279,90 330,00 0,00 31/08/2012
1077 297500 HUMBERTO JOSE TRIVELATO ANALISTA DO MP ATIVO JUIZ DE FORA - COMARCA; JUIZ DE FORA-PJ-22PJ 8.634,11 863,41 0,00 0,00 0,00 0,00 9.497,52 1.994,10 3.680,33 0,00 5.674,43 3.823,09 330,00 8.630,63 31/08/2012
1078 300400 HUMBERTO PEREIRA LANDIM ANALISTA DO MP ATIVO BELO HORIZONTE - COMARCA; BH-07PJ 01 TRIBUNAL JURI-SECRETARIA 7.595,56 759,56 0,00 0,00 0,00 0,00 8.355,12 919,06 1.288,39 0,00 2.207,45 6.147,67 330,00 0,00 31/08/2012
1079 125100 HYARBAS DELPHUS FERREIRA OFICIAL DO MP ATIVO BELO HORIZONTE - COMARCA; DIRETORIA DE SERVICO CIVEL 8.361,90 5.853,33 0,00 0,00 0,00 0,00 14.215,23 1.563,68 2.722,65 0,00 4.286,33 9.928,90 3.545,68 294,77 31/08/2012
1080 458100 IARA CAROLINA DE OLIVEIRA ANALISTA DO MP ATIVO NOVA SERRANA - COMARCA; NOVA SERRANA-PJ-01PJ 4.924,85 0,00 0,00 0,00 0,00 0,00 4.924,85 541,73 403,57 0,00 945,30 3.979,55 330,00 0,00 31/08/2012
1081 256000 IARA FERREIRA ARAUJO OFICIAL DO MP ATIVO DIVINÓPOLIS - COMARCA; EXTINTA-DIVINÓPOLIS-COORD BACIA ALTO SÃO FRAN 3.519,31 351,93 0,00 0,00 0,00 0,00 3.871,24 425,84 223,07 0,00 648,91 3.222,33 330,00 0,00 31/08/2012
1082 93100 IARA MARCIA ALVES OFICIAL DO MP ATIVO BELO HORIZONTE - COMARCA; BH-19PJ SAUDE 8.915,18 4.457,59 0,00 0,00 0,00 0,00 13.372,77 1.471,00 2.471,20 0,00 3.942,20 9.430,57 330,00 0,00 31/08/2012
1083 404100 IARA ROCHA BARBALHO ANALISTA DO MP ATIVO BELO HORIZONTE - COMARCA; SUPERINTENDÊNCIA DE ENGENHARIA E ARQUITETURA 5.598,22 335,89 0,00 0,00 0,00 0,00 5.934,11 652,75 650,59 0,00 1.303,34 4.630,77 3.048,43 249,19 31/08/2012
1084 248500 IDELSON MENDES BOTELHO ANALISTA DO MP ATIVO JUIZ DE FORA - COMARCA; COORD REG PJ ORDEM ECON TRIB ZONA DA MATA-SEC 6.681,94 668,19 0,00 0,00 0,00 0,00 7.350,13 808,51 1.042,42 0,00 1.850,93 5.499,20 330,00 0,00 31/08/2012
1085 205600 IDELZIA RANGEL OFICIAL DO MP ATIVO SÃO JOÃO EVANGELISTA - COMARCA; SAO JOAO EVANGELISTA-PJ-SECRETARIA 6.069,59